<?xml version="1.0" encoding="UTF-8" standalone="no" ?>
<gpx xmlns="http://www.topografix.com/GPX/1/1" xmlns:xsi="http://www.w3.org/2001/XMLSchema-instance" xsi:schemaLocation="http://www.topografix.com/GPX/1/1 http://www.topografix.com/GPX/1/1/gpx.xsd" version="1.1" creator="VisuGPX - https://www.visugpx.com">
  <metadata>
    <name>Les Mées</name>
    <desc><![CDATA[rando loisir]]></desc>
  </metadata>
  <wpt lat="44.03259" lon="5.98522">
    <ele>411.74</ele>
    <name><![CDATA[0001514]]></name>
    <desc><![CDATA[]]></desc>
    <type><![CDATA[Point de départ]]></type>
  </wpt>
  <wpt lat="44.03244" lon="5.98491">
    <ele>370.84</ele>
    <name><![CDATA[0001515]]></name>
    <desc><![CDATA[<br /><h3>Nom: Segment 1</h3><br /><p>Temps de départ: 05/27/2015 09:45</p><p>Temps d'arrivée: 05/27/2015 14:09</p><p>Distance: 13,1km (04:24)</p><p>Temps déplacement: 03:13</p><p>Vitesse moyenne: 3km/h</p><p>Vitesse moyenne: 4,1km/h</p><p>Vitess Max.: 18,8km/h</p><p>Altitude minimale: 370m</p><p>Altitude maximale: 825m</p><p>Vitesse d'élévation: 240m/h</p><p>Vitesse de descente: -433,5m/h</p><p>Gain Altitude: 619m</p><p>Perte Altitude: -658m</p><p>Temps d'élévation: 02:34</p><p>Temps de descente: 01:31</p>]]></desc>
    <type><![CDATA[Point d'arrivée]]></type>
  </wpt>
  <trk>
    <name><![CDATA[2015-05-27 09:45]]></name>
    <desc><![CDATA[<h1>OruxMaps</h1><br /><hr align="center" width="480" style="height: 2px; width: 517px"/><h2>Nom: 2015-05-27 09:45</h2><br /><p>Temps de départ: 05/27/2015 09:45</p><p>Temps d'arrivée: 05/27/2015 14:09</p><p>Distance: 13,1km (04:24)</p><p>Temps déplacement: 03:13</p><p>Vitesse moyenne: 3km/h</p><p>Vitesse moyenne: 4,1km/h</p><p>Vitess Max.: 18,8km/h</p><p>Altitude minimale: 370m</p><p>Altitude maximale: 825m</p><p>Vitesse d'élévation: 240m/h</p><p>Vitesse de descente: -433,5m/h</p><p>Gain Altitude: 619m</p><p>Perte Altitude: -658m</p><p>Temps d'élévation: 02:34</p><p>Temps de descente: 01:31</p><hr align="center" width="480" style="height: 2px; width: 517px"/>]]></desc>
    <trkseg>
      <trkpt lat="44.03259" lon="5.98522">
        <ele>411.74</ele>
        <time>2015-05-27T07:45:18Z</time>
      </trkpt>
      <trkpt lat="44.03258" lon="5.98516">
        <ele>414.9</ele>
        <time>2015-05-27T07:45:27Z</time>
      </trkpt>
      <trkpt lat="44.03255" lon="5.9851">
        <ele>415.74</ele>
        <time>2015-05-27T07:45:32Z</time>
      </trkpt>
      <trkpt lat="44.03252" lon="5.98505">
        <ele>415.27</ele>
        <time>2015-05-27T07:45:36Z</time>
      </trkpt>
      <trkpt lat="44.03248" lon="5.98499">
        <ele>414.02</ele>
        <time>2015-05-27T07:45:40Z</time>
      </trkpt>
      <trkpt lat="44.03244" lon="5.98494">
        <ele>411.92</ele>
        <time>2015-05-27T07:45:49Z</time>
      </trkpt>
      <trkpt lat="44.03241" lon="5.98487">
        <ele>411</ele>
        <time>2015-05-27T07:45:53Z</time>
      </trkpt>
      <trkpt lat="44.03238" lon="5.98481">
        <ele>410.76</ele>
        <time>2015-05-27T07:45:57Z</time>
      </trkpt>
      <trkpt lat="44.03236" lon="5.98475">
        <ele>410.42</ele>
        <time>2015-05-27T07:46:01Z</time>
      </trkpt>
      <trkpt lat="44.03233" lon="5.98469">
        <ele>410.51</ele>
        <time>2015-05-27T07:46:04Z</time>
      </trkpt>
      <trkpt lat="44.03231" lon="5.98462">
        <ele>410.38</ele>
        <time>2015-05-27T07:46:08Z</time>
      </trkpt>
      <trkpt lat="44.0323" lon="5.98456">
        <ele>410.19</ele>
        <time>2015-05-27T07:46:12Z</time>
      </trkpt>
      <trkpt lat="44.03228" lon="5.98449">
        <ele>410.29</ele>
        <time>2015-05-27T07:46:15Z</time>
      </trkpt>
      <trkpt lat="44.03226" lon="5.98443">
        <ele>410.33</ele>
        <time>2015-05-27T07:46:19Z</time>
      </trkpt>
      <trkpt lat="44.03223" lon="5.98437">
        <ele>410.13</ele>
        <time>2015-05-27T07:46:23Z</time>
      </trkpt>
      <trkpt lat="44.03221" lon="5.9843">
        <ele>410.32</ele>
        <time>2015-05-27T07:46:27Z</time>
      </trkpt>
      <trkpt lat="44.03219" lon="5.98423">
        <ele>410.95</ele>
        <time>2015-05-27T07:46:32Z</time>
      </trkpt>
      <trkpt lat="44.03217" lon="5.98416">
        <ele>411.09</ele>
        <time>2015-05-27T07:46:37Z</time>
      </trkpt>
      <trkpt lat="44.03215" lon="5.9841">
        <ele>410.88</ele>
        <time>2015-05-27T07:46:41Z</time>
      </trkpt>
      <trkpt lat="44.03213" lon="5.98405">
        <ele>411.01</ele>
        <time>2015-05-27T07:46:44Z</time>
      </trkpt>
      <trkpt lat="44.0321" lon="5.98399">
        <ele>411.11</ele>
        <time>2015-05-27T07:46:48Z</time>
      </trkpt>
      <trkpt lat="44.03209" lon="5.98392">
        <ele>411.16</ele>
        <time>2015-05-27T07:46:52Z</time>
      </trkpt>
      <trkpt lat="44.03208" lon="5.98385">
        <ele>411.3</ele>
        <time>2015-05-27T07:46:57Z</time>
      </trkpt>
      <trkpt lat="44.03204" lon="5.98382">
        <ele>411.22</ele>
        <time>2015-05-27T07:47:01Z</time>
      </trkpt>
      <trkpt lat="44.03201" lon="5.98376">
        <ele>411.19</ele>
        <time>2015-05-27T07:47:06Z</time>
      </trkpt>
      <trkpt lat="44.03197" lon="5.9837">
        <ele>411.24</ele>
        <time>2015-05-27T07:47:09Z</time>
      </trkpt>
      <trkpt lat="44.03194" lon="5.98365">
        <ele>411.32</ele>
        <time>2015-05-27T07:47:12Z</time>
      </trkpt>
      <trkpt lat="44.03189" lon="5.98362">
        <ele>411.41</ele>
        <time>2015-05-27T07:47:15Z</time>
      </trkpt>
      <trkpt lat="44.03186" lon="5.98357">
        <ele>411.57</ele>
        <time>2015-05-27T07:47:19Z</time>
      </trkpt>
      <trkpt lat="44.03182" lon="5.98353">
        <ele>411.58</ele>
        <time>2015-05-27T07:47:23Z</time>
      </trkpt>
      <trkpt lat="44.0318" lon="5.98347">
        <ele>411.93</ele>
        <time>2015-05-27T07:47:27Z</time>
      </trkpt>
      <trkpt lat="44.03176" lon="5.98342">
        <ele>411.92</ele>
        <time>2015-05-27T07:47:31Z</time>
      </trkpt>
      <trkpt lat="44.03172" lon="5.98337">
        <ele>412.37</ele>
        <time>2015-05-27T07:47:36Z</time>
      </trkpt>
      <trkpt lat="44.03169" lon="5.98333">
        <ele>412.26</ele>
        <time>2015-05-27T07:47:41Z</time>
      </trkpt>
      <trkpt lat="44.03164" lon="5.9833">
        <ele>412.41</ele>
        <time>2015-05-27T07:47:46Z</time>
      </trkpt>
      <trkpt lat="44.03167" lon="5.98336">
        <ele>413.03</ele>
        <time>2015-05-27T07:47:52Z</time>
      </trkpt>
      <trkpt lat="44.03169" lon="5.98343">
        <ele>413.66</ele>
        <time>2015-05-27T07:47:57Z</time>
      </trkpt>
      <trkpt lat="44.03173" lon="5.98349">
        <ele>414.64</ele>
        <time>2015-05-27T07:48:02Z</time>
      </trkpt>
      <trkpt lat="44.03175" lon="5.98355">
        <ele>415.44</ele>
        <time>2015-05-27T07:48:08Z</time>
      </trkpt>
      <trkpt lat="44.03178" lon="5.98362">
        <ele>416.31</ele>
        <time>2015-05-27T07:48:14Z</time>
      </trkpt>
      <trkpt lat="44.0318" lon="5.98368">
        <ele>416.94</ele>
        <time>2015-05-27T07:48:19Z</time>
      </trkpt>
      <trkpt lat="44.03183" lon="5.98373">
        <ele>417.41</ele>
        <time>2015-05-27T07:48:23Z</time>
      </trkpt>
      <trkpt lat="44.03185" lon="5.98378">
        <ele>417.87</ele>
        <time>2015-05-27T07:48:27Z</time>
      </trkpt>
      <trkpt lat="44.03183" lon="5.98372">
        <ele>417.15</ele>
        <time>2015-05-27T07:49:07Z</time>
      </trkpt>
      <trkpt lat="44.03181" lon="5.98365">
        <ele>416.61</ele>
        <time>2015-05-27T07:49:10Z</time>
      </trkpt>
      <trkpt lat="44.03179" lon="5.98359">
        <ele>416.34</ele>
        <time>2015-05-27T07:49:13Z</time>
      </trkpt>
      <trkpt lat="44.03177" lon="5.98352">
        <ele>416.24</ele>
        <time>2015-05-27T07:49:17Z</time>
      </trkpt>
      <trkpt lat="44.03174" lon="5.98347">
        <ele>416.3</ele>
        <time>2015-05-27T07:49:20Z</time>
      </trkpt>
      <trkpt lat="44.0317" lon="5.98341">
        <ele>416.51</ele>
        <time>2015-05-27T07:49:25Z</time>
      </trkpt>
      <trkpt lat="44.03167" lon="5.98335">
        <ele>416.55</ele>
        <time>2015-05-27T07:49:29Z</time>
      </trkpt>
      <trkpt lat="44.03166" lon="5.98329">
        <ele>416.37</ele>
        <time>2015-05-27T07:49:35Z</time>
      </trkpt>
      <trkpt lat="44.03163" lon="5.98322">
        <ele>416.55</ele>
        <time>2015-05-27T07:49:38Z</time>
      </trkpt>
      <trkpt lat="44.0316" lon="5.98316">
        <ele>416.6</ele>
        <time>2015-05-27T07:49:41Z</time>
      </trkpt>
      <trkpt lat="44.03158" lon="5.9831">
        <ele>416.88</ele>
        <time>2015-05-27T07:49:45Z</time>
      </trkpt>
      <trkpt lat="44.03155" lon="5.98305">
        <ele>417.12</ele>
        <time>2015-05-27T07:49:49Z</time>
      </trkpt>
      <trkpt lat="44.03152" lon="5.98299">
        <ele>417.28</ele>
        <time>2015-05-27T07:49:53Z</time>
      </trkpt>
      <trkpt lat="44.03149" lon="5.98292">
        <ele>417.12</ele>
        <time>2015-05-27T07:49:57Z</time>
      </trkpt>
      <trkpt lat="44.03145" lon="5.98287">
        <ele>416.98</ele>
        <time>2015-05-27T07:50:00Z</time>
      </trkpt>
      <trkpt lat="44.03142" lon="5.98281">
        <ele>417.05</ele>
        <time>2015-05-27T07:50:04Z</time>
      </trkpt>
      <trkpt lat="44.03139" lon="5.98277">
        <ele>416.96</ele>
        <time>2015-05-27T07:50:07Z</time>
      </trkpt>
      <trkpt lat="44.03135" lon="5.98272">
        <ele>416.6</ele>
        <time>2015-05-27T07:50:11Z</time>
      </trkpt>
      <trkpt lat="44.03131" lon="5.98267">
        <ele>416.64</ele>
        <time>2015-05-27T07:50:16Z</time>
      </trkpt>
      <trkpt lat="44.03129" lon="5.98262">
        <ele>416.49</ele>
        <time>2015-05-27T07:50:19Z</time>
      </trkpt>
      <trkpt lat="44.03126" lon="5.98256">
        <ele>416.45</ele>
        <time>2015-05-27T07:50:23Z</time>
      </trkpt>
      <trkpt lat="44.03121" lon="5.98257">
        <ele>416.84</ele>
        <time>2015-05-27T07:50:31Z</time>
      </trkpt>
      <trkpt lat="44.03116" lon="5.98255">
        <ele>417.28</ele>
        <time>2015-05-27T07:50:45Z</time>
      </trkpt>
      <trkpt lat="44.03109" lon="5.98257">
        <ele>417.19</ele>
        <time>2015-05-27T07:51:01Z</time>
      </trkpt>
      <trkpt lat="44.03105" lon="5.98257">
        <ele>417.34</ele>
        <time>2015-05-27T07:51:14Z</time>
      </trkpt>
      <trkpt lat="44.03107" lon="5.98263">
        <ele>418.76</ele>
        <time>2015-05-27T07:51:36Z</time>
      </trkpt>
      <trkpt lat="44.03109" lon="5.9827">
        <ele>419.63</ele>
        <time>2015-05-27T07:51:44Z</time>
      </trkpt>
      <trkpt lat="44.03111" lon="5.98275">
        <ele>420.54</ele>
        <time>2015-05-27T07:51:49Z</time>
      </trkpt>
      <trkpt lat="44.03113" lon="5.98284">
        <ele>421.73</ele>
        <time>2015-05-27T07:51:59Z</time>
      </trkpt>
      <trkpt lat="44.03115" lon="5.98294">
        <ele>421.99</ele>
        <time>2015-05-27T07:52:09Z</time>
      </trkpt>
      <trkpt lat="44.03117" lon="5.983">
        <ele>422.72</ele>
        <time>2015-05-27T07:52:14Z</time>
      </trkpt>
      <trkpt lat="44.03116" lon="5.98307">
        <ele>423.6</ele>
        <time>2015-05-27T07:52:20Z</time>
      </trkpt>
      <trkpt lat="44.03117" lon="5.98315">
        <ele>424.14</ele>
        <time>2015-05-27T07:52:29Z</time>
      </trkpt>
      <trkpt lat="44.03116" lon="5.98322">
        <ele>424.9</ele>
        <time>2015-05-27T07:52:34Z</time>
      </trkpt>
      <trkpt lat="44.03115" lon="5.98328">
        <ele>426.37</ele>
        <time>2015-05-27T07:52:39Z</time>
      </trkpt>
      <trkpt lat="44.03116" lon="5.98335">
        <ele>427.31</ele>
        <time>2015-05-27T07:52:45Z</time>
      </trkpt>
      <trkpt lat="44.03117" lon="5.98341">
        <ele>428.16</ele>
        <time>2015-05-27T07:52:50Z</time>
      </trkpt>
      <trkpt lat="44.03119" lon="5.98349">
        <ele>428.6</ele>
        <time>2015-05-27T07:52:55Z</time>
      </trkpt>
      <trkpt lat="44.03121" lon="5.98354">
        <ele>428.96</ele>
        <time>2015-05-27T07:52:59Z</time>
      </trkpt>
      <trkpt lat="44.03123" lon="5.9836">
        <ele>429.26</ele>
        <time>2015-05-27T07:53:04Z</time>
      </trkpt>
      <trkpt lat="44.03126" lon="5.98365">
        <ele>429.39</ele>
        <time>2015-05-27T07:53:08Z</time>
      </trkpt>
      <trkpt lat="44.03129" lon="5.98371">
        <ele>430.12</ele>
        <time>2015-05-27T07:53:13Z</time>
      </trkpt>
      <trkpt lat="44.03131" lon="5.98376">
        <ele>430.07</ele>
        <time>2015-05-27T07:53:17Z</time>
      </trkpt>
      <trkpt lat="44.03133" lon="5.98383">
        <ele>430.47</ele>
        <time>2015-05-27T07:53:21Z</time>
      </trkpt>
      <trkpt lat="44.03134" lon="5.9839">
        <ele>430.6</ele>
        <time>2015-05-27T07:53:25Z</time>
      </trkpt>
      <trkpt lat="44.03134" lon="5.98397">
        <ele>430.53</ele>
        <time>2015-05-27T07:53:29Z</time>
      </trkpt>
      <trkpt lat="44.03136" lon="5.98404">
        <ele>430.93</ele>
        <time>2015-05-27T07:53:33Z</time>
      </trkpt>
      <trkpt lat="44.03138" lon="5.9841">
        <ele>431.8</ele>
        <time>2015-05-27T07:53:37Z</time>
      </trkpt>
      <trkpt lat="44.0314" lon="5.98417">
        <ele>432.46</ele>
        <time>2015-05-27T07:53:42Z</time>
      </trkpt>
      <trkpt lat="44.03139" lon="5.98424">
        <ele>432.26</ele>
        <time>2015-05-27T07:53:47Z</time>
      </trkpt>
      <trkpt lat="44.03137" lon="5.98431">
        <ele>432.46</ele>
        <time>2015-05-27T07:53:52Z</time>
      </trkpt>
      <trkpt lat="44.03138" lon="5.98437">
        <ele>432.92</ele>
        <time>2015-05-27T07:53:56Z</time>
      </trkpt>
      <trkpt lat="44.03139" lon="5.98443">
        <ele>433.83</ele>
        <time>2015-05-27T07:54:00Z</time>
      </trkpt>
      <trkpt lat="44.0314" lon="5.98451">
        <ele>434.9</ele>
        <time>2015-05-27T07:54:04Z</time>
      </trkpt>
      <trkpt lat="44.03142" lon="5.98457">
        <ele>435.55</ele>
        <time>2015-05-27T07:54:07Z</time>
      </trkpt>
      <trkpt lat="44.03143" lon="5.98464">
        <ele>436.55</ele>
        <time>2015-05-27T07:54:11Z</time>
      </trkpt>
      <trkpt lat="44.03144" lon="5.98471">
        <ele>437.52</ele>
        <time>2015-05-27T07:54:15Z</time>
      </trkpt>
      <trkpt lat="44.03146" lon="5.98477">
        <ele>438.17</ele>
        <time>2015-05-27T07:54:19Z</time>
      </trkpt>
      <trkpt lat="44.03148" lon="5.98484">
        <ele>439.14</ele>
        <time>2015-05-27T07:54:24Z</time>
      </trkpt>
      <trkpt lat="44.03148" lon="5.9849">
        <ele>439.7</ele>
        <time>2015-05-27T07:54:29Z</time>
      </trkpt>
      <trkpt lat="44.0315" lon="5.98497">
        <ele>439.68</ele>
        <time>2015-05-27T07:54:35Z</time>
      </trkpt>
      <trkpt lat="44.03151" lon="5.98503">
        <ele>439.79</ele>
        <time>2015-05-27T07:54:39Z</time>
      </trkpt>
      <trkpt lat="44.03153" lon="5.98509">
        <ele>439.75</ele>
        <time>2015-05-27T07:54:42Z</time>
      </trkpt>
      <trkpt lat="44.03155" lon="5.98515">
        <ele>439.22</ele>
        <time>2015-05-27T07:54:44Z</time>
      </trkpt>
      <trkpt lat="44.03156" lon="5.98523">
        <ele>438.86</ele>
        <time>2015-05-27T07:54:47Z</time>
      </trkpt>
      <trkpt lat="44.03158" lon="5.9853">
        <ele>438.42</ele>
        <time>2015-05-27T07:54:50Z</time>
      </trkpt>
      <trkpt lat="44.0316" lon="5.98536">
        <ele>438.18</ele>
        <time>2015-05-27T07:54:54Z</time>
      </trkpt>
      <trkpt lat="44.03163" lon="5.98541">
        <ele>438.48</ele>
        <time>2015-05-27T07:54:58Z</time>
      </trkpt>
      <trkpt lat="44.03166" lon="5.98547">
        <ele>439.14</ele>
        <time>2015-05-27T07:55:02Z</time>
      </trkpt>
      <trkpt lat="44.03168" lon="5.98553">
        <ele>440.07</ele>
        <time>2015-05-27T07:55:07Z</time>
      </trkpt>
      <trkpt lat="44.0317" lon="5.98559">
        <ele>440.44</ele>
        <time>2015-05-27T07:55:12Z</time>
      </trkpt>
      <trkpt lat="44.03173" lon="5.98565">
        <ele>440.73</ele>
        <time>2015-05-27T07:55:17Z</time>
      </trkpt>
      <trkpt lat="44.03175" lon="5.98571">
        <ele>440.74</ele>
        <time>2015-05-27T07:55:21Z</time>
      </trkpt>
      <trkpt lat="44.03179" lon="5.98577">
        <ele>441.01</ele>
        <time>2015-05-27T07:55:26Z</time>
      </trkpt>
      <trkpt lat="44.03182" lon="5.98583">
        <ele>441.52</ele>
        <time>2015-05-27T07:55:31Z</time>
      </trkpt>
      <trkpt lat="44.03183" lon="5.98589">
        <ele>442.34</ele>
        <time>2015-05-27T07:55:36Z</time>
      </trkpt>
      <trkpt lat="44.03184" lon="5.98596">
        <ele>442.89</ele>
        <time>2015-05-27T07:55:41Z</time>
      </trkpt>
      <trkpt lat="44.03184" lon="5.98603">
        <ele>442.78</ele>
        <time>2015-05-27T07:55:46Z</time>
      </trkpt>
      <trkpt lat="44.03185" lon="5.98609">
        <ele>443.42</ele>
        <time>2015-05-27T07:55:52Z</time>
      </trkpt>
      <trkpt lat="44.03185" lon="5.98616">
        <ele>443.91</ele>
        <time>2015-05-27T07:55:58Z</time>
      </trkpt>
      <trkpt lat="44.03187" lon="5.98622">
        <ele>444.62</ele>
        <time>2015-05-27T07:56:02Z</time>
      </trkpt>
      <trkpt lat="44.03189" lon="5.98628">
        <ele>445.24</ele>
        <time>2015-05-27T07:56:07Z</time>
      </trkpt>
      <trkpt lat="44.03189" lon="5.98635">
        <ele>445.16</ele>
        <time>2015-05-27T07:56:13Z</time>
      </trkpt>
      <trkpt lat="44.03189" lon="5.98642">
        <ele>444.99</ele>
        <time>2015-05-27T07:56:17Z</time>
      </trkpt>
      <trkpt lat="44.03191" lon="5.98648">
        <ele>444.89</ele>
        <time>2015-05-27T07:56:21Z</time>
      </trkpt>
      <trkpt lat="44.03192" lon="5.98654">
        <ele>445.44</ele>
        <time>2015-05-27T07:56:26Z</time>
      </trkpt>
      <trkpt lat="44.03194" lon="5.9866">
        <ele>446.84</ele>
        <time>2015-05-27T07:56:31Z</time>
      </trkpt>
      <trkpt lat="44.03196" lon="5.98667">
        <ele>448.45</ele>
        <time>2015-05-27T07:56:37Z</time>
      </trkpt>
      <trkpt lat="44.03197" lon="5.98673">
        <ele>449.69</ele>
        <time>2015-05-27T07:56:43Z</time>
      </trkpt>
      <trkpt lat="44.03199" lon="5.9868">
        <ele>450.41</ele>
        <time>2015-05-27T07:56:48Z</time>
      </trkpt>
      <trkpt lat="44.03203" lon="5.98688">
        <ele>452.23</ele>
        <time>2015-05-27T07:56:55Z</time>
      </trkpt>
      <trkpt lat="44.03209" lon="5.98692">
        <ele>455.19</ele>
        <time>2015-05-27T07:57:06Z</time>
      </trkpt>
      <trkpt lat="44.03211" lon="5.98698">
        <ele>455.7</ele>
        <time>2015-05-27T07:57:11Z</time>
      </trkpt>
      <trkpt lat="44.03213" lon="5.98705">
        <ele>454.47</ele>
        <time>2015-05-27T07:57:29Z</time>
      </trkpt>
      <trkpt lat="44.03215" lon="5.98711">
        <ele>452.8</ele>
        <time>2015-05-27T07:57:35Z</time>
      </trkpt>
      <trkpt lat="44.03218" lon="5.98716">
        <ele>451.99</ele>
        <time>2015-05-27T07:57:40Z</time>
      </trkpt>
      <trkpt lat="44.0322" lon="5.98722">
        <ele>451.11</ele>
        <time>2015-05-27T07:57:44Z</time>
      </trkpt>
      <trkpt lat="44.03222" lon="5.9873">
        <ele>450.28</ele>
        <time>2015-05-27T07:57:48Z</time>
      </trkpt>
      <trkpt lat="44.03225" lon="5.98737">
        <ele>449.69</ele>
        <time>2015-05-27T07:57:52Z</time>
      </trkpt>
      <trkpt lat="44.03228" lon="5.98743">
        <ele>449.6</ele>
        <time>2015-05-27T07:57:55Z</time>
      </trkpt>
      <trkpt lat="44.0323" lon="5.9875">
        <ele>449.37</ele>
        <time>2015-05-27T07:57:58Z</time>
      </trkpt>
      <trkpt lat="44.03233" lon="5.98756">
        <ele>449.31</ele>
        <time>2015-05-27T07:58:01Z</time>
      </trkpt>
      <trkpt lat="44.03237" lon="5.98762">
        <ele>449.25</ele>
        <time>2015-05-27T07:58:04Z</time>
      </trkpt>
      <trkpt lat="44.0324" lon="5.98766">
        <ele>449.19</ele>
        <time>2015-05-27T07:58:07Z</time>
      </trkpt>
      <trkpt lat="44.03243" lon="5.98772">
        <ele>449.14</ele>
        <time>2015-05-27T07:58:11Z</time>
      </trkpt>
      <trkpt lat="44.03246" lon="5.98777">
        <ele>449.26</ele>
        <time>2015-05-27T07:58:16Z</time>
      </trkpt>
      <trkpt lat="44.03249" lon="5.98783">
        <ele>449.9</ele>
        <time>2015-05-27T07:58:20Z</time>
      </trkpt>
      <trkpt lat="44.03251" lon="5.9879">
        <ele>450.12</ele>
        <time>2015-05-27T07:58:25Z</time>
      </trkpt>
      <trkpt lat="44.03255" lon="5.98795">
        <ele>450.7</ele>
        <time>2015-05-27T07:58:30Z</time>
      </trkpt>
      <trkpt lat="44.03249" lon="5.98793">
        <ele>451.34</ele>
        <time>2015-05-27T07:58:38Z</time>
      </trkpt>
      <trkpt lat="44.03243" lon="5.9879">
        <ele>451.42</ele>
        <time>2015-05-27T07:58:40Z</time>
      </trkpt>
      <trkpt lat="44.03239" lon="5.98788">
        <ele>451.36</ele>
        <time>2015-05-27T07:58:42Z</time>
      </trkpt>
      <trkpt lat="44.03234" lon="5.98787">
        <ele>451.22</ele>
        <time>2015-05-27T07:58:44Z</time>
      </trkpt>
      <trkpt lat="44.03228" lon="5.98787">
        <ele>451.11</ele>
        <time>2015-05-27T07:58:46Z</time>
      </trkpt>
      <trkpt lat="44.03224" lon="5.98785">
        <ele>450.98</ele>
        <time>2015-05-27T07:58:48Z</time>
      </trkpt>
      <trkpt lat="44.03216" lon="5.98781">
        <ele>450.96</ele>
        <time>2015-05-27T07:58:51Z</time>
      </trkpt>
      <trkpt lat="44.0321" lon="5.9878">
        <ele>451.15</ele>
        <time>2015-05-27T07:58:53Z</time>
      </trkpt>
      <trkpt lat="44.03205" lon="5.9878">
        <ele>451.22</ele>
        <time>2015-05-27T07:58:55Z</time>
      </trkpt>
      <trkpt lat="44.0321" lon="5.98789">
        <ele>449.08</ele>
        <time>2015-05-27T07:59:41Z</time>
      </trkpt>
      <trkpt lat="44.03207" lon="5.98785">
        <ele>447.56</ele>
        <time>2015-05-27T07:59:42Z</time>
      </trkpt>
      <trkpt lat="44.03227" lon="5.98787">
        <ele>447.2</ele>
        <time>2015-05-27T07:59:43Z</time>
      </trkpt>
      <trkpt lat="44.03231" lon="5.98792">
        <ele>446.18</ele>
        <time>2015-05-27T07:59:45Z</time>
      </trkpt>
      <trkpt lat="44.03237" lon="5.98794">
        <ele>446.16</ele>
        <time>2015-05-27T07:59:46Z</time>
      </trkpt>
      <trkpt lat="44.03241" lon="5.988">
        <ele>444.77</ele>
        <time>2015-05-27T07:59:49Z</time>
      </trkpt>
      <trkpt lat="44.03245" lon="5.98804">
        <ele>444.37</ele>
        <time>2015-05-27T07:59:51Z</time>
      </trkpt>
      <trkpt lat="44.03249" lon="5.98808">
        <ele>444.37</ele>
        <time>2015-05-27T07:59:53Z</time>
      </trkpt>
      <trkpt lat="44.03255" lon="5.98811">
        <ele>444.57</ele>
        <time>2015-05-27T07:59:56Z</time>
      </trkpt>
      <trkpt lat="44.03259" lon="5.98814">
        <ele>445.42</ele>
        <time>2015-05-27T07:59:58Z</time>
      </trkpt>
      <trkpt lat="44.03263" lon="5.98819">
        <ele>447.15</ele>
        <time>2015-05-27T08:00:01Z</time>
      </trkpt>
      <trkpt lat="44.03264" lon="5.98825">
        <ele>447.73</ele>
        <time>2015-05-27T08:00:05Z</time>
      </trkpt>
      <trkpt lat="44.03269" lon="5.9883">
        <ele>447.69</ele>
        <time>2015-05-27T08:00:13Z</time>
      </trkpt>
      <trkpt lat="44.0327" lon="5.98836">
        <ele>448.17</ele>
        <time>2015-05-27T08:00:18Z</time>
      </trkpt>
      <trkpt lat="44.03274" lon="5.98843">
        <ele>448.67</ele>
        <time>2015-05-27T08:00:23Z</time>
      </trkpt>
      <trkpt lat="44.03277" lon="5.98849">
        <ele>448.14</ele>
        <time>2015-05-27T08:00:27Z</time>
      </trkpt>
      <trkpt lat="44.03279" lon="5.98854">
        <ele>446.67</ele>
        <time>2015-05-27T08:00:30Z</time>
      </trkpt>
      <trkpt lat="44.03282" lon="5.9886">
        <ele>445.5</ele>
        <time>2015-05-27T08:00:35Z</time>
      </trkpt>
      <trkpt lat="44.03286" lon="5.98865">
        <ele>445.9</ele>
        <time>2015-05-27T08:00:40Z</time>
      </trkpt>
      <trkpt lat="44.03286" lon="5.98873">
        <ele>446.15</ele>
        <time>2015-05-27T08:00:44Z</time>
      </trkpt>
      <trkpt lat="44.03286" lon="5.9888">
        <ele>446.4</ele>
        <time>2015-05-27T08:00:48Z</time>
      </trkpt>
      <trkpt lat="44.03288" lon="5.98886">
        <ele>446.95</ele>
        <time>2015-05-27T08:00:52Z</time>
      </trkpt>
      <trkpt lat="44.0329" lon="5.98893">
        <ele>447.06</ele>
        <time>2015-05-27T08:00:56Z</time>
      </trkpt>
      <trkpt lat="44.03293" lon="5.98899">
        <ele>446.97</ele>
        <time>2015-05-27T08:01:00Z</time>
      </trkpt>
      <trkpt lat="44.03295" lon="5.98905">
        <ele>446.81</ele>
        <time>2015-05-27T08:01:04Z</time>
      </trkpt>
      <trkpt lat="44.03297" lon="5.98911">
        <ele>446.66</ele>
        <time>2015-05-27T08:01:09Z</time>
      </trkpt>
      <trkpt lat="44.03299" lon="5.98917">
        <ele>446.42</ele>
        <time>2015-05-27T08:01:14Z</time>
      </trkpt>
      <trkpt lat="44.03301" lon="5.98923">
        <ele>446.93</ele>
        <time>2015-05-27T08:01:18Z</time>
      </trkpt>
      <trkpt lat="44.03303" lon="5.98931">
        <ele>447.21</ele>
        <time>2015-05-27T08:01:22Z</time>
      </trkpt>
      <trkpt lat="44.03305" lon="5.98937">
        <ele>447.28</ele>
        <time>2015-05-27T08:01:26Z</time>
      </trkpt>
      <trkpt lat="44.03306" lon="5.98944">
        <ele>447.4</ele>
        <time>2015-05-27T08:01:31Z</time>
      </trkpt>
      <trkpt lat="44.03307" lon="5.98954">
        <ele>448.04</ele>
        <time>2015-05-27T08:01:41Z</time>
      </trkpt>
      <trkpt lat="44.0331" lon="5.9896">
        <ele>449.06</ele>
        <time>2015-05-27T08:01:45Z</time>
      </trkpt>
      <trkpt lat="44.03313" lon="5.98965">
        <ele>449.45</ele>
        <time>2015-05-27T08:01:47Z</time>
      </trkpt>
      <trkpt lat="44.03318" lon="5.98974">
        <ele>450.14</ele>
        <time>2015-05-27T08:01:58Z</time>
      </trkpt>
      <trkpt lat="44.03323" lon="5.98977">
        <ele>450.4</ele>
        <time>2015-05-27T08:02:01Z</time>
      </trkpt>
      <trkpt lat="44.03327" lon="5.9898">
        <ele>450.7</ele>
        <time>2015-05-27T08:02:04Z</time>
      </trkpt>
      <trkpt lat="44.03331" lon="5.98985">
        <ele>450.84</ele>
        <time>2015-05-27T08:02:08Z</time>
      </trkpt>
      <trkpt lat="44.03334" lon="5.98991">
        <ele>450.87</ele>
        <time>2015-05-27T08:02:12Z</time>
      </trkpt>
      <trkpt lat="44.03336" lon="5.98997">
        <ele>450.79</ele>
        <time>2015-05-27T08:02:16Z</time>
      </trkpt>
      <trkpt lat="44.03338" lon="5.99004">
        <ele>450.47</ele>
        <time>2015-05-27T08:02:21Z</time>
      </trkpt>
      <trkpt lat="44.03341" lon="5.99011">
        <ele>450.42</ele>
        <time>2015-05-27T08:02:25Z</time>
      </trkpt>
      <trkpt lat="44.03345" lon="5.99016">
        <ele>450.28</ele>
        <time>2015-05-27T08:02:29Z</time>
      </trkpt>
      <trkpt lat="44.03348" lon="5.9902">
        <ele>450.46</ele>
        <time>2015-05-27T08:02:32Z</time>
      </trkpt>
      <trkpt lat="44.03352" lon="5.99025">
        <ele>450.32</ele>
        <time>2015-05-27T08:02:36Z</time>
      </trkpt>
      <trkpt lat="44.03355" lon="5.9903">
        <ele>450.63</ele>
        <time>2015-05-27T08:02:41Z</time>
      </trkpt>
      <trkpt lat="44.03358" lon="5.99037">
        <ele>450.84</ele>
        <time>2015-05-27T08:02:45Z</time>
      </trkpt>
      <trkpt lat="44.03358" lon="5.99043">
        <ele>450.8</ele>
        <time>2015-05-27T08:02:50Z</time>
      </trkpt>
      <trkpt lat="44.03362" lon="5.99049">
        <ele>450.76</ele>
        <time>2015-05-27T08:02:54Z</time>
      </trkpt>
      <trkpt lat="44.03365" lon="5.99056">
        <ele>450.31</ele>
        <time>2015-05-27T08:02:58Z</time>
      </trkpt>
      <trkpt lat="44.03369" lon="5.99061">
        <ele>450.54</ele>
        <time>2015-05-27T08:03:02Z</time>
      </trkpt>
      <trkpt lat="44.03371" lon="5.99068">
        <ele>450.35</ele>
        <time>2015-05-27T08:03:06Z</time>
      </trkpt>
      <trkpt lat="44.03372" lon="5.99076">
        <ele>450.28</ele>
        <time>2015-05-27T08:03:10Z</time>
      </trkpt>
      <trkpt lat="44.03372" lon="5.99083">
        <ele>450.46</ele>
        <time>2015-05-27T08:03:14Z</time>
      </trkpt>
      <trkpt lat="44.03375" lon="5.99089">
        <ele>450.96</ele>
        <time>2015-05-27T08:03:17Z</time>
      </trkpt>
      <trkpt lat="44.03378" lon="5.99094">
        <ele>451.52</ele>
        <time>2015-05-27T08:03:21Z</time>
      </trkpt>
      <trkpt lat="44.0338" lon="5.991">
        <ele>450.98</ele>
        <time>2015-05-27T08:03:25Z</time>
      </trkpt>
      <trkpt lat="44.03381" lon="5.99107">
        <ele>450.69</ele>
        <time>2015-05-27T08:03:29Z</time>
      </trkpt>
      <trkpt lat="44.03384" lon="5.99113">
        <ele>450.59</ele>
        <time>2015-05-27T08:03:33Z</time>
      </trkpt>
      <trkpt lat="44.03387" lon="5.99119">
        <ele>450.79</ele>
        <time>2015-05-27T08:03:38Z</time>
      </trkpt>
      <trkpt lat="44.03389" lon="5.99125">
        <ele>450.63</ele>
        <time>2015-05-27T08:03:44Z</time>
      </trkpt>
      <trkpt lat="44.0339" lon="5.99132">
        <ele>449.62</ele>
        <time>2015-05-27T08:03:50Z</time>
      </trkpt>
      <trkpt lat="44.03391" lon="5.99139">
        <ele>449</ele>
        <time>2015-05-27T08:03:54Z</time>
      </trkpt>
      <trkpt lat="44.03393" lon="5.99145">
        <ele>448.87</ele>
        <time>2015-05-27T08:03:58Z</time>
      </trkpt>
      <trkpt lat="44.03392" lon="5.99152">
        <ele>448.49</ele>
        <time>2015-05-27T08:04:02Z</time>
      </trkpt>
      <trkpt lat="44.03392" lon="5.99159">
        <ele>448.21</ele>
        <time>2015-05-27T08:04:06Z</time>
      </trkpt>
      <trkpt lat="44.03392" lon="5.99166">
        <ele>448.29</ele>
        <time>2015-05-27T08:04:11Z</time>
      </trkpt>
      <trkpt lat="44.03393" lon="5.99173">
        <ele>448.19</ele>
        <time>2015-05-27T08:04:15Z</time>
      </trkpt>
      <trkpt lat="44.03392" lon="5.99181">
        <ele>447.88</ele>
        <time>2015-05-27T08:04:20Z</time>
      </trkpt>
      <trkpt lat="44.03391" lon="5.99188">
        <ele>447.36</ele>
        <time>2015-05-27T08:04:24Z</time>
      </trkpt>
      <trkpt lat="44.0339" lon="5.99195">
        <ele>446.75</ele>
        <time>2015-05-27T08:04:28Z</time>
      </trkpt>
      <trkpt lat="44.0339" lon="5.99201">
        <ele>446.44</ele>
        <time>2015-05-27T08:04:32Z</time>
      </trkpt>
      <trkpt lat="44.03389" lon="5.99208">
        <ele>446.19</ele>
        <time>2015-05-27T08:04:38Z</time>
      </trkpt>
      <trkpt lat="44.03392" lon="5.99214">
        <ele>446.34</ele>
        <time>2015-05-27T08:04:42Z</time>
      </trkpt>
      <trkpt lat="44.03394" lon="5.99221">
        <ele>446.59</ele>
        <time>2015-05-27T08:04:47Z</time>
      </trkpt>
      <trkpt lat="44.03396" lon="5.99227">
        <ele>446.89</ele>
        <time>2015-05-27T08:04:52Z</time>
      </trkpt>
      <trkpt lat="44.03398" lon="5.99234">
        <ele>447.41</ele>
        <time>2015-05-27T08:04:57Z</time>
      </trkpt>
      <trkpt lat="44.03397" lon="5.99241">
        <ele>447.38</ele>
        <time>2015-05-27T08:05:03Z</time>
      </trkpt>
      <trkpt lat="44.03395" lon="5.99248">
        <ele>447.29</ele>
        <time>2015-05-27T08:05:10Z</time>
      </trkpt>
      <trkpt lat="44.03395" lon="5.99255">
        <ele>447.23</ele>
        <time>2015-05-27T08:05:16Z</time>
      </trkpt>
      <trkpt lat="44.03395" lon="5.99262">
        <ele>447.14</ele>
        <time>2015-05-27T08:05:21Z</time>
      </trkpt>
      <trkpt lat="44.03395" lon="5.99269">
        <ele>447.49</ele>
        <time>2015-05-27T08:05:26Z</time>
      </trkpt>
      <trkpt lat="44.03394" lon="5.99277">
        <ele>447.06</ele>
        <time>2015-05-27T08:05:29Z</time>
      </trkpt>
      <trkpt lat="44.03394" lon="5.99283">
        <ele>446.22</ele>
        <time>2015-05-27T08:05:32Z</time>
      </trkpt>
      <trkpt lat="44.03396" lon="5.99289">
        <ele>445.65</ele>
        <time>2015-05-27T08:05:36Z</time>
      </trkpt>
      <trkpt lat="44.03398" lon="5.99297">
        <ele>445.14</ele>
        <time>2015-05-27T08:05:40Z</time>
      </trkpt>
      <trkpt lat="44.034" lon="5.99302">
        <ele>445</ele>
        <time>2015-05-27T08:05:43Z</time>
      </trkpt>
      <trkpt lat="44.03403" lon="5.99308">
        <ele>444.45</ele>
        <time>2015-05-27T08:05:47Z</time>
      </trkpt>
      <trkpt lat="44.03405" lon="5.99315">
        <ele>443.85</ele>
        <time>2015-05-27T08:05:51Z</time>
      </trkpt>
      <trkpt lat="44.03408" lon="5.99321">
        <ele>443.72</ele>
        <time>2015-05-27T08:05:54Z</time>
      </trkpt>
      <trkpt lat="44.03411" lon="5.99327">
        <ele>443.73</ele>
        <time>2015-05-27T08:05:57Z</time>
      </trkpt>
      <trkpt lat="44.03415" lon="5.99334">
        <ele>442.85</ele>
        <time>2015-05-27T08:06:00Z</time>
      </trkpt>
      <trkpt lat="44.03418" lon="5.9934">
        <ele>442.13</ele>
        <time>2015-05-27T08:06:03Z</time>
      </trkpt>
      <trkpt lat="44.03418" lon="5.99346">
        <ele>441.91</ele>
        <time>2015-05-27T08:06:07Z</time>
      </trkpt>
      <trkpt lat="44.0342" lon="5.99352">
        <ele>442.08</ele>
        <time>2015-05-27T08:06:12Z</time>
      </trkpt>
      <trkpt lat="44.03422" lon="5.99358">
        <ele>441.99</ele>
        <time>2015-05-27T08:06:16Z</time>
      </trkpt>
      <trkpt lat="44.03422" lon="5.99365">
        <ele>440.58</ele>
        <time>2015-05-27T08:06:21Z</time>
      </trkpt>
      <trkpt lat="44.03421" lon="5.99373">
        <ele>440.22</ele>
        <time>2015-05-27T08:06:26Z</time>
      </trkpt>
      <trkpt lat="44.03422" lon="5.9938">
        <ele>440.28</ele>
        <time>2015-05-27T08:06:31Z</time>
      </trkpt>
      <trkpt lat="44.03423" lon="5.99387">
        <ele>440.48</ele>
        <time>2015-05-27T08:06:39Z</time>
      </trkpt>
      <trkpt lat="44.03425" lon="5.99394">
        <ele>440.96</ele>
        <time>2015-05-27T08:06:45Z</time>
      </trkpt>
      <trkpt lat="44.03427" lon="5.994">
        <ele>440.91</ele>
        <time>2015-05-27T08:06:50Z</time>
      </trkpt>
      <trkpt lat="44.03428" lon="5.99406">
        <ele>441.28</ele>
        <time>2015-05-27T08:06:55Z</time>
      </trkpt>
      <trkpt lat="44.03429" lon="5.99413">
        <ele>441.51</ele>
        <time>2015-05-27T08:07:00Z</time>
      </trkpt>
      <trkpt lat="44.03429" lon="5.9942">
        <ele>441.68</ele>
        <time>2015-05-27T08:07:05Z</time>
      </trkpt>
      <trkpt lat="44.03428" lon="5.99427">
        <ele>441.83</ele>
        <time>2015-05-27T08:07:09Z</time>
      </trkpt>
      <trkpt lat="44.03427" lon="5.99438">
        <ele>442.39</ele>
        <time>2015-05-27T08:07:26Z</time>
      </trkpt>
      <trkpt lat="44.03425" lon="5.99444">
        <ele>443.09</ele>
        <time>2015-05-27T08:07:31Z</time>
      </trkpt>
      <trkpt lat="44.03421" lon="5.99449">
        <ele>443.44</ele>
        <time>2015-05-27T08:07:35Z</time>
      </trkpt>
      <trkpt lat="44.0342" lon="5.99455">
        <ele>443.71</ele>
        <time>2015-05-27T08:07:41Z</time>
      </trkpt>
      <trkpt lat="44.03421" lon="5.99462">
        <ele>443.8</ele>
        <time>2015-05-27T08:07:47Z</time>
      </trkpt>
      <trkpt lat="44.03419" lon="5.99469">
        <ele>444.42</ele>
        <time>2015-05-27T08:07:53Z</time>
      </trkpt>
      <trkpt lat="44.03421" lon="5.99476">
        <ele>444.8</ele>
        <time>2015-05-27T08:07:57Z</time>
      </trkpt>
      <trkpt lat="44.03423" lon="5.99482">
        <ele>444.31</ele>
        <time>2015-05-27T08:08:01Z</time>
      </trkpt>
      <trkpt lat="44.03425" lon="5.99488">
        <ele>443.64</ele>
        <time>2015-05-27T08:08:07Z</time>
      </trkpt>
      <trkpt lat="44.03426" lon="5.99499">
        <ele>443.59</ele>
        <time>2015-05-27T08:08:38Z</time>
      </trkpt>
      <trkpt lat="44.03425" lon="5.99505">
        <ele>444.04</ele>
        <time>2015-05-27T08:09:08Z</time>
      </trkpt>
      <trkpt lat="44.03422" lon="5.99512">
        <ele>443.97</ele>
        <time>2015-05-27T08:09:13Z</time>
      </trkpt>
      <trkpt lat="44.0342" lon="5.99518">
        <ele>444.01</ele>
        <time>2015-05-27T08:09:17Z</time>
      </trkpt>
      <trkpt lat="44.03419" lon="5.99525">
        <ele>444.13</ele>
        <time>2015-05-27T08:09:21Z</time>
      </trkpt>
      <trkpt lat="44.03419" lon="5.99532">
        <ele>444.61</ele>
        <time>2015-05-27T08:09:25Z</time>
      </trkpt>
      <trkpt lat="44.03419" lon="5.99539">
        <ele>444.69</ele>
        <time>2015-05-27T08:09:30Z</time>
      </trkpt>
      <trkpt lat="44.0342" lon="5.99546">
        <ele>444.84</ele>
        <time>2015-05-27T08:09:34Z</time>
      </trkpt>
      <trkpt lat="44.03421" lon="5.99552">
        <ele>445.21</ele>
        <time>2015-05-27T08:09:38Z</time>
      </trkpt>
      <trkpt lat="44.0342" lon="5.99559">
        <ele>445.68</ele>
        <time>2015-05-27T08:09:42Z</time>
      </trkpt>
      <trkpt lat="44.03419" lon="5.99565">
        <ele>445.75</ele>
        <time>2015-05-27T08:09:45Z</time>
      </trkpt>
      <trkpt lat="44.0342" lon="5.99572">
        <ele>445.97</ele>
        <time>2015-05-27T08:09:48Z</time>
      </trkpt>
      <trkpt lat="44.03421" lon="5.99578">
        <ele>446.5</ele>
        <time>2015-05-27T08:09:51Z</time>
      </trkpt>
      <trkpt lat="44.03423" lon="5.99584">
        <ele>446.88</ele>
        <time>2015-05-27T08:09:53Z</time>
      </trkpt>
      <trkpt lat="44.03425" lon="5.9959">
        <ele>447.07</ele>
        <time>2015-05-27T08:09:56Z</time>
      </trkpt>
      <trkpt lat="44.03428" lon="5.99595">
        <ele>446.78</ele>
        <time>2015-05-27T08:09:59Z</time>
      </trkpt>
      <trkpt lat="44.03431" lon="5.99603">
        <ele>445.97</ele>
        <time>2015-05-27T08:10:03Z</time>
      </trkpt>
      <trkpt lat="44.03433" lon="5.9961">
        <ele>445.08</ele>
        <time>2015-05-27T08:10:06Z</time>
      </trkpt>
      <trkpt lat="44.03435" lon="5.99618">
        <ele>444.84</ele>
        <time>2015-05-27T08:10:10Z</time>
      </trkpt>
      <trkpt lat="44.03435" lon="5.99624">
        <ele>445.38</ele>
        <time>2015-05-27T08:10:16Z</time>
      </trkpt>
      <trkpt lat="44.03438" lon="5.9963">
        <ele>445.74</ele>
        <time>2015-05-27T08:10:20Z</time>
      </trkpt>
      <trkpt lat="44.03441" lon="5.99636">
        <ele>445.19</ele>
        <time>2015-05-27T08:10:24Z</time>
      </trkpt>
      <trkpt lat="44.03444" lon="5.99642">
        <ele>443.89</ele>
        <time>2015-05-27T08:10:29Z</time>
      </trkpt>
      <trkpt lat="44.03445" lon="5.99648">
        <ele>444.2</ele>
        <time>2015-05-27T08:10:33Z</time>
      </trkpt>
      <trkpt lat="44.03447" lon="5.99659">
        <ele>444.64</ele>
        <time>2015-05-27T08:10:41Z</time>
      </trkpt>
      <trkpt lat="44.03447" lon="5.99666">
        <ele>444.92</ele>
        <time>2015-05-27T08:10:45Z</time>
      </trkpt>
      <trkpt lat="44.03446" lon="5.99672">
        <ele>444.14</ele>
        <time>2015-05-27T08:10:51Z</time>
      </trkpt>
      <trkpt lat="44.03446" lon="5.99679">
        <ele>443.96</ele>
        <time>2015-05-27T08:10:56Z</time>
      </trkpt>
      <trkpt lat="44.03448" lon="5.99685">
        <ele>443.98</ele>
        <time>2015-05-27T08:11:00Z</time>
      </trkpt>
      <trkpt lat="44.03449" lon="5.99692">
        <ele>443.35</ele>
        <time>2015-05-27T08:11:05Z</time>
      </trkpt>
      <trkpt lat="44.03452" lon="5.99699">
        <ele>443.87</ele>
        <time>2015-05-27T08:11:10Z</time>
      </trkpt>
      <trkpt lat="44.03454" lon="5.99705">
        <ele>443.7</ele>
        <time>2015-05-27T08:11:15Z</time>
      </trkpt>
      <trkpt lat="44.03455" lon="5.99713">
        <ele>443.82</ele>
        <time>2015-05-27T08:11:21Z</time>
      </trkpt>
      <trkpt lat="44.03454" lon="5.9972">
        <ele>443.38</ele>
        <time>2015-05-27T08:11:26Z</time>
      </trkpt>
      <trkpt lat="44.03456" lon="5.99726">
        <ele>443.23</ele>
        <time>2015-05-27T08:11:32Z</time>
      </trkpt>
      <trkpt lat="44.03461" lon="5.99727">
        <ele>443.14</ele>
        <time>2015-05-27T08:11:39Z</time>
      </trkpt>
      <trkpt lat="44.03464" lon="5.99732">
        <ele>442.77</ele>
        <time>2015-05-27T08:11:44Z</time>
      </trkpt>
      <trkpt lat="44.03464" lon="5.99738">
        <ele>442.61</ele>
        <time>2015-05-27T08:11:47Z</time>
      </trkpt>
      <trkpt lat="44.03465" lon="5.99745">
        <ele>442.77</ele>
        <time>2015-05-27T08:11:52Z</time>
      </trkpt>
      <trkpt lat="44.03464" lon="5.99751">
        <ele>442.49</ele>
        <time>2015-05-27T08:11:57Z</time>
      </trkpt>
      <trkpt lat="44.03464" lon="5.99758">
        <ele>442.91</ele>
        <time>2015-05-27T08:12:03Z</time>
      </trkpt>
      <trkpt lat="44.03465" lon="5.99766">
        <ele>443.48</ele>
        <time>2015-05-27T08:12:09Z</time>
      </trkpt>
      <trkpt lat="44.03467" lon="5.99772">
        <ele>443.82</ele>
        <time>2015-05-27T08:12:12Z</time>
      </trkpt>
      <trkpt lat="44.0347" lon="5.99778">
        <ele>443.22</ele>
        <time>2015-05-27T08:12:16Z</time>
      </trkpt>
      <trkpt lat="44.03473" lon="5.99782">
        <ele>442.57</ele>
        <time>2015-05-27T08:12:21Z</time>
      </trkpt>
      <trkpt lat="44.03477" lon="5.99786">
        <ele>443.29</ele>
        <time>2015-05-27T08:12:30Z</time>
      </trkpt>
      <trkpt lat="44.03475" lon="5.99792">
        <ele>446.09</ele>
        <time>2015-05-27T08:12:44Z</time>
      </trkpt>
      <trkpt lat="44.03475" lon="5.99802">
        <ele>447.08</ele>
        <time>2015-05-27T08:12:52Z</time>
      </trkpt>
      <trkpt lat="44.03476" lon="5.99808">
        <ele>448</ele>
        <time>2015-05-27T08:12:57Z</time>
      </trkpt>
      <trkpt lat="44.03477" lon="5.99815">
        <ele>448.13</ele>
        <time>2015-05-27T08:13:01Z</time>
      </trkpt>
      <trkpt lat="44.03478" lon="5.99822">
        <ele>448.83</ele>
        <time>2015-05-27T08:13:05Z</time>
      </trkpt>
      <trkpt lat="44.03478" lon="5.99829">
        <ele>449.51</ele>
        <time>2015-05-27T08:13:10Z</time>
      </trkpt>
      <trkpt lat="44.0348" lon="5.99835">
        <ele>450.05</ele>
        <time>2015-05-27T08:13:13Z</time>
      </trkpt>
      <trkpt lat="44.03482" lon="5.99841">
        <ele>450.94</ele>
        <time>2015-05-27T08:13:17Z</time>
      </trkpt>
      <trkpt lat="44.03485" lon="5.99846">
        <ele>451.88</ele>
        <time>2015-05-27T08:13:21Z</time>
      </trkpt>
      <trkpt lat="44.03489" lon="5.9985">
        <ele>452.74</ele>
        <time>2015-05-27T08:13:25Z</time>
      </trkpt>
      <trkpt lat="44.03493" lon="5.99855">
        <ele>453.59</ele>
        <time>2015-05-27T08:13:29Z</time>
      </trkpt>
      <trkpt lat="44.03497" lon="5.99858">
        <ele>454.54</ele>
        <time>2015-05-27T08:13:33Z</time>
      </trkpt>
      <trkpt lat="44.03501" lon="5.99863">
        <ele>455.79</ele>
        <time>2015-05-27T08:13:37Z</time>
      </trkpt>
      <trkpt lat="44.03506" lon="5.99868">
        <ele>456.86</ele>
        <time>2015-05-27T08:13:41Z</time>
      </trkpt>
      <trkpt lat="44.03511" lon="5.99873">
        <ele>457.87</ele>
        <time>2015-05-27T08:13:44Z</time>
      </trkpt>
      <trkpt lat="44.03515" lon="5.99876">
        <ele>458.4</ele>
        <time>2015-05-27T08:13:47Z</time>
      </trkpt>
      <trkpt lat="44.03519" lon="5.9988">
        <ele>458.87</ele>
        <time>2015-05-27T08:13:50Z</time>
      </trkpt>
      <trkpt lat="44.03523" lon="5.99884">
        <ele>459.58</ele>
        <time>2015-05-27T08:13:53Z</time>
      </trkpt>
      <trkpt lat="44.03526" lon="5.99889">
        <ele>460.51</ele>
        <time>2015-05-27T08:13:56Z</time>
      </trkpt>
      <trkpt lat="44.03529" lon="5.99895">
        <ele>461.3</ele>
        <time>2015-05-27T08:13:59Z</time>
      </trkpt>
      <trkpt lat="44.03531" lon="5.99901">
        <ele>463.05</ele>
        <time>2015-05-27T08:14:03Z</time>
      </trkpt>
      <trkpt lat="44.03533" lon="5.99907">
        <ele>464</ele>
        <time>2015-05-27T08:14:07Z</time>
      </trkpt>
      <trkpt lat="44.03533" lon="5.99913">
        <ele>465.13</ele>
        <time>2015-05-27T08:14:11Z</time>
      </trkpt>
      <trkpt lat="44.03538" lon="5.99921">
        <ele>467.59</ele>
        <time>2015-05-27T08:14:21Z</time>
      </trkpt>
      <trkpt lat="44.03541" lon="5.99925">
        <ele>468.31</ele>
        <time>2015-05-27T08:14:26Z</time>
      </trkpt>
      <trkpt lat="44.03545" lon="5.99928">
        <ele>468.46</ele>
        <time>2015-05-27T08:14:30Z</time>
      </trkpt>
      <trkpt lat="44.0355" lon="5.99934">
        <ele>468.45</ele>
        <time>2015-05-27T08:14:34Z</time>
      </trkpt>
      <trkpt lat="44.03554" lon="5.99939">
        <ele>468.74</ele>
        <time>2015-05-27T08:14:37Z</time>
      </trkpt>
      <trkpt lat="44.03557" lon="5.99944">
        <ele>469.43</ele>
        <time>2015-05-27T08:14:40Z</time>
      </trkpt>
      <trkpt lat="44.0356" lon="5.99949">
        <ele>470.25</ele>
        <time>2015-05-27T08:14:44Z</time>
      </trkpt>
      <trkpt lat="44.03562" lon="5.99956">
        <ele>470.62</ele>
        <time>2015-05-27T08:14:48Z</time>
      </trkpt>
      <trkpt lat="44.03564" lon="5.99964">
        <ele>471.17</ele>
        <time>2015-05-27T08:14:52Z</time>
      </trkpt>
      <trkpt lat="44.03567" lon="5.9997">
        <ele>471.64</ele>
        <time>2015-05-27T08:14:56Z</time>
      </trkpt>
      <trkpt lat="44.0357" lon="5.99974">
        <ele>472.18</ele>
        <time>2015-05-27T08:15:00Z</time>
      </trkpt>
      <trkpt lat="44.03573" lon="5.9998">
        <ele>472.59</ele>
        <time>2015-05-27T08:15:04Z</time>
      </trkpt>
      <trkpt lat="44.03575" lon="5.99987">
        <ele>472.93</ele>
        <time>2015-05-27T08:15:09Z</time>
      </trkpt>
      <trkpt lat="44.03578" lon="5.99992">
        <ele>473.5</ele>
        <time>2015-05-27T08:15:13Z</time>
      </trkpt>
      <trkpt lat="44.03581" lon="5.99998">
        <ele>473.52</ele>
        <time>2015-05-27T08:15:17Z</time>
      </trkpt>
      <trkpt lat="44.03585" lon="6.00003">
        <ele>473.58</ele>
        <time>2015-05-27T08:15:21Z</time>
      </trkpt>
      <trkpt lat="44.03588" lon="6.00008">
        <ele>473.49</ele>
        <time>2015-05-27T08:15:25Z</time>
      </trkpt>
      <trkpt lat="44.03592" lon="6.00012">
        <ele>473.67</ele>
        <time>2015-05-27T08:15:30Z</time>
      </trkpt>
      <trkpt lat="44.03596" lon="6.00016">
        <ele>474.92</ele>
        <time>2015-05-27T08:15:35Z</time>
      </trkpt>
      <trkpt lat="44.036" lon="6.00021">
        <ele>474.76</ele>
        <time>2015-05-27T08:15:40Z</time>
      </trkpt>
      <trkpt lat="44.03605" lon="6.00025">
        <ele>474.59</ele>
        <time>2015-05-27T08:15:47Z</time>
      </trkpt>
      <trkpt lat="44.03609" lon="6.00028">
        <ele>473.97</ele>
        <time>2015-05-27T08:15:52Z</time>
      </trkpt>
      <trkpt lat="44.03613" lon="6.00032">
        <ele>473.06</ele>
        <time>2015-05-27T08:15:56Z</time>
      </trkpt>
      <trkpt lat="44.03616" lon="6.00038">
        <ele>471.91</ele>
        <time>2015-05-27T08:16:00Z</time>
      </trkpt>
      <trkpt lat="44.03618" lon="6.00043">
        <ele>471</ele>
        <time>2015-05-27T08:16:05Z</time>
      </trkpt>
      <trkpt lat="44.03622" lon="6.00048">
        <ele>470.11</ele>
        <time>2015-05-27T08:16:10Z</time>
      </trkpt>
      <trkpt lat="44.03626" lon="6.00052">
        <ele>469.8</ele>
        <time>2015-05-27T08:16:15Z</time>
      </trkpt>
      <trkpt lat="44.03628" lon="6.00058">
        <ele>469.13</ele>
        <time>2015-05-27T08:16:19Z</time>
      </trkpt>
      <trkpt lat="44.03631" lon="6.00065">
        <ele>468.26</ele>
        <time>2015-05-27T08:16:23Z</time>
      </trkpt>
      <trkpt lat="44.03633" lon="6.00071">
        <ele>467.01</ele>
        <time>2015-05-27T08:16:26Z</time>
      </trkpt>
      <trkpt lat="44.03634" lon="6.00078">
        <ele>466.75</ele>
        <time>2015-05-27T08:16:29Z</time>
      </trkpt>
      <trkpt lat="44.03636" lon="6.00086">
        <ele>466.88</ele>
        <time>2015-05-27T08:16:33Z</time>
      </trkpt>
      <trkpt lat="44.03638" lon="6.00092">
        <ele>466.69</ele>
        <time>2015-05-27T08:16:37Z</time>
      </trkpt>
      <trkpt lat="44.03638" lon="6.00099">
        <ele>466.6</ele>
        <time>2015-05-27T08:16:41Z</time>
      </trkpt>
      <trkpt lat="44.0364" lon="6.00105">
        <ele>466.97</ele>
        <time>2015-05-27T08:16:45Z</time>
      </trkpt>
      <trkpt lat="44.03641" lon="6.00111">
        <ele>467.18</ele>
        <time>2015-05-27T08:16:49Z</time>
      </trkpt>
      <trkpt lat="44.03643" lon="6.00117">
        <ele>467.08</ele>
        <time>2015-05-27T08:16:52Z</time>
      </trkpt>
      <trkpt lat="44.03646" lon="6.00122">
        <ele>467.05</ele>
        <time>2015-05-27T08:16:55Z</time>
      </trkpt>
      <trkpt lat="44.03649" lon="6.00129">
        <ele>466.46</ele>
        <time>2015-05-27T08:16:59Z</time>
      </trkpt>
      <trkpt lat="44.03651" lon="6.00137">
        <ele>466.12</ele>
        <time>2015-05-27T08:17:03Z</time>
      </trkpt>
      <trkpt lat="44.03651" lon="6.00144">
        <ele>465.6</ele>
        <time>2015-05-27T08:17:07Z</time>
      </trkpt>
      <trkpt lat="44.03652" lon="6.0015">
        <ele>465.13</ele>
        <time>2015-05-27T08:17:12Z</time>
      </trkpt>
      <trkpt lat="44.03653" lon="6.00157">
        <ele>465</ele>
        <time>2015-05-27T08:17:17Z</time>
      </trkpt>
      <trkpt lat="44.03654" lon="6.00164">
        <ele>464.8</ele>
        <time>2015-05-27T08:17:22Z</time>
      </trkpt>
      <trkpt lat="44.03658" lon="6.0017">
        <ele>464.65</ele>
        <time>2015-05-27T08:17:26Z</time>
      </trkpt>
      <trkpt lat="44.03661" lon="6.00175">
        <ele>464.59</ele>
        <time>2015-05-27T08:17:30Z</time>
      </trkpt>
      <trkpt lat="44.03665" lon="6.00181">
        <ele>464.88</ele>
        <time>2015-05-27T08:17:34Z</time>
      </trkpt>
      <trkpt lat="44.03669" lon="6.00186">
        <ele>465.19</ele>
        <time>2015-05-27T08:17:38Z</time>
      </trkpt>
      <trkpt lat="44.03672" lon="6.00191">
        <ele>465.44</ele>
        <time>2015-05-27T08:17:42Z</time>
      </trkpt>
      <trkpt lat="44.03675" lon="6.00196">
        <ele>465.3</ele>
        <time>2015-05-27T08:17:46Z</time>
      </trkpt>
      <trkpt lat="44.03679" lon="6.002">
        <ele>465.84</ele>
        <time>2015-05-27T08:17:50Z</time>
      </trkpt>
      <trkpt lat="44.03683" lon="6.00207">
        <ele>466.27</ele>
        <time>2015-05-27T08:17:55Z</time>
      </trkpt>
      <trkpt lat="44.03686" lon="6.00212">
        <ele>466.35</ele>
        <time>2015-05-27T08:18:00Z</time>
      </trkpt>
      <trkpt lat="44.0369" lon="6.00218">
        <ele>466.96</ele>
        <time>2015-05-27T08:18:05Z</time>
      </trkpt>
      <trkpt lat="44.03693" lon="6.00223">
        <ele>466.94</ele>
        <time>2015-05-27T08:18:09Z</time>
      </trkpt>
      <trkpt lat="44.03695" lon="6.0023">
        <ele>466.12</ele>
        <time>2015-05-27T08:18:13Z</time>
      </trkpt>
      <trkpt lat="44.03698" lon="6.00237">
        <ele>466.01</ele>
        <time>2015-05-27T08:18:17Z</time>
      </trkpt>
      <trkpt lat="44.03701" lon="6.00243">
        <ele>466.01</ele>
        <time>2015-05-27T08:18:21Z</time>
      </trkpt>
      <trkpt lat="44.03701" lon="6.0025">
        <ele>466.06</ele>
        <time>2015-05-27T08:18:24Z</time>
      </trkpt>
      <trkpt lat="44.03703" lon="6.00256">
        <ele>465.22</ele>
        <time>2015-05-27T08:18:28Z</time>
      </trkpt>
      <trkpt lat="44.03706" lon="6.00262">
        <ele>465.63</ele>
        <time>2015-05-27T08:18:32Z</time>
      </trkpt>
      <trkpt lat="44.03708" lon="6.00268">
        <ele>466.23</ele>
        <time>2015-05-27T08:18:36Z</time>
      </trkpt>
      <trkpt lat="44.0371" lon="6.00274">
        <ele>466.02</ele>
        <time>2015-05-27T08:18:40Z</time>
      </trkpt>
      <trkpt lat="44.03712" lon="6.0028">
        <ele>466.74</ele>
        <time>2015-05-27T08:18:45Z</time>
      </trkpt>
      <trkpt lat="44.03715" lon="6.00286">
        <ele>466.4</ele>
        <time>2015-05-27T08:18:50Z</time>
      </trkpt>
      <trkpt lat="44.03719" lon="6.0029">
        <ele>465.71</ele>
        <time>2015-05-27T08:18:54Z</time>
      </trkpt>
      <trkpt lat="44.03723" lon="6.00295">
        <ele>465.21</ele>
        <time>2015-05-27T08:18:58Z</time>
      </trkpt>
      <trkpt lat="44.03727" lon="6.00299">
        <ele>465.21</ele>
        <time>2015-05-27T08:19:02Z</time>
      </trkpt>
      <trkpt lat="44.03731" lon="6.00304">
        <ele>465.51</ele>
        <time>2015-05-27T08:19:06Z</time>
      </trkpt>
      <trkpt lat="44.03735" lon="6.00308">
        <ele>465.81</ele>
        <time>2015-05-27T08:19:11Z</time>
      </trkpt>
      <trkpt lat="44.03739" lon="6.00313">
        <ele>465.88</ele>
        <time>2015-05-27T08:19:16Z</time>
      </trkpt>
      <trkpt lat="44.03741" lon="6.0032">
        <ele>465.5</ele>
        <time>2015-05-27T08:19:20Z</time>
      </trkpt>
      <trkpt lat="44.03744" lon="6.00326">
        <ele>465.23</ele>
        <time>2015-05-27T08:19:24Z</time>
      </trkpt>
      <trkpt lat="44.03746" lon="6.00332">
        <ele>464.8</ele>
        <time>2015-05-27T08:19:29Z</time>
      </trkpt>
      <trkpt lat="44.03749" lon="6.00342">
        <ele>461.87</ele>
        <time>2015-05-27T08:19:37Z</time>
      </trkpt>
      <trkpt lat="44.0375" lon="6.0035">
        <ele>457.22</ele>
        <time>2015-05-27T08:19:43Z</time>
      </trkpt>
      <trkpt lat="44.03751" lon="6.00356">
        <ele>454.81</ele>
        <time>2015-05-27T08:19:46Z</time>
      </trkpt>
      <trkpt lat="44.03753" lon="6.00362">
        <ele>452.55</ele>
        <time>2015-05-27T08:19:50Z</time>
      </trkpt>
      <trkpt lat="44.03754" lon="6.00369">
        <ele>450.92</ele>
        <time>2015-05-27T08:19:55Z</time>
      </trkpt>
      <trkpt lat="44.03756" lon="6.00376">
        <ele>449.32</ele>
        <time>2015-05-27T08:20:00Z</time>
      </trkpt>
      <trkpt lat="44.03757" lon="6.00382">
        <ele>447.65</ele>
        <time>2015-05-27T08:20:05Z</time>
      </trkpt>
      <trkpt lat="44.0376" lon="6.0039">
        <ele>445.31</ele>
        <time>2015-05-27T08:20:12Z</time>
      </trkpt>
      <trkpt lat="44.03765" lon="6.00399">
        <ele>443.34</ele>
        <time>2015-05-27T08:20:28Z</time>
      </trkpt>
      <trkpt lat="44.03769" lon="6.00404">
        <ele>442.32</ele>
        <time>2015-05-27T08:20:37Z</time>
      </trkpt>
      <trkpt lat="44.03773" lon="6.00409">
        <ele>442.17</ele>
        <time>2015-05-27T08:20:42Z</time>
      </trkpt>
      <trkpt lat="44.03776" lon="6.00414">
        <ele>441.84</ele>
        <time>2015-05-27T08:20:47Z</time>
      </trkpt>
      <trkpt lat="44.0378" lon="6.0042">
        <ele>442.2</ele>
        <time>2015-05-27T08:20:52Z</time>
      </trkpt>
      <trkpt lat="44.03783" lon="6.00426">
        <ele>442.43</ele>
        <time>2015-05-27T08:20:56Z</time>
      </trkpt>
      <trkpt lat="44.03786" lon="6.00432">
        <ele>442.11</ele>
        <time>2015-05-27T08:21:00Z</time>
      </trkpt>
      <trkpt lat="44.03788" lon="6.00437">
        <ele>441.79</ele>
        <time>2015-05-27T08:21:03Z</time>
      </trkpt>
      <trkpt lat="44.03791" lon="6.00443">
        <ele>441.25</ele>
        <time>2015-05-27T08:21:08Z</time>
      </trkpt>
      <trkpt lat="44.03794" lon="6.00451">
        <ele>441.04</ele>
        <time>2015-05-27T08:21:16Z</time>
      </trkpt>
      <trkpt lat="44.03795" lon="6.00458">
        <ele>441.5</ele>
        <time>2015-05-27T08:21:21Z</time>
      </trkpt>
      <trkpt lat="44.03798" lon="6.00463">
        <ele>441.84</ele>
        <time>2015-05-27T08:21:26Z</time>
      </trkpt>
      <trkpt lat="44.03802" lon="6.00469">
        <ele>441.55</ele>
        <time>2015-05-27T08:21:31Z</time>
      </trkpt>
      <trkpt lat="44.03806" lon="6.00474">
        <ele>440.75</ele>
        <time>2015-05-27T08:21:35Z</time>
      </trkpt>
      <trkpt lat="44.03809" lon="6.00479">
        <ele>439.93</ele>
        <time>2015-05-27T08:21:40Z</time>
      </trkpt>
      <trkpt lat="44.03812" lon="6.00484">
        <ele>439.01</ele>
        <time>2015-05-27T08:21:45Z</time>
      </trkpt>
      <trkpt lat="44.03815" lon="6.0049">
        <ele>438.48</ele>
        <time>2015-05-27T08:21:50Z</time>
      </trkpt>
      <trkpt lat="44.03818" lon="6.00496">
        <ele>438.55</ele>
        <time>2015-05-27T08:21:54Z</time>
      </trkpt>
      <trkpt lat="44.0382" lon="6.00503">
        <ele>438.18</ele>
        <time>2015-05-27T08:21:58Z</time>
      </trkpt>
      <trkpt lat="44.03823" lon="6.0051">
        <ele>437.78</ele>
        <time>2015-05-27T08:22:02Z</time>
      </trkpt>
      <trkpt lat="44.03826" lon="6.00515">
        <ele>437.62</ele>
        <time>2015-05-27T08:22:05Z</time>
      </trkpt>
      <trkpt lat="44.03829" lon="6.00519">
        <ele>437.64</ele>
        <time>2015-05-27T08:22:08Z</time>
      </trkpt>
      <trkpt lat="44.03834" lon="6.00525">
        <ele>437.12</ele>
        <time>2015-05-27T08:22:12Z</time>
      </trkpt>
      <trkpt lat="44.03837" lon="6.0053">
        <ele>436.57</ele>
        <time>2015-05-27T08:22:16Z</time>
      </trkpt>
      <trkpt lat="44.03843" lon="6.00533">
        <ele>435.58</ele>
        <time>2015-05-27T08:22:20Z</time>
      </trkpt>
      <trkpt lat="44.03848" lon="6.00537">
        <ele>434.3</ele>
        <time>2015-05-27T08:22:26Z</time>
      </trkpt>
      <trkpt lat="44.03855" lon="6.00539">
        <ele>431.36</ele>
        <time>2015-05-27T08:22:33Z</time>
      </trkpt>
      <trkpt lat="44.03862" lon="6.0054">
        <ele>429.59</ele>
        <time>2015-05-27T08:23:00Z</time>
      </trkpt>
      <trkpt lat="44.03866" lon="6.0054">
        <ele>431.47</ele>
        <time>2015-05-27T08:23:44Z</time>
      </trkpt>
      <trkpt lat="44.03871" lon="6.00542">
        <ele>432.54</ele>
        <time>2015-05-27T08:23:52Z</time>
      </trkpt>
      <trkpt lat="44.03875" lon="6.00546">
        <ele>433.04</ele>
        <time>2015-05-27T08:23:55Z</time>
      </trkpt>
      <trkpt lat="44.0388" lon="6.0055">
        <ele>434.02</ele>
        <time>2015-05-27T08:23:59Z</time>
      </trkpt>
      <trkpt lat="44.03885" lon="6.00552">
        <ele>434.8</ele>
        <time>2015-05-27T08:24:02Z</time>
      </trkpt>
      <trkpt lat="44.0389" lon="6.00554">
        <ele>435.87</ele>
        <time>2015-05-27T08:24:05Z</time>
      </trkpt>
      <trkpt lat="44.03895" lon="6.00559">
        <ele>437.3</ele>
        <time>2015-05-27T08:24:09Z</time>
      </trkpt>
      <trkpt lat="44.03899" lon="6.00564">
        <ele>438.04</ele>
        <time>2015-05-27T08:24:13Z</time>
      </trkpt>
      <trkpt lat="44.03902" lon="6.00568">
        <ele>439.22</ele>
        <time>2015-05-27T08:24:18Z</time>
      </trkpt>
      <trkpt lat="44.03906" lon="6.00572">
        <ele>439.71</ele>
        <time>2015-05-27T08:24:23Z</time>
      </trkpt>
      <trkpt lat="44.03911" lon="6.00575">
        <ele>440.04</ele>
        <time>2015-05-27T08:24:27Z</time>
      </trkpt>
      <trkpt lat="44.03915" lon="6.00579">
        <ele>440.35</ele>
        <time>2015-05-27T08:24:31Z</time>
      </trkpt>
      <trkpt lat="44.03918" lon="6.00583">
        <ele>440.36</ele>
        <time>2015-05-27T08:24:35Z</time>
      </trkpt>
      <trkpt lat="44.03921" lon="6.00589">
        <ele>440.2</ele>
        <time>2015-05-27T08:24:40Z</time>
      </trkpt>
      <trkpt lat="44.03925" lon="6.00594">
        <ele>439.69</ele>
        <time>2015-05-27T08:24:45Z</time>
      </trkpt>
      <trkpt lat="44.03927" lon="6.00601">
        <ele>440.59</ele>
        <time>2015-05-27T08:24:49Z</time>
      </trkpt>
      <trkpt lat="44.03931" lon="6.00604">
        <ele>441.6</ele>
        <time>2015-05-27T08:24:53Z</time>
      </trkpt>
      <trkpt lat="44.03935" lon="6.00607">
        <ele>441.76</ele>
        <time>2015-05-27T08:24:56Z</time>
      </trkpt>
      <trkpt lat="44.0394" lon="6.00611">
        <ele>441.57</ele>
        <time>2015-05-27T08:24:59Z</time>
      </trkpt>
      <trkpt lat="44.03943" lon="6.00617">
        <ele>441.26</ele>
        <time>2015-05-27T08:25:03Z</time>
      </trkpt>
      <trkpt lat="44.03947" lon="6.00622">
        <ele>441.37</ele>
        <time>2015-05-27T08:25:07Z</time>
      </trkpt>
      <trkpt lat="44.03951" lon="6.00625">
        <ele>441.48</ele>
        <time>2015-05-27T08:25:10Z</time>
      </trkpt>
      <trkpt lat="44.03956" lon="6.0063">
        <ele>441.2</ele>
        <time>2015-05-27T08:25:14Z</time>
      </trkpt>
      <trkpt lat="44.03959" lon="6.00634">
        <ele>441.21</ele>
        <time>2015-05-27T08:25:18Z</time>
      </trkpt>
      <trkpt lat="44.03963" lon="6.00639">
        <ele>441.23</ele>
        <time>2015-05-27T08:25:22Z</time>
      </trkpt>
      <trkpt lat="44.03966" lon="6.00643">
        <ele>441.17</ele>
        <time>2015-05-27T08:25:26Z</time>
      </trkpt>
      <trkpt lat="44.03968" lon="6.00649">
        <ele>441.31</ele>
        <time>2015-05-27T08:25:30Z</time>
      </trkpt>
      <trkpt lat="44.03971" lon="6.00655">
        <ele>441.73</ele>
        <time>2015-05-27T08:25:35Z</time>
      </trkpt>
      <trkpt lat="44.03975" lon="6.00659">
        <ele>442.02</ele>
        <time>2015-05-27T08:25:39Z</time>
      </trkpt>
      <trkpt lat="44.03978" lon="6.00665">
        <ele>441.83</ele>
        <time>2015-05-27T08:25:44Z</time>
      </trkpt>
      <trkpt lat="44.03982" lon="6.0067">
        <ele>441.68</ele>
        <time>2015-05-27T08:25:49Z</time>
      </trkpt>
      <trkpt lat="44.03985" lon="6.00676">
        <ele>441.65</ele>
        <time>2015-05-27T08:25:53Z</time>
      </trkpt>
      <trkpt lat="44.03989" lon="6.00681">
        <ele>441.56</ele>
        <time>2015-05-27T08:25:56Z</time>
      </trkpt>
      <trkpt lat="44.03993" lon="6.00686">
        <ele>442.03</ele>
        <time>2015-05-27T08:26:00Z</time>
      </trkpt>
      <trkpt lat="44.03996" lon="6.00692">
        <ele>442.37</ele>
        <time>2015-05-27T08:26:04Z</time>
      </trkpt>
      <trkpt lat="44.04" lon="6.00697">
        <ele>442.79</ele>
        <time>2015-05-27T08:26:08Z</time>
      </trkpt>
      <trkpt lat="44.04004" lon="6.00703">
        <ele>443.67</ele>
        <time>2015-05-27T08:26:12Z</time>
      </trkpt>
      <trkpt lat="44.04008" lon="6.00709">
        <ele>444.12</ele>
        <time>2015-05-27T08:26:16Z</time>
      </trkpt>
      <trkpt lat="44.04009" lon="6.00715">
        <ele>444.31</ele>
        <time>2015-05-27T08:26:19Z</time>
      </trkpt>
      <trkpt lat="44.04013" lon="6.0072">
        <ele>444.12</ele>
        <time>2015-05-27T08:26:23Z</time>
      </trkpt>
      <trkpt lat="44.04017" lon="6.00725">
        <ele>443.47</ele>
        <time>2015-05-27T08:26:29Z</time>
      </trkpt>
      <trkpt lat="44.0402" lon="6.0073">
        <ele>443.44</ele>
        <time>2015-05-27T08:26:34Z</time>
      </trkpt>
      <trkpt lat="44.04024" lon="6.00734">
        <ele>443.4</ele>
        <time>2015-05-27T08:26:37Z</time>
      </trkpt>
      <trkpt lat="44.04028" lon="6.00738">
        <ele>443.32</ele>
        <time>2015-05-27T08:26:41Z</time>
      </trkpt>
      <trkpt lat="44.04032" lon="6.00744">
        <ele>442.83</ele>
        <time>2015-05-27T08:26:45Z</time>
      </trkpt>
      <trkpt lat="44.04036" lon="6.00748">
        <ele>441.65</ele>
        <time>2015-05-27T08:26:49Z</time>
      </trkpt>
      <trkpt lat="44.04041" lon="6.00751">
        <ele>441.2</ele>
        <time>2015-05-27T08:26:53Z</time>
      </trkpt>
      <trkpt lat="44.04046" lon="6.00754">
        <ele>440.7</ele>
        <time>2015-05-27T08:26:57Z</time>
      </trkpt>
      <trkpt lat="44.0405" lon="6.00758">
        <ele>439.95</ele>
        <time>2015-05-27T08:27:02Z</time>
      </trkpt>
      <trkpt lat="44.04054" lon="6.00761">
        <ele>439.01</ele>
        <time>2015-05-27T08:27:07Z</time>
      </trkpt>
      <trkpt lat="44.04059" lon="6.00766">
        <ele>438.64</ele>
        <time>2015-05-27T08:27:11Z</time>
      </trkpt>
      <trkpt lat="44.04063" lon="6.0077">
        <ele>439.04</ele>
        <time>2015-05-27T08:27:16Z</time>
      </trkpt>
      <trkpt lat="44.04068" lon="6.00772">
        <ele>439.58</ele>
        <time>2015-05-27T08:27:20Z</time>
      </trkpt>
      <trkpt lat="44.04072" lon="6.00773">
        <ele>439.67</ele>
        <time>2015-05-27T08:27:23Z</time>
      </trkpt>
      <trkpt lat="44.04077" lon="6.00772">
        <ele>439.71</ele>
        <time>2015-05-27T08:27:26Z</time>
      </trkpt>
      <trkpt lat="44.04082" lon="6.0077">
        <ele>439.45</ele>
        <time>2015-05-27T08:27:29Z</time>
      </trkpt>
      <trkpt lat="44.04087" lon="6.0077">
        <ele>439.34</ele>
        <time>2015-05-27T08:27:32Z</time>
      </trkpt>
      <trkpt lat="44.04091" lon="6.00768">
        <ele>439.54</ele>
        <time>2015-05-27T08:27:35Z</time>
      </trkpt>
      <trkpt lat="44.04096" lon="6.00765">
        <ele>439.62</ele>
        <time>2015-05-27T08:27:37Z</time>
      </trkpt>
      <trkpt lat="44.041" lon="6.00766">
        <ele>439.54</ele>
        <time>2015-05-27T08:27:40Z</time>
      </trkpt>
      <trkpt lat="44.04106" lon="6.00765">
        <ele>439.29</ele>
        <time>2015-05-27T08:27:44Z</time>
      </trkpt>
      <trkpt lat="44.04111" lon="6.00766">
        <ele>439.69</ele>
        <time>2015-05-27T08:27:48Z</time>
      </trkpt>
      <trkpt lat="44.04117" lon="6.00767">
        <ele>439.73</ele>
        <time>2015-05-27T08:27:52Z</time>
      </trkpt>
      <trkpt lat="44.04121" lon="6.00769">
        <ele>440.34</ele>
        <time>2015-05-27T08:27:57Z</time>
      </trkpt>
      <trkpt lat="44.04125" lon="6.00774">
        <ele>440.86</ele>
        <time>2015-05-27T08:28:02Z</time>
      </trkpt>
      <trkpt lat="44.04128" lon="6.00779">
        <ele>440.61</ele>
        <time>2015-05-27T08:28:07Z</time>
      </trkpt>
      <trkpt lat="44.04133" lon="6.0078">
        <ele>440.51</ele>
        <time>2015-05-27T08:28:12Z</time>
      </trkpt>
      <trkpt lat="44.04139" lon="6.00781">
        <ele>440.57</ele>
        <time>2015-05-27T08:28:17Z</time>
      </trkpt>
      <trkpt lat="44.04144" lon="6.00783">
        <ele>440.8</ele>
        <time>2015-05-27T08:28:22Z</time>
      </trkpt>
      <trkpt lat="44.04149" lon="6.00787">
        <ele>441.35</ele>
        <time>2015-05-27T08:28:27Z</time>
      </trkpt>
      <trkpt lat="44.04153" lon="6.0079">
        <ele>441.94</ele>
        <time>2015-05-27T08:28:31Z</time>
      </trkpt>
      <trkpt lat="44.04157" lon="6.00794">
        <ele>442.22</ele>
        <time>2015-05-27T08:28:35Z</time>
      </trkpt>
      <trkpt lat="44.04161" lon="6.00799">
        <ele>442.32</ele>
        <time>2015-05-27T08:28:39Z</time>
      </trkpt>
      <trkpt lat="44.04165" lon="6.00804">
        <ele>442.29</ele>
        <time>2015-05-27T08:28:43Z</time>
      </trkpt>
      <trkpt lat="44.04169" lon="6.00808">
        <ele>442.27</ele>
        <time>2015-05-27T08:28:47Z</time>
      </trkpt>
      <trkpt lat="44.04174" lon="6.00812">
        <ele>442.64</ele>
        <time>2015-05-27T08:28:51Z</time>
      </trkpt>
      <trkpt lat="44.04178" lon="6.00817">
        <ele>441.78</ele>
        <time>2015-05-27T08:28:55Z</time>
      </trkpt>
      <trkpt lat="44.0418" lon="6.00823">
        <ele>440.45</ele>
        <time>2015-05-27T08:28:59Z</time>
      </trkpt>
      <trkpt lat="44.04183" lon="6.00828">
        <ele>439.99</ele>
        <time>2015-05-27T08:29:03Z</time>
      </trkpt>
      <trkpt lat="44.04184" lon="6.00836">
        <ele>439.98</ele>
        <time>2015-05-27T08:29:07Z</time>
      </trkpt>
      <trkpt lat="44.04185" lon="6.00842">
        <ele>440.33</ele>
        <time>2015-05-27T08:29:11Z</time>
      </trkpt>
      <trkpt lat="44.04188" lon="6.00847">
        <ele>440.33</ele>
        <time>2015-05-27T08:29:15Z</time>
      </trkpt>
      <trkpt lat="44.04192" lon="6.00853">
        <ele>440.06</ele>
        <time>2015-05-27T08:29:19Z</time>
      </trkpt>
      <trkpt lat="44.04195" lon="6.00858">
        <ele>439.95</ele>
        <time>2015-05-27T08:29:23Z</time>
      </trkpt>
      <trkpt lat="44.04198" lon="6.00863">
        <ele>439.91</ele>
        <time>2015-05-27T08:29:27Z</time>
      </trkpt>
      <trkpt lat="44.04201" lon="6.00869">
        <ele>440.02</ele>
        <time>2015-05-27T08:29:31Z</time>
      </trkpt>
      <trkpt lat="44.04204" lon="6.00876">
        <ele>440.13</ele>
        <time>2015-05-27T08:29:35Z</time>
      </trkpt>
      <trkpt lat="44.04206" lon="6.00882">
        <ele>440.47</ele>
        <time>2015-05-27T08:29:39Z</time>
      </trkpt>
      <trkpt lat="44.04209" lon="6.00887">
        <ele>440.22</ele>
        <time>2015-05-27T08:29:44Z</time>
      </trkpt>
      <trkpt lat="44.04211" lon="6.00893">
        <ele>440.06</ele>
        <time>2015-05-27T08:29:48Z</time>
      </trkpt>
      <trkpt lat="44.04214" lon="6.00898">
        <ele>439.68</ele>
        <time>2015-05-27T08:29:52Z</time>
      </trkpt>
      <trkpt lat="44.04218" lon="6.00902">
        <ele>438.88</ele>
        <time>2015-05-27T08:29:56Z</time>
      </trkpt>
      <trkpt lat="44.04221" lon="6.00908">
        <ele>438.46</ele>
        <time>2015-05-27T08:30:00Z</time>
      </trkpt>
      <trkpt lat="44.04223" lon="6.00915">
        <ele>438.13</ele>
        <time>2015-05-27T08:30:04Z</time>
      </trkpt>
      <trkpt lat="44.04226" lon="6.00921">
        <ele>438.4</ele>
        <time>2015-05-27T08:30:08Z</time>
      </trkpt>
      <trkpt lat="44.04229" lon="6.00926">
        <ele>438.55</ele>
        <time>2015-05-27T08:30:12Z</time>
      </trkpt>
      <trkpt lat="44.04232" lon="6.00931">
        <ele>438.43</ele>
        <time>2015-05-27T08:30:16Z</time>
      </trkpt>
      <trkpt lat="44.04235" lon="6.00937">
        <ele>438.55</ele>
        <time>2015-05-27T08:30:20Z</time>
      </trkpt>
      <trkpt lat="44.04238" lon="6.00943">
        <ele>438.83</ele>
        <time>2015-05-27T08:30:25Z</time>
      </trkpt>
      <trkpt lat="44.0424" lon="6.00949">
        <ele>438.87</ele>
        <time>2015-05-27T08:30:29Z</time>
      </trkpt>
      <trkpt lat="44.04242" lon="6.00955">
        <ele>439.38</ele>
        <time>2015-05-27T08:30:33Z</time>
      </trkpt>
      <trkpt lat="44.04245" lon="6.00961">
        <ele>439.74</ele>
        <time>2015-05-27T08:30:37Z</time>
      </trkpt>
      <trkpt lat="44.04247" lon="6.00967">
        <ele>439.96</ele>
        <time>2015-05-27T08:30:41Z</time>
      </trkpt>
      <trkpt lat="44.04249" lon="6.00973">
        <ele>439.64</ele>
        <time>2015-05-27T08:30:45Z</time>
      </trkpt>
      <trkpt lat="44.04252" lon="6.00979">
        <ele>439.95</ele>
        <time>2015-05-27T08:30:49Z</time>
      </trkpt>
      <trkpt lat="44.04254" lon="6.00985">
        <ele>440.24</ele>
        <time>2015-05-27T08:30:53Z</time>
      </trkpt>
      <trkpt lat="44.04257" lon="6.0099">
        <ele>440.79</ele>
        <time>2015-05-27T08:30:57Z</time>
      </trkpt>
      <trkpt lat="44.04259" lon="6.00997">
        <ele>440.76</ele>
        <time>2015-05-27T08:31:01Z</time>
      </trkpt>
      <trkpt lat="44.04261" lon="6.01003">
        <ele>441.12</ele>
        <time>2015-05-27T08:31:05Z</time>
      </trkpt>
      <trkpt lat="44.04263" lon="6.0101">
        <ele>441.08</ele>
        <time>2015-05-27T08:31:10Z</time>
      </trkpt>
      <trkpt lat="44.04264" lon="6.01017">
        <ele>441.59</ele>
        <time>2015-05-27T08:31:16Z</time>
      </trkpt>
      <trkpt lat="44.04267" lon="6.01024">
        <ele>441.97</ele>
        <time>2015-05-27T08:31:22Z</time>
      </trkpt>
      <trkpt lat="44.0427" lon="6.0103">
        <ele>441.18</ele>
        <time>2015-05-27T08:31:26Z</time>
      </trkpt>
      <trkpt lat="44.04273" lon="6.01036">
        <ele>440.52</ele>
        <time>2015-05-27T08:31:30Z</time>
      </trkpt>
      <trkpt lat="44.04276" lon="6.01042">
        <ele>440.31</ele>
        <time>2015-05-27T08:31:34Z</time>
      </trkpt>
      <trkpt lat="44.04277" lon="6.01048">
        <ele>440.03</ele>
        <time>2015-05-27T08:31:38Z</time>
      </trkpt>
      <trkpt lat="44.04279" lon="6.01056">
        <ele>439.98</ele>
        <time>2015-05-27T08:31:43Z</time>
      </trkpt>
      <trkpt lat="44.04282" lon="6.01062">
        <ele>440.04</ele>
        <time>2015-05-27T08:31:47Z</time>
      </trkpt>
      <trkpt lat="44.04283" lon="6.01068">
        <ele>440.48</ele>
        <time>2015-05-27T08:31:51Z</time>
      </trkpt>
      <trkpt lat="44.04285" lon="6.01074">
        <ele>440.81</ele>
        <time>2015-05-27T08:31:55Z</time>
      </trkpt>
      <trkpt lat="44.04288" lon="6.0108">
        <ele>441.06</ele>
        <time>2015-05-27T08:31:59Z</time>
      </trkpt>
      <trkpt lat="44.04291" lon="6.01085">
        <ele>441.51</ele>
        <time>2015-05-27T08:32:03Z</time>
      </trkpt>
      <trkpt lat="44.04294" lon="6.01091">
        <ele>441.93</ele>
        <time>2015-05-27T08:32:08Z</time>
      </trkpt>
      <trkpt lat="44.04296" lon="6.01097">
        <ele>441.8</ele>
        <time>2015-05-27T08:32:12Z</time>
      </trkpt>
      <trkpt lat="44.04299" lon="6.01103">
        <ele>442.3</ele>
        <time>2015-05-27T08:32:16Z</time>
      </trkpt>
      <trkpt lat="44.04301" lon="6.01109">
        <ele>443.18</ele>
        <time>2015-05-27T08:32:20Z</time>
      </trkpt>
      <trkpt lat="44.04303" lon="6.01115">
        <ele>443.74</ele>
        <time>2015-05-27T08:32:24Z</time>
      </trkpt>
      <trkpt lat="44.04302" lon="6.01121">
        <ele>443.66</ele>
        <time>2015-05-27T08:32:28Z</time>
      </trkpt>
      <trkpt lat="44.04303" lon="6.01128">
        <ele>442.35</ele>
        <time>2015-05-27T08:32:34Z</time>
      </trkpt>
      <trkpt lat="44.04305" lon="6.01134">
        <ele>441.55</ele>
        <time>2015-05-27T08:32:39Z</time>
      </trkpt>
      <trkpt lat="44.04305" lon="6.01141">
        <ele>441.48</ele>
        <time>2015-05-27T08:32:42Z</time>
      </trkpt>
      <trkpt lat="44.04307" lon="6.01147">
        <ele>441.73</ele>
        <time>2015-05-27T08:32:47Z</time>
      </trkpt>
      <trkpt lat="44.0431" lon="6.01152">
        <ele>442.06</ele>
        <time>2015-05-27T08:32:51Z</time>
      </trkpt>
      <trkpt lat="44.04314" lon="6.01157">
        <ele>442.53</ele>
        <time>2015-05-27T08:32:56Z</time>
      </trkpt>
      <trkpt lat="44.04317" lon="6.01163">
        <ele>442.91</ele>
        <time>2015-05-27T08:33:00Z</time>
      </trkpt>
      <trkpt lat="44.0432" lon="6.01168">
        <ele>443.19</ele>
        <time>2015-05-27T08:33:05Z</time>
      </trkpt>
      <trkpt lat="44.04324" lon="6.01173">
        <ele>443.4</ele>
        <time>2015-05-27T08:33:09Z</time>
      </trkpt>
      <trkpt lat="44.04328" lon="6.01177">
        <ele>443.47</ele>
        <time>2015-05-27T08:33:12Z</time>
      </trkpt>
      <trkpt lat="44.04331" lon="6.0118">
        <ele>443.37</ele>
        <time>2015-05-27T08:33:15Z</time>
      </trkpt>
      <trkpt lat="44.04335" lon="6.01184">
        <ele>443.46</ele>
        <time>2015-05-27T08:33:18Z</time>
      </trkpt>
      <trkpt lat="44.04339" lon="6.01189">
        <ele>443.67</ele>
        <time>2015-05-27T08:33:22Z</time>
      </trkpt>
      <trkpt lat="44.04343" lon="6.01195">
        <ele>444.13</ele>
        <time>2015-05-27T08:33:26Z</time>
      </trkpt>
      <trkpt lat="44.04347" lon="6.012">
        <ele>444.7</ele>
        <time>2015-05-27T08:33:30Z</time>
      </trkpt>
      <trkpt lat="44.04351" lon="6.01205">
        <ele>444.67</ele>
        <time>2015-05-27T08:33:33Z</time>
      </trkpt>
      <trkpt lat="44.04354" lon="6.01209">
        <ele>444.68</ele>
        <time>2015-05-27T08:33:36Z</time>
      </trkpt>
      <trkpt lat="44.04358" lon="6.01215">
        <ele>444.88</ele>
        <time>2015-05-27T08:33:40Z</time>
      </trkpt>
      <trkpt lat="44.04362" lon="6.01221">
        <ele>445.29</ele>
        <time>2015-05-27T08:33:44Z</time>
      </trkpt>
      <trkpt lat="44.04365" lon="6.01226">
        <ele>445.86</ele>
        <time>2015-05-27T08:33:48Z</time>
      </trkpt>
      <trkpt lat="44.04368" lon="6.01233">
        <ele>446.52</ele>
        <time>2015-05-27T08:33:53Z</time>
      </trkpt>
      <trkpt lat="44.04372" lon="6.01238">
        <ele>446.85</ele>
        <time>2015-05-27T08:33:58Z</time>
      </trkpt>
      <trkpt lat="44.04374" lon="6.01245">
        <ele>447.53</ele>
        <time>2015-05-27T08:34:03Z</time>
      </trkpt>
      <trkpt lat="44.04377" lon="6.01251">
        <ele>448.1</ele>
        <time>2015-05-27T08:34:07Z</time>
      </trkpt>
      <trkpt lat="44.0438" lon="6.01256">
        <ele>448.16</ele>
        <time>2015-05-27T08:34:11Z</time>
      </trkpt>
      <trkpt lat="44.04384" lon="6.01261">
        <ele>448.36</ele>
        <time>2015-05-27T08:34:15Z</time>
      </trkpt>
      <trkpt lat="44.04386" lon="6.01267">
        <ele>448.34</ele>
        <time>2015-05-27T08:34:18Z</time>
      </trkpt>
      <trkpt lat="44.04391" lon="6.01272">
        <ele>447.67</ele>
        <time>2015-05-27T08:34:22Z</time>
      </trkpt>
      <trkpt lat="44.04395" lon="6.01277">
        <ele>447.59</ele>
        <time>2015-05-27T08:34:26Z</time>
      </trkpt>
      <trkpt lat="44.04399" lon="6.01283">
        <ele>447.12</ele>
        <time>2015-05-27T08:34:30Z</time>
      </trkpt>
      <trkpt lat="44.04402" lon="6.01287">
        <ele>446.58</ele>
        <time>2015-05-27T08:34:34Z</time>
      </trkpt>
      <trkpt lat="44.04406" lon="6.01292">
        <ele>446.2</ele>
        <time>2015-05-27T08:34:38Z</time>
      </trkpt>
      <trkpt lat="44.04409" lon="6.01298">
        <ele>446.11</ele>
        <time>2015-05-27T08:34:42Z</time>
      </trkpt>
      <trkpt lat="44.04412" lon="6.01303">
        <ele>446.08</ele>
        <time>2015-05-27T08:34:45Z</time>
      </trkpt>
      <trkpt lat="44.04416" lon="6.01309">
        <ele>445.69</ele>
        <time>2015-05-27T08:34:49Z</time>
      </trkpt>
      <trkpt lat="44.0442" lon="6.01315">
        <ele>445.71</ele>
        <time>2015-05-27T08:34:53Z</time>
      </trkpt>
      <trkpt lat="44.04422" lon="6.0132">
        <ele>445.19</ele>
        <time>2015-05-27T08:34:57Z</time>
      </trkpt>
      <trkpt lat="44.04425" lon="6.01325">
        <ele>444.44</ele>
        <time>2015-05-27T08:35:01Z</time>
      </trkpt>
      <trkpt lat="44.04427" lon="6.01331">
        <ele>444.36</ele>
        <time>2015-05-27T08:35:05Z</time>
      </trkpt>
      <trkpt lat="44.04429" lon="6.01338">
        <ele>444.56</ele>
        <time>2015-05-27T08:35:10Z</time>
      </trkpt>
      <trkpt lat="44.0443" lon="6.01345">
        <ele>443.73</ele>
        <time>2015-05-27T08:35:15Z</time>
      </trkpt>
      <trkpt lat="44.04432" lon="6.0135">
        <ele>443.17</ele>
        <time>2015-05-27T08:35:19Z</time>
      </trkpt>
      <trkpt lat="44.04435" lon="6.01356">
        <ele>442.78</ele>
        <time>2015-05-27T08:35:23Z</time>
      </trkpt>
      <trkpt lat="44.04438" lon="6.01363">
        <ele>442.47</ele>
        <time>2015-05-27T08:35:27Z</time>
      </trkpt>
      <trkpt lat="44.04439" lon="6.0137">
        <ele>442.29</ele>
        <time>2015-05-27T08:35:31Z</time>
      </trkpt>
      <trkpt lat="44.04442" lon="6.01375">
        <ele>442.89</ele>
        <time>2015-05-27T08:35:35Z</time>
      </trkpt>
      <trkpt lat="44.04446" lon="6.01379">
        <ele>443.3</ele>
        <time>2015-05-27T08:35:39Z</time>
      </trkpt>
      <trkpt lat="44.04449" lon="6.01384">
        <ele>442.71</ele>
        <time>2015-05-27T08:35:43Z</time>
      </trkpt>
      <trkpt lat="44.04451" lon="6.0139">
        <ele>441.98</ele>
        <time>2015-05-27T08:35:47Z</time>
      </trkpt>
      <trkpt lat="44.04455" lon="6.01396">
        <ele>441.94</ele>
        <time>2015-05-27T08:35:51Z</time>
      </trkpt>
      <trkpt lat="44.04457" lon="6.01403">
        <ele>441.37</ele>
        <time>2015-05-27T08:35:54Z</time>
      </trkpt>
      <trkpt lat="44.04459" lon="6.01409">
        <ele>439.7</ele>
        <time>2015-05-27T08:35:57Z</time>
      </trkpt>
      <trkpt lat="44.04461" lon="6.01415">
        <ele>438.16</ele>
        <time>2015-05-27T08:36:01Z</time>
      </trkpt>
      <trkpt lat="44.04463" lon="6.01421">
        <ele>437.91</ele>
        <time>2015-05-27T08:36:05Z</time>
      </trkpt>
      <trkpt lat="44.04463" lon="6.01428">
        <ele>437.54</ele>
        <time>2015-05-27T08:36:10Z</time>
      </trkpt>
      <trkpt lat="44.04463" lon="6.01435">
        <ele>436.44</ele>
        <time>2015-05-27T08:36:15Z</time>
      </trkpt>
      <trkpt lat="44.04464" lon="6.01442">
        <ele>436.12</ele>
        <time>2015-05-27T08:36:19Z</time>
      </trkpt>
      <trkpt lat="44.04467" lon="6.01448">
        <ele>436.23</ele>
        <time>2015-05-27T08:36:24Z</time>
      </trkpt>
      <trkpt lat="44.04469" lon="6.01454">
        <ele>436.32</ele>
        <time>2015-05-27T08:36:28Z</time>
      </trkpt>
      <trkpt lat="44.04473" lon="6.01459">
        <ele>436.18</ele>
        <time>2015-05-27T08:36:32Z</time>
      </trkpt>
      <trkpt lat="44.04475" lon="6.01467">
        <ele>435.41</ele>
        <time>2015-05-27T08:36:36Z</time>
      </trkpt>
      <trkpt lat="44.04476" lon="6.01474">
        <ele>432.67</ele>
        <time>2015-05-27T08:36:41Z</time>
      </trkpt>
      <trkpt lat="44.04481" lon="6.01474">
        <ele>431.52</ele>
        <time>2015-05-27T08:36:46Z</time>
      </trkpt>
      <trkpt lat="44.04485" lon="6.01477">
        <ele>430.84</ele>
        <time>2015-05-27T08:36:50Z</time>
      </trkpt>
      <trkpt lat="44.04491" lon="6.01479">
        <ele>430.25</ele>
        <time>2015-05-27T08:36:54Z</time>
      </trkpt>
      <trkpt lat="44.04494" lon="6.01483">
        <ele>429.82</ele>
        <time>2015-05-27T08:36:59Z</time>
      </trkpt>
      <trkpt lat="44.04496" lon="6.01491">
        <ele>429.15</ele>
        <time>2015-05-27T08:37:03Z</time>
      </trkpt>
      <trkpt lat="44.04497" lon="6.01498">
        <ele>428.43</ele>
        <time>2015-05-27T08:37:07Z</time>
      </trkpt>
      <trkpt lat="44.04498" lon="6.01506">
        <ele>427.75</ele>
        <time>2015-05-27T08:37:12Z</time>
      </trkpt>
      <trkpt lat="44.04499" lon="6.01513">
        <ele>427.11</ele>
        <time>2015-05-27T08:37:16Z</time>
      </trkpt>
      <trkpt lat="44.04502" lon="6.0152">
        <ele>426.6</ele>
        <time>2015-05-27T08:37:20Z</time>
      </trkpt>
      <trkpt lat="44.04502" lon="6.01529">
        <ele>426.4</ele>
        <time>2015-05-27T08:37:23Z</time>
      </trkpt>
      <trkpt lat="44.04502" lon="6.01535">
        <ele>426.18</ele>
        <time>2015-05-27T08:37:25Z</time>
      </trkpt>
      <trkpt lat="44.04504" lon="6.01541">
        <ele>426.13</ele>
        <time>2015-05-27T08:37:27Z</time>
      </trkpt>
      <trkpt lat="44.04506" lon="6.01549">
        <ele>426.08</ele>
        <time>2015-05-27T08:37:30Z</time>
      </trkpt>
      <trkpt lat="44.04507" lon="6.01557">
        <ele>426.21</ele>
        <time>2015-05-27T08:37:33Z</time>
      </trkpt>
      <trkpt lat="44.0451" lon="6.01564">
        <ele>426.58</ele>
        <time>2015-05-27T08:37:36Z</time>
      </trkpt>
      <trkpt lat="44.04513" lon="6.0157">
        <ele>426.98</ele>
        <time>2015-05-27T08:37:40Z</time>
      </trkpt>
      <trkpt lat="44.04513" lon="6.01577">
        <ele>427.12</ele>
        <time>2015-05-27T08:37:43Z</time>
      </trkpt>
      <trkpt lat="44.04516" lon="6.01585">
        <ele>427.85</ele>
        <time>2015-05-27T08:37:47Z</time>
      </trkpt>
      <trkpt lat="44.04516" lon="6.01592">
        <ele>428.05</ele>
        <time>2015-05-27T08:37:51Z</time>
      </trkpt>
      <trkpt lat="44.04517" lon="6.016">
        <ele>428.35</ele>
        <time>2015-05-27T08:37:55Z</time>
      </trkpt>
      <trkpt lat="44.04517" lon="6.01606">
        <ele>428.31</ele>
        <time>2015-05-27T08:37:58Z</time>
      </trkpt>
      <trkpt lat="44.04518" lon="6.01614">
        <ele>428.55</ele>
        <time>2015-05-27T08:38:03Z</time>
      </trkpt>
      <trkpt lat="44.04518" lon="6.01621">
        <ele>429.43</ele>
        <time>2015-05-27T08:38:07Z</time>
      </trkpt>
      <trkpt lat="44.04519" lon="6.01628">
        <ele>428.87</ele>
        <time>2015-05-27T08:38:11Z</time>
      </trkpt>
      <trkpt lat="44.0452" lon="6.01636">
        <ele>429.18</ele>
        <time>2015-05-27T08:38:15Z</time>
      </trkpt>
      <trkpt lat="44.0452" lon="6.01642">
        <ele>429.87</ele>
        <time>2015-05-27T08:38:19Z</time>
      </trkpt>
      <trkpt lat="44.04519" lon="6.01648">
        <ele>430.24</ele>
        <time>2015-05-27T08:38:23Z</time>
      </trkpt>
      <trkpt lat="44.04519" lon="6.01655">
        <ele>430.1</ele>
        <time>2015-05-27T08:38:27Z</time>
      </trkpt>
      <trkpt lat="44.0452" lon="6.01661">
        <ele>429.85</ele>
        <time>2015-05-27T08:38:31Z</time>
      </trkpt>
      <trkpt lat="44.04521" lon="6.01668">
        <ele>429.65</ele>
        <time>2015-05-27T08:38:35Z</time>
      </trkpt>
      <trkpt lat="44.04523" lon="6.01674">
        <ele>429.47</ele>
        <time>2015-05-27T08:38:39Z</time>
      </trkpt>
      <trkpt lat="44.04524" lon="6.01681">
        <ele>429.89</ele>
        <time>2015-05-27T08:38:43Z</time>
      </trkpt>
      <trkpt lat="44.04524" lon="6.01689">
        <ele>430.34</ele>
        <time>2015-05-27T08:38:47Z</time>
      </trkpt>
      <trkpt lat="44.04524" lon="6.01697">
        <ele>430.79</ele>
        <time>2015-05-27T08:38:51Z</time>
      </trkpt>
      <trkpt lat="44.04523" lon="6.01705">
        <ele>431.08</ele>
        <time>2015-05-27T08:38:55Z</time>
      </trkpt>
      <trkpt lat="44.04523" lon="6.01712">
        <ele>432.06</ele>
        <time>2015-05-27T08:38:59Z</time>
      </trkpt>
      <trkpt lat="44.04523" lon="6.01719">
        <ele>433.19</ele>
        <time>2015-05-27T08:39:04Z</time>
      </trkpt>
      <trkpt lat="44.04523" lon="6.01726">
        <ele>433.41</ele>
        <time>2015-05-27T08:39:09Z</time>
      </trkpt>
      <trkpt lat="44.04521" lon="6.01732">
        <ele>433.22</ele>
        <time>2015-05-27T08:39:13Z</time>
      </trkpt>
      <trkpt lat="44.04519" lon="6.01739">
        <ele>432.72</ele>
        <time>2015-05-27T08:39:17Z</time>
      </trkpt>
      <trkpt lat="44.04518" lon="6.01746">
        <ele>432.53</ele>
        <time>2015-05-27T08:39:22Z</time>
      </trkpt>
      <trkpt lat="44.04517" lon="6.01753">
        <ele>431.58</ele>
        <time>2015-05-27T08:39:26Z</time>
      </trkpt>
      <trkpt lat="44.04515" lon="6.0176">
        <ele>430.4</ele>
        <time>2015-05-27T08:39:30Z</time>
      </trkpt>
      <trkpt lat="44.04514" lon="6.01767">
        <ele>429.6</ele>
        <time>2015-05-27T08:39:34Z</time>
      </trkpt>
      <trkpt lat="44.04512" lon="6.01773">
        <ele>429.24</ele>
        <time>2015-05-27T08:39:38Z</time>
      </trkpt>
      <trkpt lat="44.04512" lon="6.0178">
        <ele>429</ele>
        <time>2015-05-27T08:39:42Z</time>
      </trkpt>
      <trkpt lat="44.04511" lon="6.01786">
        <ele>428.98</ele>
        <time>2015-05-27T08:39:46Z</time>
      </trkpt>
      <trkpt lat="44.04509" lon="6.01793">
        <ele>429.16</ele>
        <time>2015-05-27T08:39:51Z</time>
      </trkpt>
      <trkpt lat="44.04508" lon="6.01801">
        <ele>428.67</ele>
        <time>2015-05-27T08:39:56Z</time>
      </trkpt>
      <trkpt lat="44.04506" lon="6.01808">
        <ele>428.43</ele>
        <time>2015-05-27T08:40:00Z</time>
      </trkpt>
      <trkpt lat="44.04506" lon="6.01814">
        <ele>428.32</ele>
        <time>2015-05-27T08:40:03Z</time>
      </trkpt>
      <trkpt lat="44.04506" lon="6.01821">
        <ele>428.92</ele>
        <time>2015-05-27T08:40:07Z</time>
      </trkpt>
      <trkpt lat="44.04507" lon="6.01828">
        <ele>429.4</ele>
        <time>2015-05-27T08:40:11Z</time>
      </trkpt>
      <trkpt lat="44.04509" lon="6.01835">
        <ele>429.97</ele>
        <time>2015-05-27T08:40:15Z</time>
      </trkpt>
      <trkpt lat="44.04509" lon="6.01842">
        <ele>430</ele>
        <time>2015-05-27T08:40:19Z</time>
      </trkpt>
      <trkpt lat="44.04509" lon="6.01848">
        <ele>430.55</ele>
        <time>2015-05-27T08:40:23Z</time>
      </trkpt>
      <trkpt lat="44.0451" lon="6.01856">
        <ele>431.23</ele>
        <time>2015-05-27T08:40:27Z</time>
      </trkpt>
      <trkpt lat="44.04511" lon="6.01863">
        <ele>432.16</ele>
        <time>2015-05-27T08:40:31Z</time>
      </trkpt>
      <trkpt lat="44.0451" lon="6.0187">
        <ele>432.56</ele>
        <time>2015-05-27T08:40:35Z</time>
      </trkpt>
      <trkpt lat="44.04509" lon="6.01877">
        <ele>432.93</ele>
        <time>2015-05-27T08:40:40Z</time>
      </trkpt>
      <trkpt lat="44.04509" lon="6.01884">
        <ele>433.81</ele>
        <time>2015-05-27T08:40:45Z</time>
      </trkpt>
      <trkpt lat="44.0451" lon="6.01891">
        <ele>434.45</ele>
        <time>2015-05-27T08:40:49Z</time>
      </trkpt>
      <trkpt lat="44.04512" lon="6.01897">
        <ele>435.15</ele>
        <time>2015-05-27T08:40:53Z</time>
      </trkpt>
      <trkpt lat="44.04514" lon="6.01905">
        <ele>435.8</ele>
        <time>2015-05-27T08:40:57Z</time>
      </trkpt>
      <trkpt lat="44.04516" lon="6.01911">
        <ele>436.63</ele>
        <time>2015-05-27T08:41:01Z</time>
      </trkpt>
      <trkpt lat="44.04517" lon="6.01917">
        <ele>437.34</ele>
        <time>2015-05-27T08:41:04Z</time>
      </trkpt>
      <trkpt lat="44.04519" lon="6.01925">
        <ele>437.65</ele>
        <time>2015-05-27T08:41:08Z</time>
      </trkpt>
      <trkpt lat="44.0452" lon="6.01933">
        <ele>437.93</ele>
        <time>2015-05-27T08:41:12Z</time>
      </trkpt>
      <trkpt lat="44.04521" lon="6.01939">
        <ele>437.92</ele>
        <time>2015-05-27T08:41:16Z</time>
      </trkpt>
      <trkpt lat="44.04522" lon="6.01946">
        <ele>437.75</ele>
        <time>2015-05-27T08:41:20Z</time>
      </trkpt>
      <trkpt lat="44.04524" lon="6.01953">
        <ele>437.56</ele>
        <time>2015-05-27T08:41:25Z</time>
      </trkpt>
      <trkpt lat="44.04525" lon="6.01959">
        <ele>437.24</ele>
        <time>2015-05-27T08:41:29Z</time>
      </trkpt>
      <trkpt lat="44.04526" lon="6.01965">
        <ele>436.95</ele>
        <time>2015-05-27T08:41:33Z</time>
      </trkpt>
      <trkpt lat="44.04527" lon="6.01972">
        <ele>437.27</ele>
        <time>2015-05-27T08:41:37Z</time>
      </trkpt>
      <trkpt lat="44.04528" lon="6.01978">
        <ele>437.5</ele>
        <time>2015-05-27T08:41:41Z</time>
      </trkpt>
      <trkpt lat="44.04528" lon="6.01985">
        <ele>437.71</ele>
        <time>2015-05-27T08:41:45Z</time>
      </trkpt>
      <trkpt lat="44.04529" lon="6.01993">
        <ele>438.37</ele>
        <time>2015-05-27T08:41:49Z</time>
      </trkpt>
      <trkpt lat="44.04531" lon="6.02">
        <ele>438.89</ele>
        <time>2015-05-27T08:41:53Z</time>
      </trkpt>
      <trkpt lat="44.04532" lon="6.02008">
        <ele>439.15</ele>
        <time>2015-05-27T08:41:57Z</time>
      </trkpt>
      <trkpt lat="44.04532" lon="6.02015">
        <ele>438.59</ele>
        <time>2015-05-27T08:42:02Z</time>
      </trkpt>
      <trkpt lat="44.04534" lon="6.02021">
        <ele>437.68</ele>
        <time>2015-05-27T08:42:07Z</time>
      </trkpt>
      <trkpt lat="44.04534" lon="6.02027">
        <ele>436.96</ele>
        <time>2015-05-27T08:42:16Z</time>
      </trkpt>
      <trkpt lat="44.04534" lon="6.02034">
        <ele>436.69</ele>
        <time>2015-05-27T08:42:27Z</time>
      </trkpt>
      <trkpt lat="44.04532" lon="6.02041">
        <ele>437.14</ele>
        <time>2015-05-27T08:42:57Z</time>
      </trkpt>
      <trkpt lat="44.04531" lon="6.02047">
        <ele>437.45</ele>
        <time>2015-05-27T08:43:08Z</time>
      </trkpt>
      <trkpt lat="44.04533" lon="6.02055">
        <ele>437.67</ele>
        <time>2015-05-27T08:43:14Z</time>
      </trkpt>
      <trkpt lat="44.04535" lon="6.02061">
        <ele>438.36</ele>
        <time>2015-05-27T08:43:19Z</time>
      </trkpt>
      <trkpt lat="44.04537" lon="6.02066">
        <ele>438.49</ele>
        <time>2015-05-27T08:43:27Z</time>
      </trkpt>
      <trkpt lat="44.04537" lon="6.02074">
        <ele>438.74</ele>
        <time>2015-05-27T08:43:31Z</time>
      </trkpt>
      <trkpt lat="44.04538" lon="6.02081">
        <ele>438.56</ele>
        <time>2015-05-27T08:43:35Z</time>
      </trkpt>
      <trkpt lat="44.04539" lon="6.02087">
        <ele>438.53</ele>
        <time>2015-05-27T08:43:39Z</time>
      </trkpt>
      <trkpt lat="44.04539" lon="6.02093">
        <ele>438.95</ele>
        <time>2015-05-27T08:43:43Z</time>
      </trkpt>
      <trkpt lat="44.04539" lon="6.021">
        <ele>439.17</ele>
        <time>2015-05-27T08:43:47Z</time>
      </trkpt>
      <trkpt lat="44.0454" lon="6.02108">
        <ele>439.43</ele>
        <time>2015-05-27T08:43:51Z</time>
      </trkpt>
      <trkpt lat="44.0454" lon="6.02115">
        <ele>439.4</ele>
        <time>2015-05-27T08:43:55Z</time>
      </trkpt>
      <trkpt lat="44.0454" lon="6.02122">
        <ele>439.91</ele>
        <time>2015-05-27T08:43:59Z</time>
      </trkpt>
      <trkpt lat="44.04542" lon="6.02128">
        <ele>440.12</ele>
        <time>2015-05-27T08:44:03Z</time>
      </trkpt>
      <trkpt lat="44.04543" lon="6.02134">
        <ele>440.45</ele>
        <time>2015-05-27T08:44:07Z</time>
      </trkpt>
      <trkpt lat="44.04543" lon="6.02141">
        <ele>440.72</ele>
        <time>2015-05-27T08:44:11Z</time>
      </trkpt>
      <trkpt lat="44.04543" lon="6.02147">
        <ele>440.9</ele>
        <time>2015-05-27T08:44:15Z</time>
      </trkpt>
      <trkpt lat="44.04543" lon="6.02154">
        <ele>440.92</ele>
        <time>2015-05-27T08:44:19Z</time>
      </trkpt>
      <trkpt lat="44.04542" lon="6.0216">
        <ele>441.33</ele>
        <time>2015-05-27T08:44:23Z</time>
      </trkpt>
      <trkpt lat="44.04542" lon="6.02167">
        <ele>441.7</ele>
        <time>2015-05-27T08:44:27Z</time>
      </trkpt>
      <trkpt lat="44.04541" lon="6.02174">
        <ele>441.2</ele>
        <time>2015-05-27T08:44:31Z</time>
      </trkpt>
      <trkpt lat="44.0454" lon="6.02182">
        <ele>440.61</ele>
        <time>2015-05-27T08:44:35Z</time>
      </trkpt>
      <trkpt lat="44.0454" lon="6.0219">
        <ele>439.64</ele>
        <time>2015-05-27T08:44:39Z</time>
      </trkpt>
      <trkpt lat="44.0454" lon="6.02197">
        <ele>439.13</ele>
        <time>2015-05-27T08:44:43Z</time>
      </trkpt>
      <trkpt lat="44.04539" lon="6.02206">
        <ele>438.82</ele>
        <time>2015-05-27T08:44:47Z</time>
      </trkpt>
      <trkpt lat="44.04538" lon="6.02213">
        <ele>438.97</ele>
        <time>2015-05-27T08:44:51Z</time>
      </trkpt>
      <trkpt lat="44.04537" lon="6.02221">
        <ele>438.86</ele>
        <time>2015-05-27T08:44:55Z</time>
      </trkpt>
      <trkpt lat="44.04535" lon="6.02227">
        <ele>438.86</ele>
        <time>2015-05-27T08:44:59Z</time>
      </trkpt>
      <trkpt lat="44.04535" lon="6.02235">
        <ele>439.01</ele>
        <time>2015-05-27T08:45:03Z</time>
      </trkpt>
      <trkpt lat="44.04534" lon="6.02242">
        <ele>439.08</ele>
        <time>2015-05-27T08:45:07Z</time>
      </trkpt>
      <trkpt lat="44.04533" lon="6.02249">
        <ele>438.51</ele>
        <time>2015-05-27T08:45:11Z</time>
      </trkpt>
      <trkpt lat="44.04531" lon="6.02255">
        <ele>437.93</ele>
        <time>2015-05-27T08:45:15Z</time>
      </trkpt>
      <trkpt lat="44.04531" lon="6.02263">
        <ele>437.02</ele>
        <time>2015-05-27T08:45:19Z</time>
      </trkpt>
      <trkpt lat="44.0453" lon="6.02269">
        <ele>436.06</ele>
        <time>2015-05-27T08:45:23Z</time>
      </trkpt>
      <trkpt lat="44.04529" lon="6.02276">
        <ele>435.32</ele>
        <time>2015-05-27T08:45:27Z</time>
      </trkpt>
      <trkpt lat="44.04528" lon="6.02282">
        <ele>434.85</ele>
        <time>2015-05-27T08:45:31Z</time>
      </trkpt>
      <trkpt lat="44.04527" lon="6.0229">
        <ele>433.99</ele>
        <time>2015-05-27T08:45:36Z</time>
      </trkpt>
      <trkpt lat="44.04525" lon="6.02296">
        <ele>433.85</ele>
        <time>2015-05-27T08:45:40Z</time>
      </trkpt>
      <trkpt lat="44.04524" lon="6.02303">
        <ele>433.71</ele>
        <time>2015-05-27T08:45:45Z</time>
      </trkpt>
      <trkpt lat="44.04522" lon="6.0231">
        <ele>433.76</ele>
        <time>2015-05-27T08:45:50Z</time>
      </trkpt>
      <trkpt lat="44.04519" lon="6.02316">
        <ele>433.36</ele>
        <time>2015-05-27T08:45:55Z</time>
      </trkpt>
      <trkpt lat="44.04516" lon="6.02321">
        <ele>433.89</ele>
        <time>2015-05-27T08:46:01Z</time>
      </trkpt>
      <trkpt lat="44.04511" lon="6.02324">
        <ele>434.62</ele>
        <time>2015-05-27T08:46:06Z</time>
      </trkpt>
      <trkpt lat="44.04507" lon="6.02328">
        <ele>436.14</ele>
        <time>2015-05-27T08:46:13Z</time>
      </trkpt>
      <trkpt lat="44.04503" lon="6.02332">
        <ele>436.6</ele>
        <time>2015-05-27T08:46:19Z</time>
      </trkpt>
      <trkpt lat="44.04499" lon="6.02335">
        <ele>436.59</ele>
        <time>2015-05-27T08:46:25Z</time>
      </trkpt>
      <trkpt lat="44.04494" lon="6.02338">
        <ele>436.27</ele>
        <time>2015-05-27T08:46:31Z</time>
      </trkpt>
      <trkpt lat="44.04486" lon="6.02342">
        <ele>437.04</ele>
        <time>2015-05-27T08:46:44Z</time>
      </trkpt>
      <trkpt lat="44.04481" lon="6.02341">
        <ele>437.17</ele>
        <time>2015-05-27T08:46:50Z</time>
      </trkpt>
      <trkpt lat="44.04476" lon="6.02342">
        <ele>437.01</ele>
        <time>2015-05-27T08:46:54Z</time>
      </trkpt>
      <trkpt lat="44.04471" lon="6.02345">
        <ele>437.21</ele>
        <time>2015-05-27T08:46:58Z</time>
      </trkpt>
      <trkpt lat="44.04466" lon="6.02346">
        <ele>437.68</ele>
        <time>2015-05-27T08:47:02Z</time>
      </trkpt>
      <trkpt lat="44.04462" lon="6.02346">
        <ele>437.81</ele>
        <time>2015-05-27T08:47:06Z</time>
      </trkpt>
      <trkpt lat="44.04456" lon="6.02347">
        <ele>438.22</ele>
        <time>2015-05-27T08:47:10Z</time>
      </trkpt>
      <trkpt lat="44.04451" lon="6.02348">
        <ele>438.38</ele>
        <time>2015-05-27T08:47:14Z</time>
      </trkpt>
      <trkpt lat="44.04446" lon="6.02349">
        <ele>438.04</ele>
        <time>2015-05-27T08:47:19Z</time>
      </trkpt>
      <trkpt lat="44.04442" lon="6.0235">
        <ele>437.73</ele>
        <time>2015-05-27T08:47:24Z</time>
      </trkpt>
      <trkpt lat="44.04437" lon="6.0235">
        <ele>438.15</ele>
        <time>2015-05-27T08:47:29Z</time>
      </trkpt>
      <trkpt lat="44.04432" lon="6.02352">
        <ele>440.09</ele>
        <time>2015-05-27T08:48:21Z</time>
      </trkpt>
      <trkpt lat="44.04427" lon="6.02351">
        <ele>440.41</ele>
        <time>2015-05-27T08:48:25Z</time>
      </trkpt>
      <trkpt lat="44.04422" lon="6.0235">
        <ele>440.48</ele>
        <time>2015-05-27T08:48:29Z</time>
      </trkpt>
      <trkpt lat="44.04417" lon="6.02349">
        <ele>440.79</ele>
        <time>2015-05-27T08:48:34Z</time>
      </trkpt>
      <trkpt lat="44.04412" lon="6.02348">
        <ele>440.24</ele>
        <time>2015-05-27T08:48:39Z</time>
      </trkpt>
      <trkpt lat="44.04407" lon="6.02348">
        <ele>440.75</ele>
        <time>2015-05-27T08:48:43Z</time>
      </trkpt>
      <trkpt lat="44.04402" lon="6.02348">
        <ele>441.58</ele>
        <time>2015-05-27T08:48:46Z</time>
      </trkpt>
      <trkpt lat="44.04397" lon="6.02347">
        <ele>442.21</ele>
        <time>2015-05-27T08:48:49Z</time>
      </trkpt>
      <trkpt lat="44.04393" lon="6.02346">
        <ele>442.23</ele>
        <time>2015-05-27T08:48:52Z</time>
      </trkpt>
      <trkpt lat="44.04388" lon="6.02342">
        <ele>442.05</ele>
        <time>2015-05-27T08:48:56Z</time>
      </trkpt>
      <trkpt lat="44.04383" lon="6.02339">
        <ele>442.34</ele>
        <time>2015-05-27T08:49:01Z</time>
      </trkpt>
      <trkpt lat="44.04377" lon="6.02337">
        <ele>442.18</ele>
        <time>2015-05-27T08:49:06Z</time>
      </trkpt>
      <trkpt lat="44.04373" lon="6.02335">
        <ele>442.44</ele>
        <time>2015-05-27T08:49:11Z</time>
      </trkpt>
      <trkpt lat="44.04366" lon="6.02329">
        <ele>442.49</ele>
        <time>2015-05-27T08:49:22Z</time>
      </trkpt>
      <trkpt lat="44.04364" lon="6.02322">
        <ele>443.19</ele>
        <time>2015-05-27T08:49:31Z</time>
      </trkpt>
      <trkpt lat="44.0436" lon="6.02326">
        <ele>444.01</ele>
        <time>2015-05-27T08:49:52Z</time>
      </trkpt>
      <trkpt lat="44.04355" lon="6.02327">
        <ele>445.54</ele>
        <time>2015-05-27T08:50:36Z</time>
      </trkpt>
      <trkpt lat="44.04351" lon="6.02327">
        <ele>444.42</ele>
        <time>2015-05-27T08:50:43Z</time>
      </trkpt>
      <trkpt lat="44.04347" lon="6.02331">
        <ele>444.06</ele>
        <time>2015-05-27T08:50:49Z</time>
      </trkpt>
      <trkpt lat="44.04344" lon="6.02337">
        <ele>444.22</ele>
        <time>2015-05-27T08:50:54Z</time>
      </trkpt>
      <trkpt lat="44.04343" lon="6.02344">
        <ele>444.4</ele>
        <time>2015-05-27T08:51:00Z</time>
      </trkpt>
      <trkpt lat="44.04345" lon="6.02351">
        <ele>444.77</ele>
        <time>2015-05-27T08:51:06Z</time>
      </trkpt>
      <trkpt lat="44.04345" lon="6.02358">
        <ele>444.23</ele>
        <time>2015-05-27T08:51:12Z</time>
      </trkpt>
      <trkpt lat="44.04343" lon="6.02365">
        <ele>443.92</ele>
        <time>2015-05-27T08:51:18Z</time>
      </trkpt>
      <trkpt lat="44.0434" lon="6.02373">
        <ele>443.4</ele>
        <time>2015-05-27T08:51:23Z</time>
      </trkpt>
      <trkpt lat="44.04338" lon="6.02379">
        <ele>442.71</ele>
        <time>2015-05-27T08:51:27Z</time>
      </trkpt>
      <trkpt lat="44.04337" lon="6.02385">
        <ele>441.99</ele>
        <time>2015-05-27T08:51:33Z</time>
      </trkpt>
      <trkpt lat="44.04335" lon="6.02392">
        <ele>441</ele>
        <time>2015-05-27T08:51:38Z</time>
      </trkpt>
      <trkpt lat="44.04333" lon="6.02399">
        <ele>440.49</ele>
        <time>2015-05-27T08:51:43Z</time>
      </trkpt>
      <trkpt lat="44.04331" lon="6.02404">
        <ele>439.64</ele>
        <time>2015-05-27T08:51:47Z</time>
      </trkpt>
      <trkpt lat="44.04329" lon="6.0241">
        <ele>438.66</ele>
        <time>2015-05-27T08:51:52Z</time>
      </trkpt>
      <trkpt lat="44.04326" lon="6.02416">
        <ele>438.87</ele>
        <time>2015-05-27T08:51:57Z</time>
      </trkpt>
      <trkpt lat="44.04325" lon="6.02424">
        <ele>440.04</ele>
        <time>2015-05-27T08:52:08Z</time>
      </trkpt>
      <trkpt lat="44.04321" lon="6.02429">
        <ele>442.09</ele>
        <time>2015-05-27T08:52:19Z</time>
      </trkpt>
      <trkpt lat="44.04318" lon="6.02434">
        <ele>444.68</ele>
        <time>2015-05-27T08:52:26Z</time>
      </trkpt>
      <trkpt lat="44.04321" lon="6.0244">
        <ele>447.19</ele>
        <time>2015-05-27T08:52:30Z</time>
      </trkpt>
      <trkpt lat="44.04323" lon="6.02445">
        <ele>449.36</ele>
        <time>2015-05-27T08:52:33Z</time>
      </trkpt>
      <trkpt lat="44.04327" lon="6.0245">
        <ele>450.42</ele>
        <time>2015-05-27T08:52:38Z</time>
      </trkpt>
      <trkpt lat="44.04329" lon="6.02456">
        <ele>450.7</ele>
        <time>2015-05-27T08:52:42Z</time>
      </trkpt>
      <trkpt lat="44.04329" lon="6.02462">
        <ele>450.55</ele>
        <time>2015-05-27T08:52:45Z</time>
      </trkpt>
      <trkpt lat="44.04329" lon="6.0247">
        <ele>450.67</ele>
        <time>2015-05-27T08:52:49Z</time>
      </trkpt>
      <trkpt lat="44.04329" lon="6.02477">
        <ele>450.46</ele>
        <time>2015-05-27T08:52:52Z</time>
      </trkpt>
      <trkpt lat="44.04329" lon="6.02485">
        <ele>450.21</ele>
        <time>2015-05-27T08:52:56Z</time>
      </trkpt>
      <trkpt lat="44.04329" lon="6.02493">
        <ele>449.77</ele>
        <time>2015-05-27T08:53:00Z</time>
      </trkpt>
      <trkpt lat="44.04328" lon="6.025">
        <ele>449.52</ele>
        <time>2015-05-27T08:53:04Z</time>
      </trkpt>
      <trkpt lat="44.04327" lon="6.02508">
        <ele>449.16</ele>
        <time>2015-05-27T08:53:09Z</time>
      </trkpt>
      <trkpt lat="44.04325" lon="6.02513">
        <ele>448.66</ele>
        <time>2015-05-27T08:53:13Z</time>
      </trkpt>
      <trkpt lat="44.04323" lon="6.02521">
        <ele>448.57</ele>
        <time>2015-05-27T08:53:17Z</time>
      </trkpt>
      <trkpt lat="44.04322" lon="6.02528">
        <ele>448.94</ele>
        <time>2015-05-27T08:53:21Z</time>
      </trkpt>
      <trkpt lat="44.04323" lon="6.02535">
        <ele>449.5</ele>
        <time>2015-05-27T08:53:25Z</time>
      </trkpt>
      <trkpt lat="44.04322" lon="6.02542">
        <ele>449.38</ele>
        <time>2015-05-27T08:53:29Z</time>
      </trkpt>
      <trkpt lat="44.0432" lon="6.02549">
        <ele>449.37</ele>
        <time>2015-05-27T08:53:33Z</time>
      </trkpt>
      <trkpt lat="44.0432" lon="6.02556">
        <ele>449.57</ele>
        <time>2015-05-27T08:53:37Z</time>
      </trkpt>
      <trkpt lat="44.04321" lon="6.02563">
        <ele>449.63</ele>
        <time>2015-05-27T08:53:40Z</time>
      </trkpt>
      <trkpt lat="44.04321" lon="6.0257">
        <ele>450.01</ele>
        <time>2015-05-27T08:53:44Z</time>
      </trkpt>
      <trkpt lat="44.04321" lon="6.02578">
        <ele>449.98</ele>
        <time>2015-05-27T08:53:48Z</time>
      </trkpt>
      <trkpt lat="44.0432" lon="6.02585">
        <ele>450</ele>
        <time>2015-05-27T08:53:52Z</time>
      </trkpt>
      <trkpt lat="44.04319" lon="6.02593">
        <ele>449.8</ele>
        <time>2015-05-27T08:53:56Z</time>
      </trkpt>
      <trkpt lat="44.04318" lon="6.026">
        <ele>449.76</ele>
        <time>2015-05-27T08:53:59Z</time>
      </trkpt>
      <trkpt lat="44.04318" lon="6.02608">
        <ele>449.75</ele>
        <time>2015-05-27T08:54:03Z</time>
      </trkpt>
      <trkpt lat="44.04317" lon="6.02615">
        <ele>450.35</ele>
        <time>2015-05-27T08:54:07Z</time>
      </trkpt>
      <trkpt lat="44.04316" lon="6.02621">
        <ele>450.96</ele>
        <time>2015-05-27T08:54:12Z</time>
      </trkpt>
      <trkpt lat="44.04314" lon="6.02628">
        <ele>451.13</ele>
        <time>2015-05-27T08:54:18Z</time>
      </trkpt>
      <trkpt lat="44.04313" lon="6.02635">
        <ele>451.32</ele>
        <time>2015-05-27T08:54:22Z</time>
      </trkpt>
      <trkpt lat="44.04312" lon="6.02641">
        <ele>451.87</ele>
        <time>2015-05-27T08:54:26Z</time>
      </trkpt>
      <trkpt lat="44.04311" lon="6.02648">
        <ele>452.51</ele>
        <time>2015-05-27T08:54:29Z</time>
      </trkpt>
      <trkpt lat="44.0431" lon="6.02654">
        <ele>451.98</ele>
        <time>2015-05-27T08:54:32Z</time>
      </trkpt>
      <trkpt lat="44.04311" lon="6.02662">
        <ele>452.12</ele>
        <time>2015-05-27T08:54:37Z</time>
      </trkpt>
      <trkpt lat="44.04312" lon="6.02669">
        <ele>450.93</ele>
        <time>2015-05-27T08:54:41Z</time>
      </trkpt>
      <trkpt lat="44.04311" lon="6.02676">
        <ele>449.8</ele>
        <time>2015-05-27T08:54:45Z</time>
      </trkpt>
      <trkpt lat="44.0431" lon="6.02684">
        <ele>449.18</ele>
        <time>2015-05-27T08:54:49Z</time>
      </trkpt>
      <trkpt lat="44.04308" lon="6.02691">
        <ele>449.19</ele>
        <time>2015-05-27T08:54:53Z</time>
      </trkpt>
      <trkpt lat="44.04306" lon="6.02698">
        <ele>449.76</ele>
        <time>2015-05-27T08:54:57Z</time>
      </trkpt>
      <trkpt lat="44.04304" lon="6.02705">
        <ele>449.82</ele>
        <time>2015-05-27T08:55:01Z</time>
      </trkpt>
      <trkpt lat="44.04303" lon="6.02712">
        <ele>449.08</ele>
        <time>2015-05-27T08:55:05Z</time>
      </trkpt>
      <trkpt lat="44.043" lon="6.02718">
        <ele>448.69</ele>
        <time>2015-05-27T08:55:10Z</time>
      </trkpt>
      <trkpt lat="44.04297" lon="6.02725">
        <ele>448.99</ele>
        <time>2015-05-27T08:55:14Z</time>
      </trkpt>
      <trkpt lat="44.04295" lon="6.02732">
        <ele>449.11</ele>
        <time>2015-05-27T08:55:18Z</time>
      </trkpt>
      <trkpt lat="44.04294" lon="6.02739">
        <ele>449.38</ele>
        <time>2015-05-27T08:55:22Z</time>
      </trkpt>
      <trkpt lat="44.04293" lon="6.02747">
        <ele>448.82</ele>
        <time>2015-05-27T08:55:26Z</time>
      </trkpt>
      <trkpt lat="44.04291" lon="6.02754">
        <ele>447.41</ele>
        <time>2015-05-27T08:55:30Z</time>
      </trkpt>
      <trkpt lat="44.0429" lon="6.0276">
        <ele>446.16</ele>
        <time>2015-05-27T08:55:34Z</time>
      </trkpt>
      <trkpt lat="44.0429" lon="6.02767">
        <ele>445.38</ele>
        <time>2015-05-27T08:55:39Z</time>
      </trkpt>
      <trkpt lat="44.04289" lon="6.02774">
        <ele>444.42</ele>
        <time>2015-05-27T08:55:44Z</time>
      </trkpt>
      <trkpt lat="44.04288" lon="6.02781">
        <ele>443.84</ele>
        <time>2015-05-27T08:55:49Z</time>
      </trkpt>
      <trkpt lat="44.04287" lon="6.02787">
        <ele>443.83</ele>
        <time>2015-05-27T08:55:52Z</time>
      </trkpt>
      <trkpt lat="44.04284" lon="6.02793">
        <ele>443.85</ele>
        <time>2015-05-27T08:55:56Z</time>
      </trkpt>
      <trkpt lat="44.0428" lon="6.02799">
        <ele>443.89</ele>
        <time>2015-05-27T08:56:00Z</time>
      </trkpt>
      <trkpt lat="44.04276" lon="6.02803">
        <ele>443.96</ele>
        <time>2015-05-27T08:56:03Z</time>
      </trkpt>
      <trkpt lat="44.04272" lon="6.02807">
        <ele>443.9</ele>
        <time>2015-05-27T08:56:07Z</time>
      </trkpt>
      <trkpt lat="44.04269" lon="6.02812">
        <ele>444.48</ele>
        <time>2015-05-27T08:56:11Z</time>
      </trkpt>
      <trkpt lat="44.04267" lon="6.02819">
        <ele>444.15</ele>
        <time>2015-05-27T08:56:15Z</time>
      </trkpt>
      <trkpt lat="44.04266" lon="6.02826">
        <ele>443.39</ele>
        <time>2015-05-27T08:56:20Z</time>
      </trkpt>
      <trkpt lat="44.04263" lon="6.02832">
        <ele>442.5</ele>
        <time>2015-05-27T08:56:25Z</time>
      </trkpt>
      <trkpt lat="44.0426" lon="6.02837">
        <ele>443.05</ele>
        <time>2015-05-27T08:56:29Z</time>
      </trkpt>
      <trkpt lat="44.04257" lon="6.02843">
        <ele>443.88</ele>
        <time>2015-05-27T08:56:33Z</time>
      </trkpt>
      <trkpt lat="44.04253" lon="6.02846">
        <ele>444.46</ele>
        <time>2015-05-27T08:56:39Z</time>
      </trkpt>
      <trkpt lat="44.04252" lon="6.02855">
        <ele>446.74</ele>
        <time>2015-05-27T08:57:00Z</time>
      </trkpt>
      <trkpt lat="44.04248" lon="6.02859">
        <ele>448.68</ele>
        <time>2015-05-27T08:57:08Z</time>
      </trkpt>
      <trkpt lat="44.04244" lon="6.02867">
        <ele>450.14</ele>
        <time>2015-05-27T08:57:26Z</time>
      </trkpt>
      <trkpt lat="44.04237" lon="6.02869">
        <ele>451.09</ele>
        <time>2015-05-27T08:57:42Z</time>
      </trkpt>
      <trkpt lat="44.04233" lon="6.02875">
        <ele>451.69</ele>
        <time>2015-05-27T08:57:54Z</time>
      </trkpt>
      <trkpt lat="44.04227" lon="6.02876">
        <ele>453.24</ele>
        <time>2015-05-27T08:58:07Z</time>
      </trkpt>
      <trkpt lat="44.04223" lon="6.02881">
        <ele>455.14</ele>
        <time>2015-05-27T08:58:20Z</time>
      </trkpt>
      <trkpt lat="44.0422" lon="6.02886">
        <ele>455.94</ele>
        <time>2015-05-27T08:58:29Z</time>
      </trkpt>
      <trkpt lat="44.04212" lon="6.02886">
        <ele>455.94</ele>
        <time>2015-05-27T08:58:43Z</time>
      </trkpt>
      <trkpt lat="44.04208" lon="6.0289">
        <ele>456.59</ele>
        <time>2015-05-27T08:59:03Z</time>
      </trkpt>
      <trkpt lat="44.04204" lon="6.02893">
        <ele>458.34</ele>
        <time>2015-05-27T08:59:10Z</time>
      </trkpt>
      <trkpt lat="44.04198" lon="6.02899">
        <ele>459.54</ele>
        <time>2015-05-27T08:59:25Z</time>
      </trkpt>
      <trkpt lat="44.04193" lon="6.02898">
        <ele>461.03</ele>
        <time>2015-05-27T08:59:34Z</time>
      </trkpt>
      <trkpt lat="44.04189" lon="6.02902">
        <ele>462.13</ele>
        <time>2015-05-27T08:59:41Z</time>
      </trkpt>
      <trkpt lat="44.04186" lon="6.02906">
        <ele>462.34</ele>
        <time>2015-05-27T08:59:56Z</time>
      </trkpt>
      <trkpt lat="44.04177" lon="6.02906">
        <ele>463.09</ele>
        <time>2015-05-27T09:00:13Z</time>
      </trkpt>
      <trkpt lat="44.04173" lon="6.0291">
        <ele>463.15</ele>
        <time>2015-05-27T09:00:29Z</time>
      </trkpt>
      <trkpt lat="44.04169" lon="6.02915">
        <ele>463.12</ele>
        <time>2015-05-27T09:00:34Z</time>
      </trkpt>
      <trkpt lat="44.04167" lon="6.0292">
        <ele>462.84</ele>
        <time>2015-05-27T09:00:43Z</time>
      </trkpt>
      <trkpt lat="44.04161" lon="6.02921">
        <ele>462.94</ele>
        <time>2015-05-27T09:01:04Z</time>
      </trkpt>
      <trkpt lat="44.04157" lon="6.02924">
        <ele>462.92</ele>
        <time>2015-05-27T09:01:10Z</time>
      </trkpt>
      <trkpt lat="44.04152" lon="6.02924">
        <ele>469</ele>
        <time>2015-05-27T09:01:49Z</time>
      </trkpt>
      <trkpt lat="44.04147" lon="6.02927">
        <ele>469.13</ele>
        <time>2015-05-27T09:01:53Z</time>
      </trkpt>
      <trkpt lat="44.04142" lon="6.02929">
        <ele>469.38</ele>
        <time>2015-05-27T09:01:56Z</time>
      </trkpt>
      <trkpt lat="44.04139" lon="6.02934">
        <ele>469.96</ele>
        <time>2015-05-27T09:02:01Z</time>
      </trkpt>
      <trkpt lat="44.04135" lon="6.02937">
        <ele>471.54</ele>
        <time>2015-05-27T09:02:25Z</time>
      </trkpt>
      <trkpt lat="44.04139" lon="6.02933">
        <ele>473.88</ele>
        <time>2015-05-27T09:02:36Z</time>
      </trkpt>
      <trkpt lat="44.04144" lon="6.02932">
        <ele>474.13</ele>
        <time>2015-05-27T09:02:42Z</time>
      </trkpt>
      <trkpt lat="44.04148" lon="6.02929">
        <ele>474.82</ele>
        <time>2015-05-27T09:02:47Z</time>
      </trkpt>
      <trkpt lat="44.0415" lon="6.02924">
        <ele>475.33</ele>
        <time>2015-05-27T09:02:51Z</time>
      </trkpt>
      <trkpt lat="44.0415" lon="6.02918">
        <ele>476.19</ele>
        <time>2015-05-27T09:03:05Z</time>
      </trkpt>
      <trkpt lat="44.04142" lon="6.02917">
        <ele>476.04</ele>
        <time>2015-05-27T09:03:18Z</time>
      </trkpt>
      <trkpt lat="44.04137" lon="6.02913">
        <ele>475.88</ele>
        <time>2015-05-27T09:03:23Z</time>
      </trkpt>
      <trkpt lat="44.04132" lon="6.0291">
        <ele>475.34</ele>
        <time>2015-05-27T09:03:29Z</time>
      </trkpt>
      <trkpt lat="44.04127" lon="6.02907">
        <ele>475.04</ele>
        <time>2015-05-27T09:03:35Z</time>
      </trkpt>
      <trkpt lat="44.04123" lon="6.02907">
        <ele>476.39</ele>
        <time>2015-05-27T09:03:42Z</time>
      </trkpt>
      <trkpt lat="44.04118" lon="6.02908">
        <ele>478.93</ele>
        <time>2015-05-27T09:03:57Z</time>
      </trkpt>
      <trkpt lat="44.04113" lon="6.02906">
        <ele>480.07</ele>
        <time>2015-05-27T09:04:06Z</time>
      </trkpt>
      <trkpt lat="44.04108" lon="6.02906">
        <ele>480.96</ele>
        <time>2015-05-27T09:04:11Z</time>
      </trkpt>
      <trkpt lat="44.04104" lon="6.02903">
        <ele>481.21</ele>
        <time>2015-05-27T09:04:16Z</time>
      </trkpt>
      <trkpt lat="44.04099" lon="6.02897">
        <ele>481.04</ele>
        <time>2015-05-27T09:04:27Z</time>
      </trkpt>
      <trkpt lat="44.04094" lon="6.02896">
        <ele>481.9</ele>
        <time>2015-05-27T09:04:33Z</time>
      </trkpt>
      <trkpt lat="44.04088" lon="6.02895">
        <ele>482.75</ele>
        <time>2015-05-27T09:04:38Z</time>
      </trkpt>
      <trkpt lat="44.04082" lon="6.02891">
        <ele>483.24</ele>
        <time>2015-05-27T09:04:48Z</time>
      </trkpt>
      <trkpt lat="44.04078" lon="6.02889">
        <ele>485.08</ele>
        <time>2015-05-27T09:04:55Z</time>
      </trkpt>
      <trkpt lat="44.04073" lon="6.02888">
        <ele>488.43</ele>
        <time>2015-05-27T09:05:01Z</time>
      </trkpt>
      <trkpt lat="44.04068" lon="6.02886">
        <ele>489.72</ele>
        <time>2015-05-27T09:05:06Z</time>
      </trkpt>
      <trkpt lat="44.04063" lon="6.02883">
        <ele>490.1</ele>
        <time>2015-05-27T09:05:12Z</time>
      </trkpt>
      <trkpt lat="44.04058" lon="6.02879">
        <ele>490.84</ele>
        <time>2015-05-27T09:05:21Z</time>
      </trkpt>
      <trkpt lat="44.04053" lon="6.02879">
        <ele>492.39</ele>
        <time>2015-05-27T09:05:37Z</time>
      </trkpt>
      <trkpt lat="44.04048" lon="6.02878">
        <ele>493.71</ele>
        <time>2015-05-27T09:05:42Z</time>
      </trkpt>
      <trkpt lat="44.04043" lon="6.02875">
        <ele>494.62</ele>
        <time>2015-05-27T09:05:48Z</time>
      </trkpt>
      <trkpt lat="44.04039" lon="6.02875">
        <ele>494.92</ele>
        <time>2015-05-27T09:05:53Z</time>
      </trkpt>
      <trkpt lat="44.04034" lon="6.02875">
        <ele>495.43</ele>
        <time>2015-05-27T09:05:59Z</time>
      </trkpt>
      <trkpt lat="44.04026" lon="6.02875">
        <ele>496.89</ele>
        <time>2015-05-27T09:06:11Z</time>
      </trkpt>
      <trkpt lat="44.04021" lon="6.02874">
        <ele>499.12</ele>
        <time>2015-05-27T09:06:17Z</time>
      </trkpt>
      <trkpt lat="44.04016" lon="6.02874">
        <ele>499.69</ele>
        <time>2015-05-27T09:06:22Z</time>
      </trkpt>
      <trkpt lat="44.04011" lon="6.02876">
        <ele>499.72</ele>
        <time>2015-05-27T09:06:28Z</time>
      </trkpt>
      <trkpt lat="44.04006" lon="6.02875">
        <ele>500.08</ele>
        <time>2015-05-27T09:06:34Z</time>
      </trkpt>
      <trkpt lat="44.04001" lon="6.02873">
        <ele>499.92</ele>
        <time>2015-05-27T09:06:41Z</time>
      </trkpt>
      <trkpt lat="44.03997" lon="6.0287">
        <ele>500.57</ele>
        <time>2015-05-27T09:06:47Z</time>
      </trkpt>
      <trkpt lat="44.03992" lon="6.02868">
        <ele>501.58</ele>
        <time>2015-05-27T09:06:53Z</time>
      </trkpt>
      <trkpt lat="44.03987" lon="6.02868">
        <ele>502.16</ele>
        <time>2015-05-27T09:07:00Z</time>
      </trkpt>
      <trkpt lat="44.03982" lon="6.0287">
        <ele>502.63</ele>
        <time>2015-05-27T09:07:05Z</time>
      </trkpt>
      <trkpt lat="44.03977" lon="6.02869">
        <ele>503.51</ele>
        <time>2015-05-27T09:07:10Z</time>
      </trkpt>
      <trkpt lat="44.03973" lon="6.02868">
        <ele>504.5</ele>
        <time>2015-05-27T09:07:15Z</time>
      </trkpt>
      <trkpt lat="44.03968" lon="6.02866">
        <ele>504.29</ele>
        <time>2015-05-27T09:07:23Z</time>
      </trkpt>
      <trkpt lat="44.03963" lon="6.02863">
        <ele>504.35</ele>
        <time>2015-05-27T09:07:29Z</time>
      </trkpt>
      <trkpt lat="44.03959" lon="6.02861">
        <ele>504.86</ele>
        <time>2015-05-27T09:07:34Z</time>
      </trkpt>
      <trkpt lat="44.03954" lon="6.02859">
        <ele>505.65</ele>
        <time>2015-05-27T09:07:39Z</time>
      </trkpt>
      <trkpt lat="44.0395" lon="6.02857">
        <ele>506.93</ele>
        <time>2015-05-27T09:07:45Z</time>
      </trkpt>
      <trkpt lat="44.03945" lon="6.02857">
        <ele>507.68</ele>
        <time>2015-05-27T09:07:51Z</time>
      </trkpt>
      <trkpt lat="44.0394" lon="6.02856">
        <ele>508.29</ele>
        <time>2015-05-27T09:07:57Z</time>
      </trkpt>
      <trkpt lat="44.03935" lon="6.02855">
        <ele>508.97</ele>
        <time>2015-05-27T09:08:04Z</time>
      </trkpt>
      <trkpt lat="44.0393" lon="6.02853">
        <ele>509.67</ele>
        <time>2015-05-27T09:08:11Z</time>
      </trkpt>
      <trkpt lat="44.03925" lon="6.02853">
        <ele>510.3</ele>
        <time>2015-05-27T09:08:17Z</time>
      </trkpt>
      <trkpt lat="44.0392" lon="6.02853">
        <ele>510.6</ele>
        <time>2015-05-27T09:08:23Z</time>
      </trkpt>
      <trkpt lat="44.03915" lon="6.02851">
        <ele>510.64</ele>
        <time>2015-05-27T09:08:30Z</time>
      </trkpt>
      <trkpt lat="44.0391" lon="6.02851">
        <ele>510.34</ele>
        <time>2015-05-27T09:08:35Z</time>
      </trkpt>
      <trkpt lat="44.03902" lon="6.02852">
        <ele>510.84</ele>
        <time>2015-05-27T09:08:45Z</time>
      </trkpt>
      <trkpt lat="44.03897" lon="6.02848">
        <ele>511.24</ele>
        <time>2015-05-27T09:08:56Z</time>
      </trkpt>
      <trkpt lat="44.03892" lon="6.02845">
        <ele>511.59</ele>
        <time>2015-05-27T09:09:04Z</time>
      </trkpt>
      <trkpt lat="44.03887" lon="6.02846">
        <ele>511.56</ele>
        <time>2015-05-27T09:09:08Z</time>
      </trkpt>
      <trkpt lat="44.03882" lon="6.02845">
        <ele>510.92</ele>
        <time>2015-05-27T09:09:12Z</time>
      </trkpt>
      <trkpt lat="44.03877" lon="6.02843">
        <ele>510.97</ele>
        <time>2015-05-27T09:09:16Z</time>
      </trkpt>
      <trkpt lat="44.03872" lon="6.0284">
        <ele>511.34</ele>
        <time>2015-05-27T09:09:25Z</time>
      </trkpt>
      <trkpt lat="44.03868" lon="6.02837">
        <ele>512.2</ele>
        <time>2015-05-27T09:09:31Z</time>
      </trkpt>
      <trkpt lat="44.03863" lon="6.02832">
        <ele>512.79</ele>
        <time>2015-05-27T09:09:38Z</time>
      </trkpt>
      <trkpt lat="44.03858" lon="6.02829">
        <ele>516.42</ele>
        <time>2015-05-27T09:09:46Z</time>
      </trkpt>
      <trkpt lat="44.03854" lon="6.02826">
        <ele>518.41</ele>
        <time>2015-05-27T09:09:52Z</time>
      </trkpt>
      <trkpt lat="44.03851" lon="6.02821">
        <ele>519.24</ele>
        <time>2015-05-27T09:09:57Z</time>
      </trkpt>
      <trkpt lat="44.03847" lon="6.02817">
        <ele>518.61</ele>
        <time>2015-05-27T09:10:03Z</time>
      </trkpt>
      <trkpt lat="44.03842" lon="6.02817">
        <ele>519.47</ele>
        <time>2015-05-27T09:10:10Z</time>
      </trkpt>
      <trkpt lat="44.03837" lon="6.02816">
        <ele>520.59</ele>
        <time>2015-05-27T09:10:15Z</time>
      </trkpt>
      <trkpt lat="44.03832" lon="6.02816">
        <ele>521.98</ele>
        <time>2015-05-27T09:10:21Z</time>
      </trkpt>
      <trkpt lat="44.03827" lon="6.02815">
        <ele>522.6</ele>
        <time>2015-05-27T09:10:27Z</time>
      </trkpt>
      <trkpt lat="44.03823" lon="6.02811">
        <ele>523.97</ele>
        <time>2015-05-27T09:10:35Z</time>
      </trkpt>
      <trkpt lat="44.03819" lon="6.02814">
        <ele>524.15</ele>
        <time>2015-05-27T09:10:39Z</time>
      </trkpt>
      <trkpt lat="44.03811" lon="6.02815">
        <ele>526.64</ele>
        <time>2015-05-27T09:10:51Z</time>
      </trkpt>
      <trkpt lat="44.03806" lon="6.02815">
        <ele>529.06</ele>
        <time>2015-05-27T09:10:58Z</time>
      </trkpt>
      <trkpt lat="44.03801" lon="6.02815">
        <ele>530.84</ele>
        <time>2015-05-27T09:11:06Z</time>
      </trkpt>
      <trkpt lat="44.03794" lon="6.02816">
        <ele>532.39</ele>
        <time>2015-05-27T09:11:17Z</time>
      </trkpt>
      <trkpt lat="44.03788" lon="6.02818">
        <ele>534.04</ele>
        <time>2015-05-27T09:11:27Z</time>
      </trkpt>
      <trkpt lat="44.03783" lon="6.02819">
        <ele>535.61</ele>
        <time>2015-05-27T09:11:34Z</time>
      </trkpt>
      <trkpt lat="44.03778" lon="6.0282">
        <ele>536.74</ele>
        <time>2015-05-27T09:11:39Z</time>
      </trkpt>
      <trkpt lat="44.03773" lon="6.02822">
        <ele>538.49</ele>
        <time>2015-05-27T09:11:50Z</time>
      </trkpt>
      <trkpt lat="44.03765" lon="6.02824">
        <ele>540.54</ele>
        <time>2015-05-27T09:12:02Z</time>
      </trkpt>
      <trkpt lat="44.03759" lon="6.02825">
        <ele>542.99</ele>
        <time>2015-05-27T09:12:13Z</time>
      </trkpt>
      <trkpt lat="44.03753" lon="6.02824">
        <ele>544.94</ele>
        <time>2015-05-27T09:12:24Z</time>
      </trkpt>
      <trkpt lat="44.03746" lon="6.02823">
        <ele>546.14</ele>
        <time>2015-05-27T09:12:35Z</time>
      </trkpt>
      <trkpt lat="44.0374" lon="6.02823">
        <ele>547.69</ele>
        <time>2015-05-27T09:12:48Z</time>
      </trkpt>
      <trkpt lat="44.03734" lon="6.0282">
        <ele>550.39</ele>
        <time>2015-05-27T09:13:00Z</time>
      </trkpt>
      <trkpt lat="44.03729" lon="6.02815">
        <ele>552.94</ele>
        <time>2015-05-27T09:13:12Z</time>
      </trkpt>
      <trkpt lat="44.03725" lon="6.02813">
        <ele>555.57</ele>
        <time>2015-05-27T09:13:19Z</time>
      </trkpt>
      <trkpt lat="44.0372" lon="6.0281">
        <ele>556.79</ele>
        <time>2015-05-27T09:13:27Z</time>
      </trkpt>
      <trkpt lat="44.03712" lon="6.02809">
        <ele>558.44</ele>
        <time>2015-05-27T09:13:39Z</time>
      </trkpt>
      <trkpt lat="44.03708" lon="6.02811">
        <ele>559.73</ele>
        <time>2015-05-27T09:13:44Z</time>
      </trkpt>
      <trkpt lat="44.03702" lon="6.02809">
        <ele>561.04</ele>
        <time>2015-05-27T09:13:56Z</time>
      </trkpt>
      <trkpt lat="44.03696" lon="6.02805">
        <ele>562.14</ele>
        <time>2015-05-27T09:14:08Z</time>
      </trkpt>
      <trkpt lat="44.03691" lon="6.02806">
        <ele>563.24</ele>
        <time>2015-05-27T09:14:34Z</time>
      </trkpt>
      <trkpt lat="44.03687" lon="6.02811">
        <ele>564.44</ele>
        <time>2015-05-27T09:15:12Z</time>
      </trkpt>
      <trkpt lat="44.03683" lon="6.02813">
        <ele>567.45</ele>
        <time>2015-05-27T09:15:54Z</time>
      </trkpt>
      <trkpt lat="44.03675" lon="6.02814">
        <ele>569.69</ele>
        <time>2015-05-27T09:16:45Z</time>
      </trkpt>
      <trkpt lat="44.0367" lon="6.02811">
        <ele>571.15</ele>
        <time>2015-05-27T09:16:54Z</time>
      </trkpt>
      <trkpt lat="44.03665" lon="6.02811">
        <ele>571.71</ele>
        <time>2015-05-27T09:17:00Z</time>
      </trkpt>
      <trkpt lat="44.03661" lon="6.02812">
        <ele>572.49</ele>
        <time>2015-05-27T09:17:06Z</time>
      </trkpt>
      <trkpt lat="44.03655" lon="6.02813">
        <ele>573.12</ele>
        <time>2015-05-27T09:17:13Z</time>
      </trkpt>
      <trkpt lat="44.03651" lon="6.02815">
        <ele>573.79</ele>
        <time>2015-05-27T09:17:19Z</time>
      </trkpt>
      <trkpt lat="44.03647" lon="6.02819">
        <ele>574.5</ele>
        <time>2015-05-27T09:17:25Z</time>
      </trkpt>
      <trkpt lat="44.03642" lon="6.0282">
        <ele>575.06</ele>
        <time>2015-05-27T09:17:33Z</time>
      </trkpt>
      <trkpt lat="44.03637" lon="6.02821">
        <ele>575.3</ele>
        <time>2015-05-27T09:17:39Z</time>
      </trkpt>
      <trkpt lat="44.03632" lon="6.0282">
        <ele>576.15</ele>
        <time>2015-05-27T09:17:45Z</time>
      </trkpt>
      <trkpt lat="44.03628" lon="6.02818">
        <ele>576.85</ele>
        <time>2015-05-27T09:17:50Z</time>
      </trkpt>
      <trkpt lat="44.03623" lon="6.02818">
        <ele>577.86</ele>
        <time>2015-05-27T09:17:56Z</time>
      </trkpt>
      <trkpt lat="44.03618" lon="6.02815">
        <ele>578.44</ele>
        <time>2015-05-27T09:18:02Z</time>
      </trkpt>
      <trkpt lat="44.03612" lon="6.02814">
        <ele>579.06</ele>
        <time>2015-05-27T09:18:07Z</time>
      </trkpt>
      <trkpt lat="44.03607" lon="6.02813">
        <ele>578.9</ele>
        <time>2015-05-27T09:18:12Z</time>
      </trkpt>
      <trkpt lat="44.03602" lon="6.02811">
        <ele>578.47</ele>
        <time>2015-05-27T09:18:17Z</time>
      </trkpt>
      <trkpt lat="44.03597" lon="6.02809">
        <ele>579.03</ele>
        <time>2015-05-27T09:18:22Z</time>
      </trkpt>
      <trkpt lat="44.03592" lon="6.02808">
        <ele>579.93</ele>
        <time>2015-05-27T09:18:27Z</time>
      </trkpt>
      <trkpt lat="44.03587" lon="6.02807">
        <ele>580.46</ele>
        <time>2015-05-27T09:18:32Z</time>
      </trkpt>
      <trkpt lat="44.03582" lon="6.02805">
        <ele>581.16</ele>
        <time>2015-05-27T09:18:37Z</time>
      </trkpt>
      <trkpt lat="44.03577" lon="6.02803">
        <ele>581.75</ele>
        <time>2015-05-27T09:18:42Z</time>
      </trkpt>
      <trkpt lat="44.03572" lon="6.02801">
        <ele>582.44</ele>
        <time>2015-05-27T09:18:47Z</time>
      </trkpt>
      <trkpt lat="44.03567" lon="6.02799">
        <ele>582.91</ele>
        <time>2015-05-27T09:18:53Z</time>
      </trkpt>
      <trkpt lat="44.03562" lon="6.02798">
        <ele>582.82</ele>
        <time>2015-05-27T09:18:58Z</time>
      </trkpt>
      <trkpt lat="44.03557" lon="6.02796">
        <ele>583.59</ele>
        <time>2015-05-27T09:19:03Z</time>
      </trkpt>
      <trkpt lat="44.03553" lon="6.02793">
        <ele>584.94</ele>
        <time>2015-05-27T09:19:08Z</time>
      </trkpt>
      <trkpt lat="44.03548" lon="6.02792">
        <ele>585.28</ele>
        <time>2015-05-27T09:19:13Z</time>
      </trkpt>
      <trkpt lat="44.03543" lon="6.02791">
        <ele>585.29</ele>
        <time>2015-05-27T09:19:18Z</time>
      </trkpt>
      <trkpt lat="44.03538" lon="6.02791">
        <ele>584.26</ele>
        <time>2015-05-27T09:19:23Z</time>
      </trkpt>
      <trkpt lat="44.03532" lon="6.02791">
        <ele>583.96</ele>
        <time>2015-05-27T09:19:30Z</time>
      </trkpt>
      <trkpt lat="44.03527" lon="6.02791">
        <ele>584.59</ele>
        <time>2015-05-27T09:19:35Z</time>
      </trkpt>
      <trkpt lat="44.03522" lon="6.02793">
        <ele>584.02</ele>
        <time>2015-05-27T09:19:41Z</time>
      </trkpt>
      <trkpt lat="44.03517" lon="6.02793">
        <ele>583.14</ele>
        <time>2015-05-27T09:19:46Z</time>
      </trkpt>
      <trkpt lat="44.03512" lon="6.02795">
        <ele>583.2</ele>
        <time>2015-05-27T09:19:51Z</time>
      </trkpt>
      <trkpt lat="44.03507" lon="6.02796">
        <ele>583.85</ele>
        <time>2015-05-27T09:19:55Z</time>
      </trkpt>
      <trkpt lat="44.03502" lon="6.02796">
        <ele>584.77</ele>
        <time>2015-05-27T09:20:00Z</time>
      </trkpt>
      <trkpt lat="44.03497" lon="6.02795">
        <ele>586.18</ele>
        <time>2015-05-27T09:20:05Z</time>
      </trkpt>
      <trkpt lat="44.03492" lon="6.02795">
        <ele>588.35</ele>
        <time>2015-05-27T09:20:09Z</time>
      </trkpt>
      <trkpt lat="44.03487" lon="6.02796">
        <ele>589.54</ele>
        <time>2015-05-27T09:20:14Z</time>
      </trkpt>
      <trkpt lat="44.03482" lon="6.02794">
        <ele>590.59</ele>
        <time>2015-05-27T09:20:20Z</time>
      </trkpt>
      <trkpt lat="44.03475" lon="6.02792">
        <ele>592.99</ele>
        <time>2015-05-27T09:20:35Z</time>
      </trkpt>
      <trkpt lat="44.03471" lon="6.02786">
        <ele>596.64</ele>
        <time>2015-05-27T09:20:48Z</time>
      </trkpt>
      <trkpt lat="44.03468" lon="6.02781">
        <ele>598.97</ele>
        <time>2015-05-27T09:20:54Z</time>
      </trkpt>
      <trkpt lat="44.03463" lon="6.02772">
        <ele>599.89</ele>
        <time>2015-05-27T09:21:08Z</time>
      </trkpt>
      <trkpt lat="44.03458" lon="6.02767">
        <ele>600.04</ele>
        <time>2015-05-27T09:21:19Z</time>
      </trkpt>
      <trkpt lat="44.03453" lon="6.0276">
        <ele>600.59</ele>
        <time>2015-05-27T09:21:30Z</time>
      </trkpt>
      <trkpt lat="44.03447" lon="6.02757">
        <ele>602.74</ele>
        <time>2015-05-27T09:21:40Z</time>
      </trkpt>
      <trkpt lat="44.0344" lon="6.02754">
        <ele>606.14</ele>
        <time>2015-05-27T09:21:52Z</time>
      </trkpt>
      <trkpt lat="44.03436" lon="6.02752">
        <ele>607.55</ele>
        <time>2015-05-27T09:21:59Z</time>
      </trkpt>
      <trkpt lat="44.03431" lon="6.02748">
        <ele>608.04</ele>
        <time>2015-05-27T09:22:10Z</time>
      </trkpt>
      <trkpt lat="44.03427" lon="6.02743">
        <ele>607.38</ele>
        <time>2015-05-27T09:22:18Z</time>
      </trkpt>
      <trkpt lat="44.03422" lon="6.0274">
        <ele>607.49</ele>
        <time>2015-05-27T09:22:28Z</time>
      </trkpt>
      <trkpt lat="44.03417" lon="6.02735">
        <ele>607.64</ele>
        <time>2015-05-27T09:22:40Z</time>
      </trkpt>
      <trkpt lat="44.03412" lon="6.02735">
        <ele>608.69</ele>
        <time>2015-05-27T09:22:46Z</time>
      </trkpt>
      <trkpt lat="44.03407" lon="6.02733">
        <ele>609.32</ele>
        <time>2015-05-27T09:22:53Z</time>
      </trkpt>
      <trkpt lat="44.03402" lon="6.02732">
        <ele>610.87</ele>
        <time>2015-05-27T09:22:59Z</time>
      </trkpt>
      <trkpt lat="44.03397" lon="6.02727">
        <ele>611.99</ele>
        <time>2015-05-27T09:23:11Z</time>
      </trkpt>
      <trkpt lat="44.0339" lon="6.02726">
        <ele>612.89</ele>
        <time>2015-05-27T09:23:23Z</time>
      </trkpt>
      <trkpt lat="44.03383" lon="6.02722">
        <ele>614.44</ele>
        <time>2015-05-27T09:23:37Z</time>
      </trkpt>
      <trkpt lat="44.03379" lon="6.0272">
        <ele>616.28</ele>
        <time>2015-05-27T09:23:43Z</time>
      </trkpt>
      <trkpt lat="44.03377" lon="6.02713">
        <ele>616.94</ele>
        <time>2015-05-27T09:23:52Z</time>
      </trkpt>
      <trkpt lat="44.03373" lon="6.02709">
        <ele>617.69</ele>
        <time>2015-05-27T09:24:00Z</time>
      </trkpt>
      <trkpt lat="44.03368" lon="6.02705">
        <ele>618.54</ele>
        <time>2015-05-27T09:24:08Z</time>
      </trkpt>
      <trkpt lat="44.03364" lon="6.02703">
        <ele>620.25</ele>
        <time>2015-05-27T09:24:14Z</time>
      </trkpt>
      <trkpt lat="44.03358" lon="6.02697">
        <ele>622.29</ele>
        <time>2015-05-27T09:24:27Z</time>
      </trkpt>
      <trkpt lat="44.03352" lon="6.02694">
        <ele>624.49</ele>
        <time>2015-05-27T09:24:39Z</time>
      </trkpt>
      <trkpt lat="44.03347" lon="6.02694">
        <ele>627.29</ele>
        <time>2015-05-27T09:24:46Z</time>
      </trkpt>
      <trkpt lat="44.03343" lon="6.02697">
        <ele>629.09</ele>
        <time>2015-05-27T09:24:59Z</time>
      </trkpt>
      <trkpt lat="44.03338" lon="6.02692">
        <ele>629.92</ele>
        <time>2015-05-27T09:25:07Z</time>
      </trkpt>
      <trkpt lat="44.03334" lon="6.02691">
        <ele>631.1</ele>
        <time>2015-05-27T09:25:14Z</time>
      </trkpt>
      <trkpt lat="44.03329" lon="6.02691">
        <ele>632.22</ele>
        <time>2015-05-27T09:25:21Z</time>
      </trkpt>
      <trkpt lat="44.03324" lon="6.0269">
        <ele>633.04</ele>
        <time>2015-05-27T09:25:29Z</time>
      </trkpt>
      <trkpt lat="44.03319" lon="6.0269">
        <ele>634.39</ele>
        <time>2015-05-27T09:25:37Z</time>
      </trkpt>
      <trkpt lat="44.03314" lon="6.0269">
        <ele>634.59</ele>
        <time>2015-05-27T09:25:44Z</time>
      </trkpt>
      <trkpt lat="44.03309" lon="6.02692">
        <ele>635.38</ele>
        <time>2015-05-27T09:25:51Z</time>
      </trkpt>
      <trkpt lat="44.03304" lon="6.02691">
        <ele>636.13</ele>
        <time>2015-05-27T09:25:55Z</time>
      </trkpt>
      <trkpt lat="44.03299" lon="6.0269">
        <ele>637.34</ele>
        <time>2015-05-27T09:26:01Z</time>
      </trkpt>
      <trkpt lat="44.03295" lon="6.02692">
        <ele>638.49</ele>
        <time>2015-05-27T09:26:07Z</time>
      </trkpt>
      <trkpt lat="44.0329" lon="6.0269">
        <ele>639.06</ele>
        <time>2015-05-27T09:26:14Z</time>
      </trkpt>
      <trkpt lat="44.03283" lon="6.02692">
        <ele>639.64</ele>
        <time>2015-05-27T09:26:29Z</time>
      </trkpt>
      <trkpt lat="44.03278" lon="6.02693">
        <ele>640.9</ele>
        <time>2015-05-27T09:26:35Z</time>
      </trkpt>
      <trkpt lat="44.03273" lon="6.02693">
        <ele>642.02</ele>
        <time>2015-05-27T09:26:40Z</time>
      </trkpt>
      <trkpt lat="44.03269" lon="6.02694">
        <ele>642.79</ele>
        <time>2015-05-27T09:26:44Z</time>
      </trkpt>
      <trkpt lat="44.03263" lon="6.02694">
        <ele>643.31</ele>
        <time>2015-05-27T09:26:48Z</time>
      </trkpt>
      <trkpt lat="44.03258" lon="6.02695">
        <ele>643.69</ele>
        <time>2015-05-27T09:26:53Z</time>
      </trkpt>
      <trkpt lat="44.03253" lon="6.02698">
        <ele>644.42</ele>
        <time>2015-05-27T09:26:58Z</time>
      </trkpt>
      <trkpt lat="44.03249" lon="6.02701">
        <ele>645.55</ele>
        <time>2015-05-27T09:27:03Z</time>
      </trkpt>
      <trkpt lat="44.03243" lon="6.02704">
        <ele>647.23</ele>
        <time>2015-05-27T09:27:15Z</time>
      </trkpt>
      <trkpt lat="44.03238" lon="6.02706">
        <ele>648.85</ele>
        <time>2015-05-27T09:27:21Z</time>
      </trkpt>
      <trkpt lat="44.03234" lon="6.0271">
        <ele>649.67</ele>
        <time>2015-05-27T09:27:26Z</time>
      </trkpt>
      <trkpt lat="44.03229" lon="6.02713">
        <ele>650.47</ele>
        <time>2015-05-27T09:27:32Z</time>
      </trkpt>
      <trkpt lat="44.03224" lon="6.02715">
        <ele>650.97</ele>
        <time>2015-05-27T09:27:36Z</time>
      </trkpt>
      <trkpt lat="44.0322" lon="6.02718">
        <ele>651.51</ele>
        <time>2015-05-27T09:27:41Z</time>
      </trkpt>
      <trkpt lat="44.03215" lon="6.02719">
        <ele>651.86</ele>
        <time>2015-05-27T09:27:47Z</time>
      </trkpt>
      <trkpt lat="44.0321" lon="6.0272">
        <ele>651.77</ele>
        <time>2015-05-27T09:27:51Z</time>
      </trkpt>
      <trkpt lat="44.03204" lon="6.02722">
        <ele>652.81</ele>
        <time>2015-05-27T09:27:56Z</time>
      </trkpt>
      <trkpt lat="44.032" lon="6.02723">
        <ele>653.83</ele>
        <time>2015-05-27T09:28:01Z</time>
      </trkpt>
      <trkpt lat="44.03195" lon="6.02726">
        <ele>654.86</ele>
        <time>2015-05-27T09:28:07Z</time>
      </trkpt>
      <trkpt lat="44.0319" lon="6.02729">
        <ele>655.25</ele>
        <time>2015-05-27T09:28:12Z</time>
      </trkpt>
      <trkpt lat="44.03186" lon="6.0273">
        <ele>655.86</ele>
        <time>2015-05-27T09:28:17Z</time>
      </trkpt>
      <trkpt lat="44.03181" lon="6.02731">
        <ele>656.7</ele>
        <time>2015-05-27T09:28:22Z</time>
      </trkpt>
      <trkpt lat="44.03176" lon="6.02732">
        <ele>656.63</ele>
        <time>2015-05-27T09:28:26Z</time>
      </trkpt>
      <trkpt lat="44.03171" lon="6.02731">
        <ele>657.06</ele>
        <time>2015-05-27T09:28:31Z</time>
      </trkpt>
      <trkpt lat="44.03166" lon="6.02731">
        <ele>658.25</ele>
        <time>2015-05-27T09:28:37Z</time>
      </trkpt>
      <trkpt lat="44.03161" lon="6.02728">
        <ele>658.07</ele>
        <time>2015-05-27T09:28:44Z</time>
      </trkpt>
      <trkpt lat="44.03156" lon="6.02728">
        <ele>658.99</ele>
        <time>2015-05-27T09:28:50Z</time>
      </trkpt>
      <trkpt lat="44.03151" lon="6.02727">
        <ele>659.39</ele>
        <time>2015-05-27T09:28:54Z</time>
      </trkpt>
      <trkpt lat="44.03146" lon="6.02726">
        <ele>659.7</ele>
        <time>2015-05-27T09:29:00Z</time>
      </trkpt>
      <trkpt lat="44.03141" lon="6.02726">
        <ele>660.09</ele>
        <time>2015-05-27T09:29:05Z</time>
      </trkpt>
      <trkpt lat="44.03135" lon="6.02726">
        <ele>660.67</ele>
        <time>2015-05-27T09:29:10Z</time>
      </trkpt>
      <trkpt lat="44.0313" lon="6.02727">
        <ele>661.36</ele>
        <time>2015-05-27T09:29:15Z</time>
      </trkpt>
      <trkpt lat="44.03125" lon="6.02726">
        <ele>662.01</ele>
        <time>2015-05-27T09:29:22Z</time>
      </trkpt>
      <trkpt lat="44.0312" lon="6.02726">
        <ele>663.11</ele>
        <time>2015-05-27T09:29:28Z</time>
      </trkpt>
      <trkpt lat="44.03115" lon="6.02727">
        <ele>663.05</ele>
        <time>2015-05-27T09:29:34Z</time>
      </trkpt>
      <trkpt lat="44.0311" lon="6.02724">
        <ele>663.27</ele>
        <time>2015-05-27T09:29:40Z</time>
      </trkpt>
      <trkpt lat="44.03107" lon="6.02719">
        <ele>663.91</ele>
        <time>2015-05-27T09:29:46Z</time>
      </trkpt>
      <trkpt lat="44.03102" lon="6.02719">
        <ele>663.82</ele>
        <time>2015-05-27T09:29:52Z</time>
      </trkpt>
      <trkpt lat="44.03098" lon="6.02718">
        <ele>664.28</ele>
        <time>2015-05-27T09:29:57Z</time>
      </trkpt>
      <trkpt lat="44.03093" lon="6.0272">
        <ele>665.53</ele>
        <time>2015-05-27T09:30:03Z</time>
      </trkpt>
      <trkpt lat="44.03089" lon="6.02723">
        <ele>666.96</ele>
        <time>2015-05-27T09:30:08Z</time>
      </trkpt>
      <trkpt lat="44.03084" lon="6.02725">
        <ele>668.43</ele>
        <time>2015-05-27T09:30:14Z</time>
      </trkpt>
      <trkpt lat="44.0308" lon="6.02728">
        <ele>669.17</ele>
        <time>2015-05-27T09:30:19Z</time>
      </trkpt>
      <trkpt lat="44.03075" lon="6.02732">
        <ele>670.18</ele>
        <time>2015-05-27T09:30:24Z</time>
      </trkpt>
      <trkpt lat="44.03071" lon="6.02735">
        <ele>670.86</ele>
        <time>2015-05-27T09:30:29Z</time>
      </trkpt>
      <trkpt lat="44.03066" lon="6.02736">
        <ele>671.88</ele>
        <time>2015-05-27T09:30:35Z</time>
      </trkpt>
      <trkpt lat="44.03062" lon="6.02736">
        <ele>671.83</ele>
        <time>2015-05-27T09:30:40Z</time>
      </trkpt>
      <trkpt lat="44.03057" lon="6.02737">
        <ele>671.13</ele>
        <time>2015-05-27T09:30:44Z</time>
      </trkpt>
      <trkpt lat="44.03052" lon="6.02739">
        <ele>671.12</ele>
        <time>2015-05-27T09:30:49Z</time>
      </trkpt>
      <trkpt lat="44.03048" lon="6.02743">
        <ele>672.31</ele>
        <time>2015-05-27T09:30:54Z</time>
      </trkpt>
      <trkpt lat="44.03044" lon="6.02746">
        <ele>672.91</ele>
        <time>2015-05-27T09:30:58Z</time>
      </trkpt>
      <trkpt lat="44.0304" lon="6.02749">
        <ele>673.38</ele>
        <time>2015-05-27T09:31:01Z</time>
      </trkpt>
      <trkpt lat="44.03035" lon="6.02751">
        <ele>674.17</ele>
        <time>2015-05-27T09:31:07Z</time>
      </trkpt>
      <trkpt lat="44.0303" lon="6.02749">
        <ele>675.47</ele>
        <time>2015-05-27T09:31:14Z</time>
      </trkpt>
      <trkpt lat="44.03025" lon="6.02747">
        <ele>676.15</ele>
        <time>2015-05-27T09:31:21Z</time>
      </trkpt>
      <trkpt lat="44.03022" lon="6.02742">
        <ele>676.91</ele>
        <time>2015-05-27T09:31:28Z</time>
      </trkpt>
      <trkpt lat="44.03017" lon="6.02741">
        <ele>677.92</ele>
        <time>2015-05-27T09:31:36Z</time>
      </trkpt>
      <trkpt lat="44.03012" lon="6.02739">
        <ele>678.35</ele>
        <time>2015-05-27T09:31:41Z</time>
      </trkpt>
      <trkpt lat="44.03007" lon="6.02739">
        <ele>679.35</ele>
        <time>2015-05-27T09:31:47Z</time>
      </trkpt>
      <trkpt lat="44.03003" lon="6.02741">
        <ele>680.3</ele>
        <time>2015-05-27T09:31:53Z</time>
      </trkpt>
      <trkpt lat="44.02998" lon="6.02742">
        <ele>681.55</ele>
        <time>2015-05-27T09:31:58Z</time>
      </trkpt>
      <trkpt lat="44.02993" lon="6.02742">
        <ele>682.87</ele>
        <time>2015-05-27T09:32:03Z</time>
      </trkpt>
      <trkpt lat="44.02988" lon="6.02743">
        <ele>683.17</ele>
        <time>2015-05-27T09:32:08Z</time>
      </trkpt>
      <trkpt lat="44.02983" lon="6.02743">
        <ele>683.05</ele>
        <time>2015-05-27T09:32:14Z</time>
      </trkpt>
      <trkpt lat="44.02978" lon="6.02743">
        <ele>683.92</ele>
        <time>2015-05-27T09:32:20Z</time>
      </trkpt>
      <trkpt lat="44.02973" lon="6.02743">
        <ele>685.15</ele>
        <time>2015-05-27T09:32:25Z</time>
      </trkpt>
      <trkpt lat="44.02968" lon="6.02743">
        <ele>686.3</ele>
        <time>2015-05-27T09:32:31Z</time>
      </trkpt>
      <trkpt lat="44.02963" lon="6.02744">
        <ele>686.87</ele>
        <time>2015-05-27T09:32:36Z</time>
      </trkpt>
      <trkpt lat="44.02959" lon="6.02743">
        <ele>689.45</ele>
        <time>2015-05-27T09:33:41Z</time>
      </trkpt>
      <trkpt lat="44.02954" lon="6.02746">
        <ele>690.18</ele>
        <time>2015-05-27T09:33:46Z</time>
      </trkpt>
      <trkpt lat="44.0295" lon="6.02748">
        <ele>690.97</ele>
        <time>2015-05-27T09:33:51Z</time>
      </trkpt>
      <trkpt lat="44.02945" lon="6.02748">
        <ele>691.58</ele>
        <time>2015-05-27T09:33:58Z</time>
      </trkpt>
      <trkpt lat="44.02938" lon="6.02748">
        <ele>692.44</ele>
        <time>2015-05-27T09:34:16Z</time>
      </trkpt>
      <trkpt lat="44.02934" lon="6.02749">
        <ele>693.67</ele>
        <time>2015-05-27T09:34:21Z</time>
      </trkpt>
      <trkpt lat="44.0293" lon="6.02753">
        <ele>693.27</ele>
        <time>2015-05-27T09:34:27Z</time>
      </trkpt>
      <trkpt lat="44.02924" lon="6.02757">
        <ele>694.69</ele>
        <time>2015-05-27T09:34:49Z</time>
      </trkpt>
      <trkpt lat="44.0292" lon="6.02759">
        <ele>696.07</ele>
        <time>2015-05-27T09:34:55Z</time>
      </trkpt>
      <trkpt lat="44.02916" lon="6.02762">
        <ele>696.02</ele>
        <time>2015-05-27T09:35:01Z</time>
      </trkpt>
      <trkpt lat="44.02909" lon="6.02767">
        <ele>697.09</ele>
        <time>2015-05-27T09:35:27Z</time>
      </trkpt>
      <trkpt lat="44.02905" lon="6.02769">
        <ele>697.5</ele>
        <time>2015-05-27T09:35:33Z</time>
      </trkpt>
      <trkpt lat="44.02901" lon="6.02771">
        <ele>698.34</ele>
        <time>2015-05-27T09:35:40Z</time>
      </trkpt>
      <trkpt lat="44.02896" lon="6.02773">
        <ele>698.72</ele>
        <time>2015-05-27T09:35:46Z</time>
      </trkpt>
      <trkpt lat="44.02892" lon="6.02775">
        <ele>698.89</ele>
        <time>2015-05-27T09:35:51Z</time>
      </trkpt>
      <trkpt lat="44.02888" lon="6.02778">
        <ele>699.54</ele>
        <time>2015-05-27T09:35:56Z</time>
      </trkpt>
      <trkpt lat="44.02883" lon="6.02781">
        <ele>700.12</ele>
        <time>2015-05-27T09:36:01Z</time>
      </trkpt>
      <trkpt lat="44.02878" lon="6.02782">
        <ele>700.14</ele>
        <time>2015-05-27T09:36:06Z</time>
      </trkpt>
      <trkpt lat="44.02873" lon="6.02785">
        <ele>700.88</ele>
        <time>2015-05-27T09:36:12Z</time>
      </trkpt>
      <trkpt lat="44.02869" lon="6.02788">
        <ele>701.27</ele>
        <time>2015-05-27T09:36:17Z</time>
      </trkpt>
      <trkpt lat="44.02864" lon="6.02791">
        <ele>702.06</ele>
        <time>2015-05-27T09:36:22Z</time>
      </trkpt>
      <trkpt lat="44.02859" lon="6.02792">
        <ele>702.22</ele>
        <time>2015-05-27T09:36:29Z</time>
      </trkpt>
      <trkpt lat="44.02855" lon="6.02793">
        <ele>702.13</ele>
        <time>2015-05-27T09:36:34Z</time>
      </trkpt>
      <trkpt lat="44.02851" lon="6.02799">
        <ele>701.49</ele>
        <time>2015-05-27T09:36:45Z</time>
      </trkpt>
      <trkpt lat="44.02847" lon="6.02803">
        <ele>700.8</ele>
        <time>2015-05-27T09:36:50Z</time>
      </trkpt>
      <trkpt lat="44.02843" lon="6.02807">
        <ele>700.77</ele>
        <time>2015-05-27T09:36:55Z</time>
      </trkpt>
      <trkpt lat="44.02839" lon="6.02811">
        <ele>700.68</ele>
        <time>2015-05-27T09:37:00Z</time>
      </trkpt>
      <trkpt lat="44.02835" lon="6.02816">
        <ele>701.58</ele>
        <time>2015-05-27T09:37:05Z</time>
      </trkpt>
      <trkpt lat="44.02831" lon="6.02819">
        <ele>703.42</ele>
        <time>2015-05-27T09:37:09Z</time>
      </trkpt>
      <trkpt lat="44.02826" lon="6.02822">
        <ele>705.77</ele>
        <time>2015-05-27T09:37:15Z</time>
      </trkpt>
      <trkpt lat="44.02821" lon="6.02822">
        <ele>706.88</ele>
        <time>2015-05-27T09:37:21Z</time>
      </trkpt>
      <trkpt lat="44.02816" lon="6.02823">
        <ele>707.3</ele>
        <time>2015-05-27T09:37:27Z</time>
      </trkpt>
      <trkpt lat="44.02811" lon="6.02826">
        <ele>709.24</ele>
        <time>2015-05-27T09:37:34Z</time>
      </trkpt>
      <trkpt lat="44.02808" lon="6.0283">
        <ele>710.04</ele>
        <time>2015-05-27T09:37:39Z</time>
      </trkpt>
      <trkpt lat="44.02803" lon="6.02833">
        <ele>711.35</ele>
        <time>2015-05-27T09:37:46Z</time>
      </trkpt>
      <trkpt lat="44.02798" lon="6.02834">
        <ele>712.41</ele>
        <time>2015-05-27T09:37:54Z</time>
      </trkpt>
      <trkpt lat="44.02793" lon="6.02836">
        <ele>713.88</ele>
        <time>2015-05-27T09:38:01Z</time>
      </trkpt>
      <trkpt lat="44.02789" lon="6.02837">
        <ele>714.13</ele>
        <time>2015-05-27T09:38:07Z</time>
      </trkpt>
      <trkpt lat="44.02784" lon="6.02839">
        <ele>714.41</ele>
        <time>2015-05-27T09:38:14Z</time>
      </trkpt>
      <trkpt lat="44.02779" lon="6.02842">
        <ele>716.25</ele>
        <time>2015-05-27T09:38:23Z</time>
      </trkpt>
      <trkpt lat="44.02775" lon="6.02843">
        <ele>716.49</ele>
        <time>2015-05-27T09:38:30Z</time>
      </trkpt>
      <trkpt lat="44.0277" lon="6.02845">
        <ele>717.54</ele>
        <time>2015-05-27T09:38:37Z</time>
      </trkpt>
      <trkpt lat="44.02765" lon="6.02845">
        <ele>717.98</ele>
        <time>2015-05-27T09:38:44Z</time>
      </trkpt>
      <trkpt lat="44.02756" lon="6.02846">
        <ele>718.44</ele>
        <time>2015-05-27T09:38:59Z</time>
      </trkpt>
      <trkpt lat="44.02751" lon="6.02847">
        <ele>718.52</ele>
        <time>2015-05-27T09:39:06Z</time>
      </trkpt>
      <trkpt lat="44.02746" lon="6.02849">
        <ele>718.92</ele>
        <time>2015-05-27T09:39:13Z</time>
      </trkpt>
      <trkpt lat="44.0274" lon="6.0285">
        <ele>718.59</ele>
        <time>2015-05-27T09:39:23Z</time>
      </trkpt>
      <trkpt lat="44.02735" lon="6.02852">
        <ele>718.17</ele>
        <time>2015-05-27T09:39:29Z</time>
      </trkpt>
      <trkpt lat="44.02731" lon="6.02855">
        <ele>718.38</ele>
        <time>2015-05-27T09:39:36Z</time>
      </trkpt>
      <trkpt lat="44.02724" lon="6.02855">
        <ele>718.59</ele>
        <time>2015-05-27T09:39:48Z</time>
      </trkpt>
      <trkpt lat="44.0272" lon="6.02859">
        <ele>718.14</ele>
        <time>2015-05-27T09:40:04Z</time>
      </trkpt>
      <trkpt lat="44.02715" lon="6.02863">
        <ele>717.54</ele>
        <time>2015-05-27T09:40:19Z</time>
      </trkpt>
      <trkpt lat="44.02711" lon="6.02867">
        <ele>716.99</ele>
        <time>2015-05-27T09:40:30Z</time>
      </trkpt>
      <trkpt lat="44.02704" lon="6.0287">
        <ele>717.24</ele>
        <time>2015-05-27T09:40:39Z</time>
      </trkpt>
      <trkpt lat="44.02698" lon="6.02869">
        <ele>716.82</ele>
        <time>2015-05-27T09:40:43Z</time>
      </trkpt>
      <trkpt lat="44.02694" lon="6.02871">
        <ele>716.59</ele>
        <time>2015-05-27T09:40:46Z</time>
      </trkpt>
      <trkpt lat="44.02689" lon="6.02871">
        <ele>716.39</ele>
        <time>2015-05-27T09:40:56Z</time>
      </trkpt>
      <trkpt lat="44.02683" lon="6.02871">
        <ele>715.92</ele>
        <time>2015-05-27T09:41:00Z</time>
      </trkpt>
      <trkpt lat="44.02678" lon="6.02871">
        <ele>716.01</ele>
        <time>2015-05-27T09:41:04Z</time>
      </trkpt>
      <trkpt lat="44.02674" lon="6.02872">
        <ele>716.18</ele>
        <time>2015-05-27T09:41:09Z</time>
      </trkpt>
      <trkpt lat="44.02668" lon="6.02872">
        <ele>716.82</ele>
        <time>2015-05-27T09:41:15Z</time>
      </trkpt>
      <trkpt lat="44.02664" lon="6.02873">
        <ele>717.38</ele>
        <time>2015-05-27T09:41:21Z</time>
      </trkpt>
      <trkpt lat="44.02661" lon="6.02867">
        <ele>717.7</ele>
        <time>2015-05-27T09:41:27Z</time>
      </trkpt>
      <trkpt lat="44.02658" lon="6.02861">
        <ele>718.26</ele>
        <time>2015-05-27T09:41:36Z</time>
      </trkpt>
      <trkpt lat="44.02655" lon="6.02856">
        <ele>718.82</ele>
        <time>2015-05-27T09:41:44Z</time>
      </trkpt>
      <trkpt lat="44.0265" lon="6.02854">
        <ele>719.17</ele>
        <time>2015-05-27T09:41:53Z</time>
      </trkpt>
      <trkpt lat="44.02648" lon="6.02859">
        <ele>719.64</ele>
        <time>2015-05-27T09:42:06Z</time>
      </trkpt>
      <trkpt lat="44.02639" lon="6.02857">
        <ele>721.39</ele>
        <time>2015-05-27T09:42:22Z</time>
      </trkpt>
      <trkpt lat="44.02633" lon="6.02854">
        <ele>722.69</ele>
        <time>2015-05-27T09:42:36Z</time>
      </trkpt>
      <trkpt lat="44.0263" lon="6.02848">
        <ele>724.34</ele>
        <time>2015-05-27T09:42:54Z</time>
      </trkpt>
      <trkpt lat="44.02626" lon="6.02845">
        <ele>726.97</ele>
        <time>2015-05-27T09:43:03Z</time>
      </trkpt>
      <trkpt lat="44.02622" lon="6.02848">
        <ele>728.31</ele>
        <time>2015-05-27T09:43:14Z</time>
      </trkpt>
      <trkpt lat="44.02617" lon="6.02847">
        <ele>729.63</ele>
        <time>2015-05-27T09:43:23Z</time>
      </trkpt>
      <trkpt lat="44.02612" lon="6.02846">
        <ele>734.67</ele>
        <time>2015-05-27T09:43:45Z</time>
      </trkpt>
      <trkpt lat="44.02608" lon="6.02843">
        <ele>737.11</ele>
        <time>2015-05-27T09:43:52Z</time>
      </trkpt>
      <trkpt lat="44.02614" lon="6.02841">
        <ele>741.14</ele>
        <time>2015-05-27T09:44:18Z</time>
      </trkpt>
      <trkpt lat="44.02607" lon="6.02841">
        <ele>745.74</ele>
        <time>2015-05-27T09:44:37Z</time>
      </trkpt>
      <trkpt lat="44.02601" lon="6.0284">
        <ele>747.39</ele>
        <time>2015-05-27T09:44:43Z</time>
      </trkpt>
      <trkpt lat="44.02597" lon="6.02837">
        <ele>748.25</ele>
        <time>2015-05-27T09:44:48Z</time>
      </trkpt>
      <trkpt lat="44.02593" lon="6.02834">
        <ele>749.66</ele>
        <time>2015-05-27T09:44:55Z</time>
      </trkpt>
      <trkpt lat="44.02589" lon="6.02831">
        <ele>750.41</ele>
        <time>2015-05-27T09:45:01Z</time>
      </trkpt>
      <trkpt lat="44.02586" lon="6.02826">
        <ele>750.36</ele>
        <time>2015-05-27T09:45:06Z</time>
      </trkpt>
      <trkpt lat="44.02583" lon="6.0282">
        <ele>750.92</ele>
        <time>2015-05-27T09:45:11Z</time>
      </trkpt>
      <trkpt lat="44.02579" lon="6.02815">
        <ele>752.41</ele>
        <time>2015-05-27T09:45:17Z</time>
      </trkpt>
      <trkpt lat="44.02576" lon="6.02811">
        <ele>753.36</ele>
        <time>2015-05-27T09:45:23Z</time>
      </trkpt>
      <trkpt lat="44.02573" lon="6.02806">
        <ele>754.66</ele>
        <time>2015-05-27T09:45:29Z</time>
      </trkpt>
      <trkpt lat="44.02569" lon="6.02801">
        <ele>754.76</ele>
        <time>2015-05-27T09:45:34Z</time>
      </trkpt>
      <trkpt lat="44.02566" lon="6.02796">
        <ele>754.6</ele>
        <time>2015-05-27T09:45:39Z</time>
      </trkpt>
      <trkpt lat="44.02561" lon="6.02794">
        <ele>754.36</ele>
        <time>2015-05-27T09:45:45Z</time>
      </trkpt>
      <trkpt lat="44.02556" lon="6.02793">
        <ele>754.26</ele>
        <time>2015-05-27T09:45:50Z</time>
      </trkpt>
      <trkpt lat="44.02552" lon="6.02794">
        <ele>754.78</ele>
        <time>2015-05-27T09:45:55Z</time>
      </trkpt>
      <trkpt lat="44.02547" lon="6.02797">
        <ele>754.98</ele>
        <time>2015-05-27T09:45:59Z</time>
      </trkpt>
      <trkpt lat="44.02543" lon="6.02801">
        <ele>755.62</ele>
        <time>2015-05-27T09:46:05Z</time>
      </trkpt>
      <trkpt lat="44.02538" lon="6.02804">
        <ele>756.13</ele>
        <time>2015-05-27T09:46:10Z</time>
      </trkpt>
      <trkpt lat="44.02534" lon="6.02808">
        <ele>756.33</ele>
        <time>2015-05-27T09:46:17Z</time>
      </trkpt>
      <trkpt lat="44.0253" lon="6.0281">
        <ele>756.3</ele>
        <time>2015-05-27T09:46:22Z</time>
      </trkpt>
      <trkpt lat="44.02525" lon="6.02813">
        <ele>756.62</ele>
        <time>2015-05-27T09:46:26Z</time>
      </trkpt>
      <trkpt lat="44.02521" lon="6.02815">
        <ele>757.27</ele>
        <time>2015-05-27T09:46:32Z</time>
      </trkpt>
      <trkpt lat="44.02516" lon="6.02816">
        <ele>757.25</ele>
        <time>2015-05-27T09:46:37Z</time>
      </trkpt>
      <trkpt lat="44.02511" lon="6.02815">
        <ele>757.1</ele>
        <time>2015-05-27T09:46:42Z</time>
      </trkpt>
      <trkpt lat="44.02505" lon="6.02817">
        <ele>757.74</ele>
        <time>2015-05-27T09:46:47Z</time>
      </trkpt>
      <trkpt lat="44.02501" lon="6.0282">
        <ele>757.77</ele>
        <time>2015-05-27T09:46:51Z</time>
      </trkpt>
      <trkpt lat="44.02496" lon="6.02825">
        <ele>757.09</ele>
        <time>2015-05-27T09:46:59Z</time>
      </trkpt>
      <trkpt lat="44.02488" lon="6.0283">
        <ele>755.3</ele>
        <time>2015-05-27T09:47:07Z</time>
      </trkpt>
      <trkpt lat="44.02481" lon="6.02836">
        <ele>754.09</ele>
        <time>2015-05-27T09:47:15Z</time>
      </trkpt>
      <trkpt lat="44.02478" lon="6.02841">
        <ele>752.81</ele>
        <time>2015-05-27T09:47:19Z</time>
      </trkpt>
      <trkpt lat="44.02473" lon="6.02844">
        <ele>752.12</ele>
        <time>2015-05-27T09:47:23Z</time>
      </trkpt>
      <trkpt lat="44.0247" lon="6.02849">
        <ele>751.86</ele>
        <time>2015-05-27T09:47:27Z</time>
      </trkpt>
      <trkpt lat="44.02465" lon="6.02856">
        <ele>751.74</ele>
        <time>2015-05-27T09:47:36Z</time>
      </trkpt>
      <trkpt lat="44.02464" lon="6.02863">
        <ele>752.13</ele>
        <time>2015-05-27T09:47:43Z</time>
      </trkpt>
      <trkpt lat="44.02462" lon="6.02869">
        <ele>752.09</ele>
        <time>2015-05-27T09:47:48Z</time>
      </trkpt>
      <trkpt lat="44.02453" lon="6.02873">
        <ele>751.99</ele>
        <time>2015-05-27T09:48:01Z</time>
      </trkpt>
      <trkpt lat="44.02449" lon="6.02872">
        <ele>753.73</ele>
        <time>2015-05-27T09:48:08Z</time>
      </trkpt>
      <trkpt lat="44.02444" lon="6.02871">
        <ele>755.49</ele>
        <time>2015-05-27T09:48:15Z</time>
      </trkpt>
      <trkpt lat="44.02438" lon="6.02873">
        <ele>761.74</ele>
        <time>2015-05-27T09:49:30Z</time>
      </trkpt>
      <trkpt lat="44.02433" lon="6.02872">
        <ele>764.84</ele>
        <time>2015-05-27T09:49:40Z</time>
      </trkpt>
      <trkpt lat="44.02429" lon="6.02875">
        <ele>766.99</ele>
        <time>2015-05-27T09:49:45Z</time>
      </trkpt>
      <trkpt lat="44.02424" lon="6.02879">
        <ele>767.99</ele>
        <time>2015-05-27T09:49:50Z</time>
      </trkpt>
      <trkpt lat="44.02419" lon="6.0288">
        <ele>768.13</ele>
        <time>2015-05-27T09:49:55Z</time>
      </trkpt>
      <trkpt lat="44.02414" lon="6.02878">
        <ele>769.09</ele>
        <time>2015-05-27T09:50:00Z</time>
      </trkpt>
      <trkpt lat="44.02409" lon="6.02879">
        <ele>770.44</ele>
        <time>2015-05-27T09:50:08Z</time>
      </trkpt>
      <trkpt lat="44.02404" lon="6.02878">
        <ele>771.33</ele>
        <time>2015-05-27T09:50:14Z</time>
      </trkpt>
      <trkpt lat="44.02399" lon="6.02876">
        <ele>772.97</ele>
        <time>2015-05-27T09:50:20Z</time>
      </trkpt>
      <trkpt lat="44.02395" lon="6.02873">
        <ele>774.24</ele>
        <time>2015-05-27T09:50:25Z</time>
      </trkpt>
      <trkpt lat="44.0239" lon="6.02871">
        <ele>775.07</ele>
        <time>2015-05-27T09:50:30Z</time>
      </trkpt>
      <trkpt lat="44.02383" lon="6.02868">
        <ele>777.24</ele>
        <time>2015-05-27T09:50:42Z</time>
      </trkpt>
      <trkpt lat="44.02379" lon="6.02865">
        <ele>779.57</ele>
        <time>2015-05-27T09:50:50Z</time>
      </trkpt>
      <trkpt lat="44.02374" lon="6.02864">
        <ele>781.2</ele>
        <time>2015-05-27T09:50:56Z</time>
      </trkpt>
      <trkpt lat="44.02369" lon="6.02861">
        <ele>782.11</ele>
        <time>2015-05-27T09:51:03Z</time>
      </trkpt>
      <trkpt lat="44.02365" lon="6.02856">
        <ele>782.71</ele>
        <time>2015-05-27T09:51:11Z</time>
      </trkpt>
      <trkpt lat="44.02362" lon="6.02851">
        <ele>783.53</ele>
        <time>2015-05-27T09:51:17Z</time>
      </trkpt>
      <trkpt lat="44.02359" lon="6.02844">
        <ele>783.46</ele>
        <time>2015-05-27T09:51:23Z</time>
      </trkpt>
      <trkpt lat="44.02358" lon="6.02835">
        <ele>784.04</ele>
        <time>2015-05-27T09:51:35Z</time>
      </trkpt>
      <trkpt lat="44.02358" lon="6.02829">
        <ele>784.4</ele>
        <time>2015-05-27T09:51:40Z</time>
      </trkpt>
      <trkpt lat="44.02356" lon="6.02822">
        <ele>784.62</ele>
        <time>2015-05-27T09:51:45Z</time>
      </trkpt>
      <trkpt lat="44.02355" lon="6.02816">
        <ele>784.63</ele>
        <time>2015-05-27T09:51:49Z</time>
      </trkpt>
      <trkpt lat="44.02353" lon="6.0281">
        <ele>785.04</ele>
        <time>2015-05-27T09:51:54Z</time>
      </trkpt>
      <trkpt lat="44.02351" lon="6.02803">
        <ele>784.44</ele>
        <time>2015-05-27T09:52:01Z</time>
      </trkpt>
      <trkpt lat="44.02348" lon="6.02794">
        <ele>783.94</ele>
        <time>2015-05-27T09:52:11Z</time>
      </trkpt>
      <trkpt lat="44.02348" lon="6.02787">
        <ele>783.38</ele>
        <time>2015-05-27T09:52:17Z</time>
      </trkpt>
      <trkpt lat="44.02347" lon="6.02779">
        <ele>783.19</ele>
        <time>2015-05-27T09:52:25Z</time>
      </trkpt>
      <trkpt lat="44.02346" lon="6.02773">
        <ele>781.65</ele>
        <time>2015-05-27T09:52:30Z</time>
      </trkpt>
      <trkpt lat="44.02343" lon="6.02767">
        <ele>781.2</ele>
        <time>2015-05-27T09:52:35Z</time>
      </trkpt>
      <trkpt lat="44.0234" lon="6.02762">
        <ele>780.76</ele>
        <time>2015-05-27T09:52:41Z</time>
      </trkpt>
      <trkpt lat="44.02336" lon="6.02759">
        <ele>780.55</ele>
        <time>2015-05-27T09:52:46Z</time>
      </trkpt>
      <trkpt lat="44.02332" lon="6.02754">
        <ele>779.52</ele>
        <time>2015-05-27T09:52:51Z</time>
      </trkpt>
      <trkpt lat="44.02328" lon="6.0275">
        <ele>779.02</ele>
        <time>2015-05-27T09:52:56Z</time>
      </trkpt>
      <trkpt lat="44.02323" lon="6.02746">
        <ele>778.06</ele>
        <time>2015-05-27T09:53:01Z</time>
      </trkpt>
      <trkpt lat="44.0232" lon="6.02742">
        <ele>777.75</ele>
        <time>2015-05-27T09:53:07Z</time>
      </trkpt>
      <trkpt lat="44.02315" lon="6.02737">
        <ele>777.99</ele>
        <time>2015-05-27T09:53:19Z</time>
      </trkpt>
      <trkpt lat="44.0231" lon="6.02732">
        <ele>778.64</ele>
        <time>2015-05-27T09:53:30Z</time>
      </trkpt>
      <trkpt lat="44.02305" lon="6.0273">
        <ele>779.01</ele>
        <time>2015-05-27T09:53:38Z</time>
      </trkpt>
      <trkpt lat="44.02301" lon="6.02728">
        <ele>779.74</ele>
        <time>2015-05-27T09:53:47Z</time>
      </trkpt>
      <trkpt lat="44.02297" lon="6.02726">
        <ele>779.49</ele>
        <time>2015-05-27T09:53:52Z</time>
      </trkpt>
      <trkpt lat="44.02294" lon="6.02721">
        <ele>778.71</ele>
        <time>2015-05-27T09:53:57Z</time>
      </trkpt>
      <trkpt lat="44.02289" lon="6.02713">
        <ele>778.09</ele>
        <time>2015-05-27T09:54:07Z</time>
      </trkpt>
      <trkpt lat="44.02284" lon="6.02711">
        <ele>777.93</ele>
        <time>2015-05-27T09:54:11Z</time>
      </trkpt>
      <trkpt lat="44.0228" lon="6.02708">
        <ele>777.73</ele>
        <time>2015-05-27T09:54:16Z</time>
      </trkpt>
      <trkpt lat="44.02275" lon="6.02705">
        <ele>777.56</ele>
        <time>2015-05-27T09:54:21Z</time>
      </trkpt>
      <trkpt lat="44.0227" lon="6.02704">
        <ele>777.2</ele>
        <time>2015-05-27T09:54:26Z</time>
      </trkpt>
      <trkpt lat="44.02265" lon="6.02702">
        <ele>777.3</ele>
        <time>2015-05-27T09:54:32Z</time>
      </trkpt>
      <trkpt lat="44.0226" lon="6.02701">
        <ele>777.37</ele>
        <time>2015-05-27T09:54:37Z</time>
      </trkpt>
      <trkpt lat="44.02255" lon="6.02703">
        <ele>777.33</ele>
        <time>2015-05-27T09:54:42Z</time>
      </trkpt>
      <trkpt lat="44.02251" lon="6.02699">
        <ele>777.2</ele>
        <time>2015-05-27T09:54:46Z</time>
      </trkpt>
      <trkpt lat="44.02244" lon="6.02693">
        <ele>777.39</ele>
        <time>2015-05-27T09:54:56Z</time>
      </trkpt>
      <trkpt lat="44.02239" lon="6.02691">
        <ele>777.99</ele>
        <time>2015-05-27T09:55:00Z</time>
      </trkpt>
      <trkpt lat="44.02234" lon="6.02689">
        <ele>778.58</ele>
        <time>2015-05-27T09:55:05Z</time>
      </trkpt>
      <trkpt lat="44.02228" lon="6.02689">
        <ele>779.52</ele>
        <time>2015-05-27T09:55:10Z</time>
      </trkpt>
      <trkpt lat="44.02223" lon="6.02687">
        <ele>780.21</ele>
        <time>2015-05-27T09:55:14Z</time>
      </trkpt>
      <trkpt lat="44.02219" lon="6.02682">
        <ele>780.71</ele>
        <time>2015-05-27T09:55:18Z</time>
      </trkpt>
      <trkpt lat="44.02215" lon="6.0268">
        <ele>780.96</ele>
        <time>2015-05-27T09:55:21Z</time>
      </trkpt>
      <trkpt lat="44.02211" lon="6.02677">
        <ele>781.06</ele>
        <time>2015-05-27T09:55:25Z</time>
      </trkpt>
      <trkpt lat="44.02204" lon="6.02679">
        <ele>781.94</ele>
        <time>2015-05-27T09:55:35Z</time>
      </trkpt>
      <trkpt lat="44.02199" lon="6.02678">
        <ele>782.9</ele>
        <time>2015-05-27T09:55:40Z</time>
      </trkpt>
      <trkpt lat="44.02194" lon="6.02676">
        <ele>783.9</ele>
        <time>2015-05-27T09:55:44Z</time>
      </trkpt>
      <trkpt lat="44.02189" lon="6.02674">
        <ele>784.35</ele>
        <time>2015-05-27T09:55:50Z</time>
      </trkpt>
      <trkpt lat="44.02183" lon="6.02673">
        <ele>784.81</ele>
        <time>2015-05-27T09:55:55Z</time>
      </trkpt>
      <trkpt lat="44.02179" lon="6.0267">
        <ele>785.54</ele>
        <time>2015-05-27T09:56:00Z</time>
      </trkpt>
      <trkpt lat="44.02174" lon="6.0267">
        <ele>786.08</ele>
        <time>2015-05-27T09:56:05Z</time>
      </trkpt>
      <trkpt lat="44.02169" lon="6.0267">
        <ele>786</ele>
        <time>2015-05-27T09:56:09Z</time>
      </trkpt>
      <trkpt lat="44.02163" lon="6.02672">
        <ele>786.44</ele>
        <time>2015-05-27T09:56:14Z</time>
      </trkpt>
      <trkpt lat="44.02158" lon="6.02672">
        <ele>787.24</ele>
        <time>2015-05-27T09:56:18Z</time>
      </trkpt>
      <trkpt lat="44.02152" lon="6.02675">
        <ele>787.99</ele>
        <time>2015-05-27T09:56:24Z</time>
      </trkpt>
      <trkpt lat="44.02148" lon="6.02676">
        <ele>788.94</ele>
        <time>2015-05-27T09:56:28Z</time>
      </trkpt>
      <trkpt lat="44.02143" lon="6.02676">
        <ele>789.1</ele>
        <time>2015-05-27T09:56:32Z</time>
      </trkpt>
      <trkpt lat="44.02138" lon="6.02677">
        <ele>789.51</ele>
        <time>2015-05-27T09:56:35Z</time>
      </trkpt>
      <trkpt lat="44.02132" lon="6.02678">
        <ele>791.09</ele>
        <time>2015-05-27T09:56:38Z</time>
      </trkpt>
      <trkpt lat="44.02127" lon="6.02679">
        <ele>793.03</ele>
        <time>2015-05-27T09:56:42Z</time>
      </trkpt>
      <trkpt lat="44.02122" lon="6.0268">
        <ele>795.04</ele>
        <time>2015-05-27T09:56:46Z</time>
      </trkpt>
      <trkpt lat="44.02117" lon="6.0268">
        <ele>796.99</ele>
        <time>2015-05-27T09:56:50Z</time>
      </trkpt>
      <trkpt lat="44.02112" lon="6.02682">
        <ele>798.57</ele>
        <time>2015-05-27T09:56:56Z</time>
      </trkpt>
      <trkpt lat="44.02107" lon="6.02683">
        <ele>799.82</ele>
        <time>2015-05-27T09:57:00Z</time>
      </trkpt>
      <trkpt lat="44.02102" lon="6.02685">
        <ele>801.48</ele>
        <time>2015-05-27T09:57:04Z</time>
      </trkpt>
      <trkpt lat="44.02093" lon="6.02688">
        <ele>803.74</ele>
        <time>2015-05-27T09:57:16Z</time>
      </trkpt>
      <trkpt lat="44.02088" lon="6.02689">
        <ele>804.85</ele>
        <time>2015-05-27T09:57:22Z</time>
      </trkpt>
      <trkpt lat="44.0208" lon="6.02689">
        <ele>804.69</ele>
        <time>2015-05-27T09:57:35Z</time>
      </trkpt>
      <trkpt lat="44.02077" lon="6.02694">
        <ele>807.54</ele>
        <time>2015-05-27T09:57:44Z</time>
      </trkpt>
      <trkpt lat="44.02073" lon="6.02698">
        <ele>810.47</ele>
        <time>2015-05-27T09:57:50Z</time>
      </trkpt>
      <trkpt lat="44.02066" lon="6.027">
        <ele>813.64</ele>
        <time>2015-05-27T09:58:00Z</time>
      </trkpt>
      <trkpt lat="44.02061" lon="6.02699">
        <ele>814.44</ele>
        <time>2015-05-27T09:58:05Z</time>
      </trkpt>
      <trkpt lat="44.02053" lon="6.02703">
        <ele>813.2</ele>
        <time>2015-05-27T09:58:16Z</time>
      </trkpt>
      <trkpt lat="44.02048" lon="6.02707">
        <ele>812.74</ele>
        <time>2015-05-27T09:58:29Z</time>
      </trkpt>
      <trkpt lat="44.02042" lon="6.02706">
        <ele>811.79</ele>
        <time>2015-05-27T09:58:50Z</time>
      </trkpt>
      <trkpt lat="44.02036" lon="6.02708">
        <ele>813.29</ele>
        <time>2015-05-27T09:59:01Z</time>
      </trkpt>
      <trkpt lat="44.02041" lon="6.02706">
        <ele>813.76</ele>
        <time>2015-05-27T09:59:33Z</time>
      </trkpt>
      <trkpt lat="44.02045" lon="6.02704">
        <ele>813.42</ele>
        <time>2015-05-27T09:59:38Z</time>
      </trkpt>
      <trkpt lat="44.0205" lon="6.02702">
        <ele>813.58</ele>
        <time>2015-05-27T09:59:43Z</time>
      </trkpt>
      <trkpt lat="44.02053" lon="6.02712">
        <ele>813.24</ele>
        <time>2015-05-27T10:00:19Z</time>
      </trkpt>
      <trkpt lat="44.02052" lon="6.02718">
        <ele>812.3</ele>
        <time>2015-05-27T10:00:35Z</time>
      </trkpt>
      <trkpt lat="44.02056" lon="6.0272">
        <ele>810.7</ele>
        <time>2015-05-27T10:01:03Z</time>
      </trkpt>
      <trkpt lat="44.02055" lon="6.02714">
        <ele>811.23</ele>
        <time>2015-05-27T10:01:25Z</time>
      </trkpt>
      <trkpt lat="44.02051" lon="6.0271">
        <ele>811.4</ele>
        <time>2015-05-27T10:01:32Z</time>
      </trkpt>
      <trkpt lat="44.02047" lon="6.02708">
        <ele>811.45</ele>
        <time>2015-05-27T10:01:39Z</time>
      </trkpt>
      <trkpt lat="44.02046" lon="6.02698">
        <ele>811.19</ele>
        <time>2015-05-27T10:02:09Z</time>
      </trkpt>
      <trkpt lat="44.02046" lon="6.0269">
        <ele>810.45</ele>
        <time>2015-05-27T10:02:18Z</time>
      </trkpt>
      <trkpt lat="44.02046" lon="6.02683">
        <ele>811.24</ele>
        <time>2015-05-27T10:02:24Z</time>
      </trkpt>
      <trkpt lat="44.02048" lon="6.02676">
        <ele>812.48</ele>
        <time>2015-05-27T10:02:29Z</time>
      </trkpt>
      <trkpt lat="44.02049" lon="6.0267">
        <ele>813.27</ele>
        <time>2015-05-27T10:02:34Z</time>
      </trkpt>
      <trkpt lat="44.02052" lon="6.02664">
        <ele>813.64</ele>
        <time>2015-05-27T10:02:39Z</time>
      </trkpt>
      <trkpt lat="44.02055" lon="6.02658">
        <ele>814.29</ele>
        <time>2015-05-27T10:02:45Z</time>
      </trkpt>
      <trkpt lat="44.02057" lon="6.02652">
        <ele>814.32</ele>
        <time>2015-05-27T10:02:51Z</time>
      </trkpt>
      <trkpt lat="44.02059" lon="6.02645">
        <ele>815.38</ele>
        <time>2015-05-27T10:02:56Z</time>
      </trkpt>
      <trkpt lat="44.02063" lon="6.0264">
        <ele>816.07</ele>
        <time>2015-05-27T10:03:01Z</time>
      </trkpt>
      <trkpt lat="44.02066" lon="6.02635">
        <ele>816.8</ele>
        <time>2015-05-27T10:03:06Z</time>
      </trkpt>
      <trkpt lat="44.02069" lon="6.02629">
        <ele>818.79</ele>
        <time>2015-05-27T10:03:35Z</time>
      </trkpt>
      <trkpt lat="44.02072" lon="6.02625">
        <ele>819.85</ele>
        <time>2015-05-27T10:03:40Z</time>
      </trkpt>
      <trkpt lat="44.02077" lon="6.02621">
        <ele>819.54</ele>
        <time>2015-05-27T10:03:45Z</time>
      </trkpt>
      <trkpt lat="44.0208" lon="6.02617">
        <ele>819.42</ele>
        <time>2015-05-27T10:03:50Z</time>
      </trkpt>
      <trkpt lat="44.02082" lon="6.02611">
        <ele>820</ele>
        <time>2015-05-27T10:03:55Z</time>
      </trkpt>
      <trkpt lat="44.02086" lon="6.02606">
        <ele>824.52</ele>
        <time>2015-05-27T10:04:02Z</time>
      </trkpt>
      <trkpt lat="44.02092" lon="6.02606">
        <ele>825.24</ele>
        <time>2015-05-27T10:04:07Z</time>
      </trkpt>
      <trkpt lat="44.02097" lon="6.02606">
        <ele>824.97</ele>
        <time>2015-05-27T10:04:12Z</time>
      </trkpt>
      <trkpt lat="44.02102" lon="6.02606">
        <ele>824.84</ele>
        <time>2015-05-27T10:04:16Z</time>
      </trkpt>
      <trkpt lat="44.02107" lon="6.02606">
        <ele>824.72</ele>
        <time>2015-05-27T10:04:21Z</time>
      </trkpt>
      <trkpt lat="44.02112" lon="6.02605">
        <ele>824.15</ele>
        <time>2015-05-27T10:04:26Z</time>
      </trkpt>
      <trkpt lat="44.02117" lon="6.02604">
        <ele>823.62</ele>
        <time>2015-05-27T10:04:32Z</time>
      </trkpt>
      <trkpt lat="44.02121" lon="6.02601">
        <ele>823.34</ele>
        <time>2015-05-27T10:04:43Z</time>
      </trkpt>
      <trkpt lat="44.02125" lon="6.02599">
        <ele>823.09</ele>
        <time>2015-05-27T10:04:47Z</time>
      </trkpt>
      <trkpt lat="44.0213" lon="6.02596">
        <ele>823.22</ele>
        <time>2015-05-27T10:04:52Z</time>
      </trkpt>
      <trkpt lat="44.02134" lon="6.02592">
        <ele>823.62</ele>
        <time>2015-05-27T10:04:57Z</time>
      </trkpt>
      <trkpt lat="44.02139" lon="6.0259">
        <ele>823.75</ele>
        <time>2015-05-27T10:05:01Z</time>
      </trkpt>
      <trkpt lat="44.02144" lon="6.02588">
        <ele>823.94</ele>
        <time>2015-05-27T10:05:06Z</time>
      </trkpt>
      <trkpt lat="44.02149" lon="6.02585">
        <ele>823.44</ele>
        <time>2015-05-27T10:05:10Z</time>
      </trkpt>
      <trkpt lat="44.02153" lon="6.02583">
        <ele>823.41</ele>
        <time>2015-05-27T10:05:14Z</time>
      </trkpt>
      <trkpt lat="44.02157" lon="6.02578">
        <ele>823.23</ele>
        <time>2015-05-27T10:05:19Z</time>
      </trkpt>
      <trkpt lat="44.02162" lon="6.02576">
        <ele>823.26</ele>
        <time>2015-05-27T10:05:26Z</time>
      </trkpt>
      <trkpt lat="44.02167" lon="6.0258">
        <ele>822.37</ele>
        <time>2015-05-27T10:05:31Z</time>
      </trkpt>
      <trkpt lat="44.02171" lon="6.02582">
        <ele>821.96</ele>
        <time>2015-05-27T10:05:36Z</time>
      </trkpt>
      <trkpt lat="44.02177" lon="6.02583">
        <ele>821.64</ele>
        <time>2015-05-27T10:05:41Z</time>
      </trkpt>
      <trkpt lat="44.02181" lon="6.02584">
        <ele>821.55</ele>
        <time>2015-05-27T10:05:45Z</time>
      </trkpt>
      <trkpt lat="44.02186" lon="6.02583">
        <ele>821.31</ele>
        <time>2015-05-27T10:05:49Z</time>
      </trkpt>
      <trkpt lat="44.02191" lon="6.02584">
        <ele>821.17</ele>
        <time>2015-05-27T10:05:53Z</time>
      </trkpt>
      <trkpt lat="44.02196" lon="6.02584">
        <ele>821.26</ele>
        <time>2015-05-27T10:05:57Z</time>
      </trkpt>
      <trkpt lat="44.02201" lon="6.02583">
        <ele>821.11</ele>
        <time>2015-05-27T10:06:01Z</time>
      </trkpt>
      <trkpt lat="44.02206" lon="6.02583">
        <ele>820.71</ele>
        <time>2015-05-27T10:06:06Z</time>
      </trkpt>
      <trkpt lat="44.02211" lon="6.02583">
        <ele>820.36</ele>
        <time>2015-05-27T10:06:10Z</time>
      </trkpt>
      <trkpt lat="44.02216" lon="6.02583">
        <ele>820.17</ele>
        <time>2015-05-27T10:06:14Z</time>
      </trkpt>
      <trkpt lat="44.02221" lon="6.02584">
        <ele>820.55</ele>
        <time>2015-05-27T10:06:19Z</time>
      </trkpt>
      <trkpt lat="44.02227" lon="6.02585">
        <ele>820.08</ele>
        <time>2015-05-27T10:06:24Z</time>
      </trkpt>
      <trkpt lat="44.02231" lon="6.02586">
        <ele>819.86</ele>
        <time>2015-05-27T10:06:28Z</time>
      </trkpt>
      <trkpt lat="44.02236" lon="6.02587">
        <ele>819.84</ele>
        <time>2015-05-27T10:06:32Z</time>
      </trkpt>
      <trkpt lat="44.02241" lon="6.02588">
        <ele>819.65</ele>
        <time>2015-05-27T10:06:36Z</time>
      </trkpt>
      <trkpt lat="44.02245" lon="6.0259">
        <ele>819.51</ele>
        <time>2015-05-27T10:06:40Z</time>
      </trkpt>
      <trkpt lat="44.0225" lon="6.02592">
        <ele>819.54</ele>
        <time>2015-05-27T10:06:44Z</time>
      </trkpt>
      <trkpt lat="44.02254" lon="6.02594">
        <ele>819.68</ele>
        <time>2015-05-27T10:06:48Z</time>
      </trkpt>
      <trkpt lat="44.0226" lon="6.02596">
        <ele>819.36</ele>
        <time>2015-05-27T10:06:52Z</time>
      </trkpt>
      <trkpt lat="44.02265" lon="6.02598">
        <ele>819.27</ele>
        <time>2015-05-27T10:06:56Z</time>
      </trkpt>
      <trkpt lat="44.02269" lon="6.02601">
        <ele>819.17</ele>
        <time>2015-05-27T10:07:01Z</time>
      </trkpt>
      <trkpt lat="44.02273" lon="6.02604">
        <ele>818.84</ele>
        <time>2015-05-27T10:07:05Z</time>
      </trkpt>
      <trkpt lat="44.02278" lon="6.02607">
        <ele>818.76</ele>
        <time>2015-05-27T10:07:10Z</time>
      </trkpt>
      <trkpt lat="44.02284" lon="6.02609">
        <ele>818.25</ele>
        <time>2015-05-27T10:07:15Z</time>
      </trkpt>
      <trkpt lat="44.02288" lon="6.02611">
        <ele>818.21</ele>
        <time>2015-05-27T10:07:20Z</time>
      </trkpt>
      <trkpt lat="44.02293" lon="6.02611">
        <ele>818.72</ele>
        <time>2015-05-27T10:07:24Z</time>
      </trkpt>
      <trkpt lat="44.02299" lon="6.02612">
        <ele>819.06</ele>
        <time>2015-05-27T10:07:28Z</time>
      </trkpt>
      <trkpt lat="44.02304" lon="6.02613">
        <ele>819.03</ele>
        <time>2015-05-27T10:07:33Z</time>
      </trkpt>
      <trkpt lat="44.02309" lon="6.02614">
        <ele>819.08</ele>
        <time>2015-05-27T10:07:37Z</time>
      </trkpt>
      <trkpt lat="44.02313" lon="6.02615">
        <ele>819.13</ele>
        <time>2015-05-27T10:07:41Z</time>
      </trkpt>
      <trkpt lat="44.02318" lon="6.02615">
        <ele>819.35</ele>
        <time>2015-05-27T10:07:46Z</time>
      </trkpt>
      <trkpt lat="44.02323" lon="6.02616">
        <ele>819.29</ele>
        <time>2015-05-27T10:07:51Z</time>
      </trkpt>
      <trkpt lat="44.0233" lon="6.02616">
        <ele>819.19</ele>
        <time>2015-05-27T10:09:32Z</time>
      </trkpt>
      <trkpt lat="44.02325" lon="6.02623">
        <ele>816.59</ele>
        <time>2015-05-27T10:24:51Z</time>
      </trkpt>
      <trkpt lat="44.02328" lon="6.02613">
        <ele>820.79</ele>
        <time>2015-05-27T10:40:29Z</time>
      </trkpt>
      <trkpt lat="44.02331" lon="6.02607">
        <ele>820.83</ele>
        <time>2015-05-27T10:40:34Z</time>
      </trkpt>
      <trkpt lat="44.02334" lon="6.02604">
        <ele>820.73</ele>
        <time>2015-05-27T10:40:39Z</time>
      </trkpt>
      <trkpt lat="44.02338" lon="6.02599">
        <ele>820.91</ele>
        <time>2015-05-27T10:40:45Z</time>
      </trkpt>
      <trkpt lat="44.02342" lon="6.02594">
        <ele>820.87</ele>
        <time>2015-05-27T10:40:50Z</time>
      </trkpt>
      <trkpt lat="44.02346" lon="6.02589">
        <ele>820.54</ele>
        <time>2015-05-27T10:40:55Z</time>
      </trkpt>
      <trkpt lat="44.0235" lon="6.02585">
        <ele>820.21</ele>
        <time>2015-05-27T10:41:01Z</time>
      </trkpt>
      <trkpt lat="44.02354" lon="6.0258">
        <ele>819.95</ele>
        <time>2015-05-27T10:41:12Z</time>
      </trkpt>
      <trkpt lat="44.02358" lon="6.02576">
        <ele>819.29</ele>
        <time>2015-05-27T10:41:18Z</time>
      </trkpt>
      <trkpt lat="44.02362" lon="6.02571">
        <ele>819.17</ele>
        <time>2015-05-27T10:41:23Z</time>
      </trkpt>
      <trkpt lat="44.02366" lon="6.02567">
        <ele>819.03</ele>
        <time>2015-05-27T10:41:27Z</time>
      </trkpt>
      <trkpt lat="44.0237" lon="6.02562">
        <ele>819.09</ele>
        <time>2015-05-27T10:41:32Z</time>
      </trkpt>
      <trkpt lat="44.02373" lon="6.02557">
        <ele>818.65</ele>
        <time>2015-05-27T10:41:37Z</time>
      </trkpt>
      <trkpt lat="44.02377" lon="6.02551">
        <ele>818.19</ele>
        <time>2015-05-27T10:41:42Z</time>
      </trkpt>
      <trkpt lat="44.0238" lon="6.02546">
        <ele>818.01</ele>
        <time>2015-05-27T10:41:46Z</time>
      </trkpt>
      <trkpt lat="44.02382" lon="6.0254">
        <ele>818.02</ele>
        <time>2015-05-27T10:41:50Z</time>
      </trkpt>
      <trkpt lat="44.02384" lon="6.02533">
        <ele>817.95</ele>
        <time>2015-05-27T10:41:55Z</time>
      </trkpt>
      <trkpt lat="44.02384" lon="6.02525">
        <ele>816.1</ele>
        <time>2015-05-27T10:42:04Z</time>
      </trkpt>
      <trkpt lat="44.02384" lon="6.02518">
        <ele>814.47</ele>
        <time>2015-05-27T10:42:10Z</time>
      </trkpt>
      <trkpt lat="44.02383" lon="6.02511">
        <ele>812.96</ele>
        <time>2015-05-27T10:42:16Z</time>
      </trkpt>
      <trkpt lat="44.02386" lon="6.02503">
        <ele>811.29</ele>
        <time>2015-05-27T10:42:31Z</time>
      </trkpt>
      <trkpt lat="44.02389" lon="6.02498">
        <ele>806.55</ele>
        <time>2015-05-27T10:42:41Z</time>
      </trkpt>
      <trkpt lat="44.02391" lon="6.02491">
        <ele>800.65</ele>
        <time>2015-05-27T10:42:50Z</time>
      </trkpt>
      <trkpt lat="44.02392" lon="6.02485">
        <ele>797.36</ele>
        <time>2015-05-27T10:42:57Z</time>
      </trkpt>
      <trkpt lat="44.02392" lon="6.02479">
        <ele>795.28</ele>
        <time>2015-05-27T10:43:02Z</time>
      </trkpt>
      <trkpt lat="44.02393" lon="6.02472">
        <ele>793.78</ele>
        <time>2015-05-27T10:43:07Z</time>
      </trkpt>
      <trkpt lat="44.02394" lon="6.02466">
        <ele>792</ele>
        <time>2015-05-27T10:43:13Z</time>
      </trkpt>
      <trkpt lat="44.02394" lon="6.02458">
        <ele>789.84</ele>
        <time>2015-05-27T10:43:20Z</time>
      </trkpt>
      <trkpt lat="44.02395" lon="6.02451">
        <ele>787.96</ele>
        <time>2015-05-27T10:43:25Z</time>
      </trkpt>
      <trkpt lat="44.02397" lon="6.02445">
        <ele>785.89</ele>
        <time>2015-05-27T10:43:31Z</time>
      </trkpt>
      <trkpt lat="44.02399" lon="6.02438">
        <ele>783.79</ele>
        <time>2015-05-27T10:43:39Z</time>
      </trkpt>
      <trkpt lat="44.02402" lon="6.02432">
        <ele>780.17</ele>
        <time>2015-05-27T10:43:46Z</time>
      </trkpt>
      <trkpt lat="44.02403" lon="6.02426">
        <ele>776.49</ele>
        <time>2015-05-27T10:43:55Z</time>
      </trkpt>
      <trkpt lat="44.02406" lon="6.0242">
        <ele>770.92</ele>
        <time>2015-05-27T10:44:05Z</time>
      </trkpt>
      <trkpt lat="44.02408" lon="6.02414">
        <ele>768.25</ele>
        <time>2015-05-27T10:44:13Z</time>
      </trkpt>
      <trkpt lat="44.02409" lon="6.02407">
        <ele>764.29</ele>
        <time>2015-05-27T10:44:24Z</time>
      </trkpt>
      <trkpt lat="44.02412" lon="6.024">
        <ele>760.59</ele>
        <time>2015-05-27T10:44:34Z</time>
      </trkpt>
      <trkpt lat="44.02413" lon="6.02393">
        <ele>757.15</ele>
        <time>2015-05-27T10:44:41Z</time>
      </trkpt>
      <trkpt lat="44.02414" lon="6.02385">
        <ele>754.1</ele>
        <time>2015-05-27T10:44:50Z</time>
      </trkpt>
      <trkpt lat="44.02415" lon="6.02377">
        <ele>749.65</ele>
        <time>2015-05-27T10:44:59Z</time>
      </trkpt>
      <trkpt lat="44.02416" lon="6.02369">
        <ele>745.04</ele>
        <time>2015-05-27T10:45:11Z</time>
      </trkpt>
      <trkpt lat="44.02417" lon="6.02363">
        <ele>740.44</ele>
        <time>2015-05-27T10:45:23Z</time>
      </trkpt>
      <trkpt lat="44.02415" lon="6.02356">
        <ele>735.49</ele>
        <time>2015-05-27T10:45:34Z</time>
      </trkpt>
      <trkpt lat="44.02413" lon="6.0235">
        <ele>732.29</ele>
        <time>2015-05-27T10:45:47Z</time>
      </trkpt>
      <trkpt lat="44.02416" lon="6.02342">
        <ele>728.8</ele>
        <time>2015-05-27T10:45:56Z</time>
      </trkpt>
      <trkpt lat="44.0242" lon="6.02338">
        <ele>727.06</ele>
        <time>2015-05-27T10:46:01Z</time>
      </trkpt>
      <trkpt lat="44.02423" lon="6.02332">
        <ele>725.6</ele>
        <time>2015-05-27T10:46:06Z</time>
      </trkpt>
      <trkpt lat="44.02425" lon="6.02326">
        <ele>722.42</ele>
        <time>2015-05-27T10:46:13Z</time>
      </trkpt>
      <trkpt lat="44.02425" lon="6.02319">
        <ele>719.86</ele>
        <time>2015-05-27T10:46:20Z</time>
      </trkpt>
      <trkpt lat="44.02423" lon="6.02312">
        <ele>717.53</ele>
        <time>2015-05-27T10:46:26Z</time>
      </trkpt>
      <trkpt lat="44.02423" lon="6.02306">
        <ele>715.29</ele>
        <time>2015-05-27T10:46:35Z</time>
      </trkpt>
      <trkpt lat="44.02423" lon="6.02298">
        <ele>711.64</ele>
        <time>2015-05-27T10:46:46Z</time>
      </trkpt>
      <trkpt lat="44.02422" lon="6.0229">
        <ele>709.25</ele>
        <time>2015-05-27T10:46:51Z</time>
      </trkpt>
      <trkpt lat="44.02422" lon="6.02282">
        <ele>708.3</ele>
        <time>2015-05-27T10:46:56Z</time>
      </trkpt>
      <trkpt lat="44.02421" lon="6.02273">
        <ele>706.89</ele>
        <time>2015-05-27T10:47:07Z</time>
      </trkpt>
      <trkpt lat="44.02421" lon="6.02261">
        <ele>705.19</ele>
        <time>2015-05-27T10:47:19Z</time>
      </trkpt>
      <trkpt lat="44.02422" lon="6.02254">
        <ele>703.07</ele>
        <time>2015-05-27T10:47:24Z</time>
      </trkpt>
      <trkpt lat="44.02425" lon="6.02242">
        <ele>700.65</ele>
        <time>2015-05-27T10:47:35Z</time>
      </trkpt>
      <trkpt lat="44.02426" lon="6.02236">
        <ele>698.48</ele>
        <time>2015-05-27T10:47:41Z</time>
      </trkpt>
      <trkpt lat="44.02426" lon="6.02229">
        <ele>697.57</ele>
        <time>2015-05-27T10:47:46Z</time>
      </trkpt>
      <trkpt lat="44.02429" lon="6.02223">
        <ele>697.34</ele>
        <time>2015-05-27T10:47:51Z</time>
      </trkpt>
      <trkpt lat="44.02433" lon="6.02217">
        <ele>697.31</ele>
        <time>2015-05-27T10:47:56Z</time>
      </trkpt>
      <trkpt lat="44.02436" lon="6.02212">
        <ele>697.07</ele>
        <time>2015-05-27T10:48:00Z</time>
      </trkpt>
      <trkpt lat="44.02439" lon="6.02207">
        <ele>697.06</ele>
        <time>2015-05-27T10:48:04Z</time>
      </trkpt>
      <trkpt lat="44.02443" lon="6.02203">
        <ele>696.68</ele>
        <time>2015-05-27T10:48:09Z</time>
      </trkpt>
      <trkpt lat="44.02447" lon="6.02199">
        <ele>696.19</ele>
        <time>2015-05-27T10:48:13Z</time>
      </trkpt>
      <trkpt lat="44.02451" lon="6.02194">
        <ele>696.11</ele>
        <time>2015-05-27T10:48:17Z</time>
      </trkpt>
      <trkpt lat="44.02455" lon="6.0219">
        <ele>696.2</ele>
        <time>2015-05-27T10:48:22Z</time>
      </trkpt>
      <trkpt lat="44.02459" lon="6.02184">
        <ele>696.03</ele>
        <time>2015-05-27T10:48:27Z</time>
      </trkpt>
      <trkpt lat="44.02462" lon="6.02178">
        <ele>696.34</ele>
        <time>2015-05-27T10:48:31Z</time>
      </trkpt>
      <trkpt lat="44.02465" lon="6.02173">
        <ele>696.14</ele>
        <time>2015-05-27T10:48:35Z</time>
      </trkpt>
      <trkpt lat="44.02469" lon="6.02168">
        <ele>695.65</ele>
        <time>2015-05-27T10:48:39Z</time>
      </trkpt>
      <trkpt lat="44.02473" lon="6.02164">
        <ele>695.13</ele>
        <time>2015-05-27T10:48:44Z</time>
      </trkpt>
      <trkpt lat="44.02478" lon="6.02159">
        <ele>695.1</ele>
        <time>2015-05-27T10:48:49Z</time>
      </trkpt>
      <trkpt lat="44.02483" lon="6.02155">
        <ele>695.39</ele>
        <time>2015-05-27T10:48:54Z</time>
      </trkpt>
      <trkpt lat="44.02487" lon="6.02153">
        <ele>695.69</ele>
        <time>2015-05-27T10:48:58Z</time>
      </trkpt>
      <trkpt lat="44.02492" lon="6.02151">
        <ele>696.14</ele>
        <time>2015-05-27T10:49:03Z</time>
      </trkpt>
      <trkpt lat="44.02496" lon="6.02147">
        <ele>696.66</ele>
        <time>2015-05-27T10:49:08Z</time>
      </trkpt>
      <trkpt lat="44.025" lon="6.02142">
        <ele>697.59</ele>
        <time>2015-05-27T10:49:13Z</time>
      </trkpt>
      <trkpt lat="44.02505" lon="6.02141">
        <ele>697.98</ele>
        <time>2015-05-27T10:49:18Z</time>
      </trkpt>
      <trkpt lat="44.0251" lon="6.02137">
        <ele>698.66</ele>
        <time>2015-05-27T10:49:24Z</time>
      </trkpt>
      <trkpt lat="44.02514" lon="6.02133">
        <ele>699.12</ele>
        <time>2015-05-27T10:49:29Z</time>
      </trkpt>
      <trkpt lat="44.02518" lon="6.02131">
        <ele>699.66</ele>
        <time>2015-05-27T10:49:35Z</time>
      </trkpt>
      <trkpt lat="44.02524" lon="6.0213">
        <ele>699.85</ele>
        <time>2015-05-27T10:49:41Z</time>
      </trkpt>
      <trkpt lat="44.02529" lon="6.02129">
        <ele>699.68</ele>
        <time>2015-05-27T10:49:46Z</time>
      </trkpt>
      <trkpt lat="44.02534" lon="6.02127">
        <ele>700.27</ele>
        <time>2015-05-27T10:49:50Z</time>
      </trkpt>
      <trkpt lat="44.02538" lon="6.02121">
        <ele>701.44</ele>
        <time>2015-05-27T10:49:58Z</time>
      </trkpt>
      <trkpt lat="44.02542" lon="6.02118">
        <ele>702.27</ele>
        <time>2015-05-27T10:50:02Z</time>
      </trkpt>
      <trkpt lat="44.02546" lon="6.02113">
        <ele>702.49</ele>
        <time>2015-05-27T10:50:06Z</time>
      </trkpt>
      <trkpt lat="44.02551" lon="6.0211">
        <ele>702.51</ele>
        <time>2015-05-27T10:50:10Z</time>
      </trkpt>
      <trkpt lat="44.02558" lon="6.0211">
        <ele>703.44</ele>
        <time>2015-05-27T10:51:10Z</time>
      </trkpt>
      <trkpt lat="44.02562" lon="6.02105">
        <ele>706.37</ele>
        <time>2015-05-27T10:51:59Z</time>
      </trkpt>
      <trkpt lat="44.02566" lon="6.02101">
        <ele>706.27</ele>
        <time>2015-05-27T10:52:03Z</time>
      </trkpt>
      <trkpt lat="44.0257" lon="6.02096">
        <ele>705.83</ele>
        <time>2015-05-27T10:52:08Z</time>
      </trkpt>
      <trkpt lat="44.02573" lon="6.02091">
        <ele>704.09</ele>
        <time>2015-05-27T10:52:14Z</time>
      </trkpt>
      <trkpt lat="44.02577" lon="6.02088">
        <ele>702.86</ele>
        <time>2015-05-27T10:52:18Z</time>
      </trkpt>
      <trkpt lat="44.02581" lon="6.02082">
        <ele>702.28</ele>
        <time>2015-05-27T10:52:23Z</time>
      </trkpt>
      <trkpt lat="44.02584" lon="6.02076">
        <ele>701.39</ele>
        <time>2015-05-27T10:52:28Z</time>
      </trkpt>
      <trkpt lat="44.02588" lon="6.02071">
        <ele>699.76</ele>
        <time>2015-05-27T10:52:34Z</time>
      </trkpt>
      <trkpt lat="44.02592" lon="6.02068">
        <ele>699.12</ele>
        <time>2015-05-27T10:52:39Z</time>
      </trkpt>
      <trkpt lat="44.02594" lon="6.02062">
        <ele>698.08</ele>
        <time>2015-05-27T10:52:46Z</time>
      </trkpt>
      <trkpt lat="44.02597" lon="6.02057">
        <ele>697.28</ele>
        <time>2015-05-27T10:52:51Z</time>
      </trkpt>
      <trkpt lat="44.02599" lon="6.02051">
        <ele>696.7</ele>
        <time>2015-05-27T10:52:56Z</time>
      </trkpt>
      <trkpt lat="44.02602" lon="6.02045">
        <ele>696.5</ele>
        <time>2015-05-27T10:53:01Z</time>
      </trkpt>
      <trkpt lat="44.02605" lon="6.02039">
        <ele>695.84</ele>
        <time>2015-05-27T10:53:07Z</time>
      </trkpt>
      <trkpt lat="44.02608" lon="6.02035">
        <ele>695.13</ele>
        <time>2015-05-27T10:53:12Z</time>
      </trkpt>
      <trkpt lat="44.02612" lon="6.0203">
        <ele>694.71</ele>
        <time>2015-05-27T10:53:17Z</time>
      </trkpt>
      <trkpt lat="44.02615" lon="6.02024">
        <ele>694.43</ele>
        <time>2015-05-27T10:53:22Z</time>
      </trkpt>
      <trkpt lat="44.02618" lon="6.02019">
        <ele>694.32</ele>
        <time>2015-05-27T10:53:26Z</time>
      </trkpt>
      <trkpt lat="44.02621" lon="6.02014">
        <ele>693.41</ele>
        <time>2015-05-27T10:53:31Z</time>
      </trkpt>
      <trkpt lat="44.02625" lon="6.02009">
        <ele>693.05</ele>
        <time>2015-05-27T10:53:35Z</time>
      </trkpt>
      <trkpt lat="44.02629" lon="6.02004">
        <ele>692.94</ele>
        <time>2015-05-27T10:53:40Z</time>
      </trkpt>
      <trkpt lat="44.02633" lon="6.01999">
        <ele>692.25</ele>
        <time>2015-05-27T10:53:45Z</time>
      </trkpt>
      <trkpt lat="44.02637" lon="6.01996">
        <ele>691.89</ele>
        <time>2015-05-27T10:53:50Z</time>
      </trkpt>
      <trkpt lat="44.0264" lon="6.01991">
        <ele>691.77</ele>
        <time>2015-05-27T10:53:55Z</time>
      </trkpt>
      <trkpt lat="44.02643" lon="6.01985">
        <ele>691.45</ele>
        <time>2015-05-27T10:54:02Z</time>
      </trkpt>
      <trkpt lat="44.02646" lon="6.01981">
        <ele>691.64</ele>
        <time>2015-05-27T10:54:09Z</time>
      </trkpt>
      <trkpt lat="44.0265" lon="6.01977">
        <ele>692.47</ele>
        <time>2015-05-27T10:54:16Z</time>
      </trkpt>
      <trkpt lat="44.02654" lon="6.01973">
        <ele>693.26</ele>
        <time>2015-05-27T10:54:23Z</time>
      </trkpt>
      <trkpt lat="44.02657" lon="6.01968">
        <ele>693.22</ele>
        <time>2015-05-27T10:54:28Z</time>
      </trkpt>
      <trkpt lat="44.0266" lon="6.01964">
        <ele>692.86</ele>
        <time>2015-05-27T10:54:33Z</time>
      </trkpt>
      <trkpt lat="44.02665" lon="6.01959">
        <ele>691.87</ele>
        <time>2015-05-27T10:54:40Z</time>
      </trkpt>
      <trkpt lat="44.02669" lon="6.01955">
        <ele>691.25</ele>
        <time>2015-05-27T10:54:46Z</time>
      </trkpt>
      <trkpt lat="44.02672" lon="6.01949">
        <ele>689.16</ele>
        <time>2015-05-27T10:54:52Z</time>
      </trkpt>
      <trkpt lat="44.02675" lon="6.01944">
        <ele>687.46</ele>
        <time>2015-05-27T10:54:56Z</time>
      </trkpt>
      <trkpt lat="44.02678" lon="6.01938">
        <ele>685.91</ele>
        <time>2015-05-27T10:55:02Z</time>
      </trkpt>
      <trkpt lat="44.02682" lon="6.01934">
        <ele>684.19</ele>
        <time>2015-05-27T10:55:09Z</time>
      </trkpt>
      <trkpt lat="44.02686" lon="6.01932">
        <ele>683.64</ele>
        <time>2015-05-27T10:55:17Z</time>
      </trkpt>
      <trkpt lat="44.02692" lon="6.01929">
        <ele>682.69</ele>
        <time>2015-05-27T10:55:28Z</time>
      </trkpt>
      <trkpt lat="44.02697" lon="6.01926">
        <ele>681.59</ele>
        <time>2015-05-27T10:55:39Z</time>
      </trkpt>
      <trkpt lat="44.02702" lon="6.01923">
        <ele>680.54</ele>
        <time>2015-05-27T10:55:45Z</time>
      </trkpt>
      <trkpt lat="44.02709" lon="6.01918">
        <ele>679.24</ele>
        <time>2015-05-27T10:57:39Z</time>
      </trkpt>
      <trkpt lat="44.02713" lon="6.01914">
        <ele>678.44</ele>
        <time>2015-05-27T10:58:01Z</time>
      </trkpt>
      <trkpt lat="44.0272" lon="6.01912">
        <ele>677.64</ele>
        <time>2015-05-27T10:58:11Z</time>
      </trkpt>
      <trkpt lat="44.02725" lon="6.01911">
        <ele>677.19</ele>
        <time>2015-05-27T10:58:15Z</time>
      </trkpt>
      <trkpt lat="44.0273" lon="6.0191">
        <ele>676.91</ele>
        <time>2015-05-27T10:58:19Z</time>
      </trkpt>
      <trkpt lat="44.02735" lon="6.01908">
        <ele>676.5</ele>
        <time>2015-05-27T10:58:23Z</time>
      </trkpt>
      <trkpt lat="44.0274" lon="6.01907">
        <ele>676.43</ele>
        <time>2015-05-27T10:58:27Z</time>
      </trkpt>
      <trkpt lat="44.02744" lon="6.01905">
        <ele>676.34</ele>
        <time>2015-05-27T10:58:36Z</time>
      </trkpt>
      <trkpt lat="44.02749" lon="6.01902">
        <ele>676.39</ele>
        <time>2015-05-27T10:58:42Z</time>
      </trkpt>
      <trkpt lat="44.02757" lon="6.01898">
        <ele>675.59</ele>
        <time>2015-05-27T10:58:49Z</time>
      </trkpt>
      <trkpt lat="44.02761" lon="6.01894">
        <ele>674.25</ele>
        <time>2015-05-27T10:58:51Z</time>
      </trkpt>
      <trkpt lat="44.02766" lon="6.0189">
        <ele>673.2</ele>
        <time>2015-05-27T10:58:53Z</time>
      </trkpt>
      <trkpt lat="44.02772" lon="6.01889">
        <ele>672.48</ele>
        <time>2015-05-27T10:58:55Z</time>
      </trkpt>
      <trkpt lat="44.02776" lon="6.01885">
        <ele>671.58</ele>
        <time>2015-05-27T10:58:57Z</time>
      </trkpt>
      <trkpt lat="44.02781" lon="6.0188">
        <ele>670.32</ele>
        <time>2015-05-27T10:59:00Z</time>
      </trkpt>
      <trkpt lat="44.02786" lon="6.01878">
        <ele>669.16</ele>
        <time>2015-05-27T10:59:03Z</time>
      </trkpt>
      <trkpt lat="44.02792" lon="6.01876">
        <ele>668.04</ele>
        <time>2015-05-27T10:59:06Z</time>
      </trkpt>
      <trkpt lat="44.02796" lon="6.01873">
        <ele>667.18</ele>
        <time>2015-05-27T10:59:09Z</time>
      </trkpt>
      <trkpt lat="44.02801" lon="6.0187">
        <ele>666.54</ele>
        <time>2015-05-27T10:59:13Z</time>
      </trkpt>
      <trkpt lat="44.02806" lon="6.01867">
        <ele>665.54</ele>
        <time>2015-05-27T10:59:17Z</time>
      </trkpt>
      <trkpt lat="44.0281" lon="6.01863">
        <ele>664.7</ele>
        <time>2015-05-27T10:59:21Z</time>
      </trkpt>
      <trkpt lat="44.02815" lon="6.01859">
        <ele>664.13</ele>
        <time>2015-05-27T10:59:26Z</time>
      </trkpt>
      <trkpt lat="44.02818" lon="6.01855">
        <ele>663.62</ele>
        <time>2015-05-27T10:59:30Z</time>
      </trkpt>
      <trkpt lat="44.02822" lon="6.0185">
        <ele>662.94</ele>
        <time>2015-05-27T10:59:35Z</time>
      </trkpt>
      <trkpt lat="44.02826" lon="6.01845">
        <ele>662.04</ele>
        <time>2015-05-27T10:59:41Z</time>
      </trkpt>
      <trkpt lat="44.0283" lon="6.0184">
        <ele>661.09</ele>
        <time>2015-05-27T10:59:48Z</time>
      </trkpt>
      <trkpt lat="44.02835" lon="6.01833">
        <ele>660.19</ele>
        <time>2015-05-27T11:00:00Z</time>
      </trkpt>
      <trkpt lat="44.02839" lon="6.01827">
        <ele>658.99</ele>
        <time>2015-05-27T11:00:11Z</time>
      </trkpt>
      <trkpt lat="44.02842" lon="6.01819">
        <ele>659.49</ele>
        <time>2015-05-27T11:00:22Z</time>
      </trkpt>
      <trkpt lat="44.02845" lon="6.01814">
        <ele>659.44</ele>
        <time>2015-05-27T11:00:28Z</time>
      </trkpt>
      <trkpt lat="44.0285" lon="6.01808">
        <ele>659.39</ele>
        <time>2015-05-27T11:00:42Z</time>
      </trkpt>
      <trkpt lat="44.02854" lon="6.01803">
        <ele>657.91</ele>
        <time>2015-05-27T11:00:48Z</time>
      </trkpt>
      <trkpt lat="44.02859" lon="6.018">
        <ele>657.75</ele>
        <time>2015-05-27T11:00:53Z</time>
      </trkpt>
      <trkpt lat="44.02863" lon="6.01796">
        <ele>657.16</ele>
        <time>2015-05-27T11:00:59Z</time>
      </trkpt>
      <trkpt lat="44.02866" lon="6.01791">
        <ele>656.56</ele>
        <time>2015-05-27T11:01:04Z</time>
      </trkpt>
      <trkpt lat="44.02867" lon="6.01785">
        <ele>655.89</ele>
        <time>2015-05-27T11:01:10Z</time>
      </trkpt>
      <trkpt lat="44.02869" lon="6.01779">
        <ele>654.42</ele>
        <time>2015-05-27T11:01:16Z</time>
      </trkpt>
      <trkpt lat="44.02872" lon="6.01773">
        <ele>651.6</ele>
        <time>2015-05-27T11:01:22Z</time>
      </trkpt>
      <trkpt lat="44.02874" lon="6.01767">
        <ele>647.33</ele>
        <time>2015-05-27T11:01:28Z</time>
      </trkpt>
      <trkpt lat="44.02877" lon="6.01758">
        <ele>645.35</ele>
        <time>2015-05-27T11:01:37Z</time>
      </trkpt>
      <trkpt lat="44.02876" lon="6.01751">
        <ele>643.42</ele>
        <time>2015-05-27T11:01:43Z</time>
      </trkpt>
      <trkpt lat="44.02875" lon="6.0174">
        <ele>640.65</ele>
        <time>2015-05-27T11:01:54Z</time>
      </trkpt>
      <trkpt lat="44.02874" lon="6.01733">
        <ele>639.08</ele>
        <time>2015-05-27T11:02:01Z</time>
      </trkpt>
      <trkpt lat="44.02873" lon="6.01726">
        <ele>637.43</ele>
        <time>2015-05-27T11:02:08Z</time>
      </trkpt>
      <trkpt lat="44.02872" lon="6.01719">
        <ele>636.31</ele>
        <time>2015-05-27T11:02:15Z</time>
      </trkpt>
      <trkpt lat="44.02869" lon="6.01711">
        <ele>635.24</ele>
        <time>2015-05-27T11:02:26Z</time>
      </trkpt>
      <trkpt lat="44.02868" lon="6.01702">
        <ele>632.25</ele>
        <time>2015-05-27T11:02:35Z</time>
      </trkpt>
      <trkpt lat="44.02865" lon="6.01694">
        <ele>630.04</ele>
        <time>2015-05-27T11:02:45Z</time>
      </trkpt>
      <trkpt lat="44.02863" lon="6.01688">
        <ele>627.65</ele>
        <time>2015-05-27T11:02:50Z</time>
      </trkpt>
      <trkpt lat="44.02861" lon="6.01681">
        <ele>625.7</ele>
        <time>2015-05-27T11:02:55Z</time>
      </trkpt>
      <trkpt lat="44.02859" lon="6.01671">
        <ele>624.15</ele>
        <time>2015-05-27T11:03:02Z</time>
      </trkpt>
      <trkpt lat="44.0286" lon="6.01664">
        <ele>622.07</ele>
        <time>2015-05-27T11:03:11Z</time>
      </trkpt>
      <trkpt lat="44.02866" lon="6.01661">
        <ele>621</ele>
        <time>2015-05-27T11:03:14Z</time>
      </trkpt>
      <trkpt lat="44.02868" lon="6.01655">
        <ele>620.86</ele>
        <time>2015-05-27T11:03:18Z</time>
      </trkpt>
      <trkpt lat="44.02872" lon="6.01651">
        <ele>620.81</ele>
        <time>2015-05-27T11:03:21Z</time>
      </trkpt>
      <trkpt lat="44.02874" lon="6.0164">
        <ele>620.5</ele>
        <time>2015-05-27T11:03:27Z</time>
      </trkpt>
      <trkpt lat="44.02871" lon="6.0163">
        <ele>620.69</ele>
        <time>2015-05-27T11:03:35Z</time>
      </trkpt>
      <trkpt lat="44.02866" lon="6.01622">
        <ele>622.6</ele>
        <time>2015-05-27T11:03:41Z</time>
      </trkpt>
      <trkpt lat="44.02866" lon="6.0161">
        <ele>623.13</ele>
        <time>2015-05-27T11:03:48Z</time>
      </trkpt>
      <trkpt lat="44.02867" lon="6.01601">
        <ele>623.29</ele>
        <time>2015-05-27T11:03:57Z</time>
      </trkpt>
      <trkpt lat="44.02867" lon="6.01594">
        <ele>623.85</ele>
        <time>2015-05-27T11:04:01Z</time>
      </trkpt>
      <trkpt lat="44.02868" lon="6.01587">
        <ele>624.15</ele>
        <time>2015-05-27T11:04:05Z</time>
      </trkpt>
      <trkpt lat="44.02868" lon="6.01576">
        <ele>624.59</ele>
        <time>2015-05-27T11:04:14Z</time>
      </trkpt>
      <trkpt lat="44.02868" lon="6.01569">
        <ele>624.89</ele>
        <time>2015-05-27T11:04:20Z</time>
      </trkpt>
      <trkpt lat="44.0287" lon="6.01559">
        <ele>624.94</ele>
        <time>2015-05-27T11:04:30Z</time>
      </trkpt>
      <trkpt lat="44.02871" lon="6.01553">
        <ele>623.95</ele>
        <time>2015-05-27T11:04:35Z</time>
      </trkpt>
      <trkpt lat="44.02874" lon="6.01548">
        <ele>623.64</ele>
        <time>2015-05-27T11:04:38Z</time>
      </trkpt>
      <trkpt lat="44.02878" lon="6.01543">
        <ele>623.38</ele>
        <time>2015-05-27T11:04:41Z</time>
      </trkpt>
      <trkpt lat="44.02882" lon="6.01531">
        <ele>622.84</ele>
        <time>2015-05-27T11:04:50Z</time>
      </trkpt>
      <trkpt lat="44.02885" lon="6.01526">
        <ele>622.35</ele>
        <time>2015-05-27T11:04:54Z</time>
      </trkpt>
      <trkpt lat="44.02888" lon="6.01518">
        <ele>622.04</ele>
        <time>2015-05-27T11:05:02Z</time>
      </trkpt>
      <trkpt lat="44.02887" lon="6.01507">
        <ele>620.96</ele>
        <time>2015-05-27T11:05:09Z</time>
      </trkpt>
      <trkpt lat="44.02886" lon="6.015">
        <ele>620.62</ele>
        <time>2015-05-27T11:05:13Z</time>
      </trkpt>
      <trkpt lat="44.02887" lon="6.01493">
        <ele>620.53</ele>
        <time>2015-05-27T11:05:17Z</time>
      </trkpt>
      <trkpt lat="44.02888" lon="6.01487">
        <ele>621.04</ele>
        <time>2015-05-27T11:05:22Z</time>
      </trkpt>
      <trkpt lat="44.02889" lon="6.0148">
        <ele>621.14</ele>
        <time>2015-05-27T11:05:27Z</time>
      </trkpt>
      <trkpt lat="44.02891" lon="6.0147">
        <ele>620.35</ele>
        <time>2015-05-27T11:05:34Z</time>
      </trkpt>
      <trkpt lat="44.02893" lon="6.01464">
        <ele>620.45</ele>
        <time>2015-05-27T11:05:38Z</time>
      </trkpt>
      <trkpt lat="44.02896" lon="6.01458">
        <ele>620.52</ele>
        <time>2015-05-27T11:05:42Z</time>
      </trkpt>
      <trkpt lat="44.02899" lon="6.01453">
        <ele>620.6</ele>
        <time>2015-05-27T11:05:46Z</time>
      </trkpt>
      <trkpt lat="44.02901" lon="6.01447">
        <ele>620.53</ele>
        <time>2015-05-27T11:05:50Z</time>
      </trkpt>
      <trkpt lat="44.02904" lon="6.01441">
        <ele>620.8</ele>
        <time>2015-05-27T11:05:55Z</time>
      </trkpt>
      <trkpt lat="44.02907" lon="6.01436">
        <ele>620.81</ele>
        <time>2015-05-27T11:05:59Z</time>
      </trkpt>
      <trkpt lat="44.0291" lon="6.01431">
        <ele>621.13</ele>
        <time>2015-05-27T11:06:02Z</time>
      </trkpt>
      <trkpt lat="44.02912" lon="6.01425">
        <ele>621.31</ele>
        <time>2015-05-27T11:06:06Z</time>
      </trkpt>
      <trkpt lat="44.02915" lon="6.0142">
        <ele>621.36</ele>
        <time>2015-05-27T11:06:10Z</time>
      </trkpt>
      <trkpt lat="44.02918" lon="6.01414">
        <ele>621.17</ele>
        <time>2015-05-27T11:06:15Z</time>
      </trkpt>
      <trkpt lat="44.02922" lon="6.01409">
        <ele>620.24</ele>
        <time>2015-05-27T11:06:22Z</time>
      </trkpt>
      <trkpt lat="44.02927" lon="6.01405">
        <ele>618.69</ele>
        <time>2015-05-27T11:06:25Z</time>
      </trkpt>
      <trkpt lat="44.0293" lon="6.01401">
        <ele>617.99</ele>
        <time>2015-05-27T11:06:28Z</time>
      </trkpt>
      <trkpt lat="44.02934" lon="6.01396">
        <ele>617.89</ele>
        <time>2015-05-27T11:06:33Z</time>
      </trkpt>
      <trkpt lat="44.02938" lon="6.01392">
        <ele>617.68</ele>
        <time>2015-05-27T11:06:37Z</time>
      </trkpt>
      <trkpt lat="44.0294" lon="6.01385">
        <ele>617.19</ele>
        <time>2015-05-27T11:06:42Z</time>
      </trkpt>
      <trkpt lat="44.02944" lon="6.01379">
        <ele>616.27</ele>
        <time>2015-05-27T11:06:47Z</time>
      </trkpt>
      <trkpt lat="44.02948" lon="6.01374">
        <ele>615.49</ele>
        <time>2015-05-27T11:06:51Z</time>
      </trkpt>
      <trkpt lat="44.02952" lon="6.01368">
        <ele>614.78</ele>
        <time>2015-05-27T11:06:55Z</time>
      </trkpt>
      <trkpt lat="44.02955" lon="6.01362">
        <ele>614.54</ele>
        <time>2015-05-27T11:06:59Z</time>
      </trkpt>
      <trkpt lat="44.02957" lon="6.01355">
        <ele>614.96</ele>
        <time>2015-05-27T11:07:04Z</time>
      </trkpt>
      <trkpt lat="44.0296" lon="6.01349">
        <ele>614.91</ele>
        <time>2015-05-27T11:07:09Z</time>
      </trkpt>
      <trkpt lat="44.02962" lon="6.01343">
        <ele>615.01</ele>
        <time>2015-05-27T11:07:15Z</time>
      </trkpt>
      <trkpt lat="44.02967" lon="6.01335">
        <ele>614.5</ele>
        <time>2015-05-27T11:07:23Z</time>
      </trkpt>
      <trkpt lat="44.0297" lon="6.01329">
        <ele>613.35</ele>
        <time>2015-05-27T11:07:27Z</time>
      </trkpt>
      <trkpt lat="44.02973" lon="6.01323">
        <ele>612.66</ele>
        <time>2015-05-27T11:07:30Z</time>
      </trkpt>
      <trkpt lat="44.02976" lon="6.01316">
        <ele>611.81</ele>
        <time>2015-05-27T11:07:33Z</time>
      </trkpt>
      <trkpt lat="44.02978" lon="6.0131">
        <ele>610.98</ele>
        <time>2015-05-27T11:07:36Z</time>
      </trkpt>
      <trkpt lat="44.02979" lon="6.01304">
        <ele>610.73</ele>
        <time>2015-05-27T11:07:39Z</time>
      </trkpt>
      <trkpt lat="44.0298" lon="6.01297">
        <ele>610.58</ele>
        <time>2015-05-27T11:07:43Z</time>
      </trkpt>
      <trkpt lat="44.02982" lon="6.01286">
        <ele>610.24</ele>
        <time>2015-05-27T11:07:53Z</time>
      </trkpt>
      <trkpt lat="44.02983" lon="6.01277">
        <ele>608.84</ele>
        <time>2015-05-27T11:08:03Z</time>
      </trkpt>
      <trkpt lat="44.02978" lon="6.01274">
        <ele>609.59</ele>
        <time>2015-05-27T11:08:07Z</time>
      </trkpt>
      <trkpt lat="44.02975" lon="6.01269">
        <ele>610.76</ele>
        <time>2015-05-27T11:08:12Z</time>
      </trkpt>
      <trkpt lat="44.02977" lon="6.01262">
        <ele>611.52</ele>
        <time>2015-05-27T11:08:17Z</time>
      </trkpt>
      <trkpt lat="44.02979" lon="6.01255">
        <ele>612.16</ele>
        <time>2015-05-27T11:08:22Z</time>
      </trkpt>
      <trkpt lat="44.02983" lon="6.01252">
        <ele>612.26</ele>
        <time>2015-05-27T11:08:27Z</time>
      </trkpt>
      <trkpt lat="44.02988" lon="6.01248">
        <ele>612.12</ele>
        <time>2015-05-27T11:08:32Z</time>
      </trkpt>
      <trkpt lat="44.02993" lon="6.01246">
        <ele>612.52</ele>
        <time>2015-05-27T11:08:37Z</time>
      </trkpt>
      <trkpt lat="44.02997" lon="6.01242">
        <ele>612.4</ele>
        <time>2015-05-27T11:08:42Z</time>
      </trkpt>
      <trkpt lat="44.03002" lon="6.0124">
        <ele>612.13</ele>
        <time>2015-05-27T11:08:46Z</time>
      </trkpt>
      <trkpt lat="44.03006" lon="6.01237">
        <ele>612</ele>
        <time>2015-05-27T11:08:50Z</time>
      </trkpt>
      <trkpt lat="44.0301" lon="6.01234">
        <ele>611.96</ele>
        <time>2015-05-27T11:08:54Z</time>
      </trkpt>
      <trkpt lat="44.03014" lon="6.01231">
        <ele>612.27</ele>
        <time>2015-05-27T11:08:58Z</time>
      </trkpt>
      <trkpt lat="44.03018" lon="6.01227">
        <ele>612.43</ele>
        <time>2015-05-27T11:09:02Z</time>
      </trkpt>
      <trkpt lat="44.03022" lon="6.01223">
        <ele>612.21</ele>
        <time>2015-05-27T11:09:06Z</time>
      </trkpt>
      <trkpt lat="44.03027" lon="6.0122">
        <ele>612.05</ele>
        <time>2015-05-27T11:09:11Z</time>
      </trkpt>
      <trkpt lat="44.03032" lon="6.01215">
        <ele>612.32</ele>
        <time>2015-05-27T11:09:16Z</time>
      </trkpt>
      <trkpt lat="44.03035" lon="6.0121">
        <ele>612.63</ele>
        <time>2015-05-27T11:09:21Z</time>
      </trkpt>
      <trkpt lat="44.03038" lon="6.01205">
        <ele>612.84</ele>
        <time>2015-05-27T11:09:26Z</time>
      </trkpt>
      <trkpt lat="44.03042" lon="6.012">
        <ele>613.03</ele>
        <time>2015-05-27T11:09:32Z</time>
      </trkpt>
      <trkpt lat="44.03045" lon="6.01194">
        <ele>613</ele>
        <time>2015-05-27T11:09:38Z</time>
      </trkpt>
      <trkpt lat="44.03047" lon="6.01188">
        <ele>612.43</ele>
        <time>2015-05-27T11:09:43Z</time>
      </trkpt>
      <trkpt lat="44.03051" lon="6.0118">
        <ele>611.3</ele>
        <time>2015-05-27T11:09:52Z</time>
      </trkpt>
      <trkpt lat="44.03055" lon="6.01175">
        <ele>610.67</ele>
        <time>2015-05-27T11:09:57Z</time>
      </trkpt>
      <trkpt lat="44.03058" lon="6.01169">
        <ele>610.54</ele>
        <time>2015-05-27T11:10:02Z</time>
      </trkpt>
      <trkpt lat="44.03062" lon="6.01164">
        <ele>610.31</ele>
        <time>2015-05-27T11:10:07Z</time>
      </trkpt>
      <trkpt lat="44.03066" lon="6.0116">
        <ele>610.1</ele>
        <time>2015-05-27T11:10:12Z</time>
      </trkpt>
      <trkpt lat="44.0307" lon="6.01157">
        <ele>609.84</ele>
        <time>2015-05-27T11:10:17Z</time>
      </trkpt>
      <trkpt lat="44.03074" lon="6.01154">
        <ele>609.62</ele>
        <time>2015-05-27T11:10:22Z</time>
      </trkpt>
      <trkpt lat="44.0308" lon="6.01145">
        <ele>609.39</ele>
        <time>2015-05-27T11:10:48Z</time>
      </trkpt>
      <trkpt lat="44.03083" lon="6.01141">
        <ele>609.82</ele>
        <time>2015-05-27T11:10:54Z</time>
      </trkpt>
      <trkpt lat="44.03087" lon="6.01135">
        <ele>609.86</ele>
        <time>2015-05-27T11:10:58Z</time>
      </trkpt>
      <trkpt lat="44.03089" lon="6.01129">
        <ele>610.01</ele>
        <time>2015-05-27T11:11:02Z</time>
      </trkpt>
      <trkpt lat="44.03089" lon="6.01122">
        <ele>610.79</ele>
        <time>2015-05-27T11:11:05Z</time>
      </trkpt>
      <trkpt lat="44.03091" lon="6.01115">
        <ele>611.77</ele>
        <time>2015-05-27T11:11:09Z</time>
      </trkpt>
      <trkpt lat="44.0309" lon="6.01108">
        <ele>612.51</ele>
        <time>2015-05-27T11:11:13Z</time>
      </trkpt>
      <trkpt lat="44.0309" lon="6.01102">
        <ele>613.67</ele>
        <time>2015-05-27T11:11:17Z</time>
      </trkpt>
      <trkpt lat="44.03089" lon="6.01096">
        <ele>614.8</ele>
        <time>2015-05-27T11:11:21Z</time>
      </trkpt>
      <trkpt lat="44.03089" lon="6.01087">
        <ele>615.56</ele>
        <time>2015-05-27T11:11:25Z</time>
      </trkpt>
      <trkpt lat="44.03093" lon="6.01082">
        <ele>615.69</ele>
        <time>2015-05-27T11:11:29Z</time>
      </trkpt>
      <trkpt lat="44.03094" lon="6.01076">
        <ele>615.9</ele>
        <time>2015-05-27T11:11:32Z</time>
      </trkpt>
      <trkpt lat="44.03094" lon="6.01069">
        <ele>616.65</ele>
        <time>2015-05-27T11:11:37Z</time>
      </trkpt>
      <trkpt lat="44.03096" lon="6.01062">
        <ele>616.79</ele>
        <time>2015-05-27T11:11:41Z</time>
      </trkpt>
      <trkpt lat="44.03097" lon="6.01055">
        <ele>615.95</ele>
        <time>2015-05-27T11:11:47Z</time>
      </trkpt>
      <trkpt lat="44.03097" lon="6.01048">
        <ele>615.4</ele>
        <time>2015-05-27T11:11:52Z</time>
      </trkpt>
      <trkpt lat="44.03097" lon="6.01041">
        <ele>615.34</ele>
        <time>2015-05-27T11:11:57Z</time>
      </trkpt>
      <trkpt lat="44.03099" lon="6.01035">
        <ele>616.39</ele>
        <time>2015-05-27T11:12:28Z</time>
      </trkpt>
      <trkpt lat="44.03099" lon="6.01028">
        <ele>616.53</ele>
        <time>2015-05-27T11:12:33Z</time>
      </trkpt>
      <trkpt lat="44.031" lon="6.01021">
        <ele>616.86</ele>
        <time>2015-05-27T11:12:38Z</time>
      </trkpt>
      <trkpt lat="44.031" lon="6.01014">
        <ele>617.19</ele>
        <time>2015-05-27T11:12:44Z</time>
      </trkpt>
      <trkpt lat="44.03097" lon="6.01007">
        <ele>617.05</ele>
        <time>2015-05-27T11:12:53Z</time>
      </trkpt>
      <trkpt lat="44.03096" lon="6.00996">
        <ele>616.19</ele>
        <time>2015-05-27T11:13:15Z</time>
      </trkpt>
      <trkpt lat="44.03093" lon="6.00992">
        <ele>615.79</ele>
        <time>2015-05-27T11:13:20Z</time>
      </trkpt>
      <trkpt lat="44.03089" lon="6.00988">
        <ele>615.76</ele>
        <time>2015-05-27T11:13:24Z</time>
      </trkpt>
      <trkpt lat="44.03085" lon="6.00983">
        <ele>614.4</ele>
        <time>2015-05-27T11:13:29Z</time>
      </trkpt>
      <trkpt lat="44.03082" lon="6.00977">
        <ele>612.65</ele>
        <time>2015-05-27T11:13:34Z</time>
      </trkpt>
      <trkpt lat="44.03079" lon="6.00972">
        <ele>612.38</ele>
        <time>2015-05-27T11:13:38Z</time>
      </trkpt>
      <trkpt lat="44.03077" lon="6.00967">
        <ele>611.59</ele>
        <time>2015-05-27T11:13:44Z</time>
      </trkpt>
      <trkpt lat="44.03073" lon="6.0096">
        <ele>610.89</ele>
        <time>2015-05-27T11:13:54Z</time>
      </trkpt>
      <trkpt lat="44.03071" lon="6.00954">
        <ele>610.23</ele>
        <time>2015-05-27T11:13:58Z</time>
      </trkpt>
      <trkpt lat="44.0307" lon="6.00945">
        <ele>609.69</ele>
        <time>2015-05-27T11:14:08Z</time>
      </trkpt>
      <trkpt lat="44.0307" lon="6.00938">
        <ele>609.02</ele>
        <time>2015-05-27T11:14:13Z</time>
      </trkpt>
      <trkpt lat="44.03072" lon="6.00931">
        <ele>608.12</ele>
        <time>2015-05-27T11:14:19Z</time>
      </trkpt>
      <trkpt lat="44.03075" lon="6.00926">
        <ele>605.68</ele>
        <time>2015-05-27T11:14:26Z</time>
      </trkpt>
      <trkpt lat="44.03078" lon="6.00921">
        <ele>604.01</ele>
        <time>2015-05-27T11:14:33Z</time>
      </trkpt>
      <trkpt lat="44.03082" lon="6.00916">
        <ele>603.07</ele>
        <time>2015-05-27T11:14:39Z</time>
      </trkpt>
      <trkpt lat="44.03085" lon="6.00909">
        <ele>601.54</ele>
        <time>2015-05-27T11:14:48Z</time>
      </trkpt>
      <trkpt lat="44.03088" lon="6.00902">
        <ele>599.57</ele>
        <time>2015-05-27T11:14:52Z</time>
      </trkpt>
      <trkpt lat="44.0309" lon="6.00896">
        <ele>597.6</ele>
        <time>2015-05-27T11:14:57Z</time>
      </trkpt>
      <trkpt lat="44.03093" lon="6.0089">
        <ele>596.03</ele>
        <time>2015-05-27T11:15:02Z</time>
      </trkpt>
      <trkpt lat="44.03095" lon="6.00884">
        <ele>595.67</ele>
        <time>2015-05-27T11:15:06Z</time>
      </trkpt>
      <trkpt lat="44.03096" lon="6.00877">
        <ele>594.49</ele>
        <time>2015-05-27T11:15:10Z</time>
      </trkpt>
      <trkpt lat="44.03097" lon="6.0087">
        <ele>593.12</ele>
        <time>2015-05-27T11:15:15Z</time>
      </trkpt>
      <trkpt lat="44.03097" lon="6.00863">
        <ele>591.63</ele>
        <time>2015-05-27T11:15:21Z</time>
      </trkpt>
      <trkpt lat="44.03097" lon="6.00856">
        <ele>590.89</ele>
        <time>2015-05-27T11:15:25Z</time>
      </trkpt>
      <trkpt lat="44.03099" lon="6.00848">
        <ele>590.07</ele>
        <time>2015-05-27T11:15:30Z</time>
      </trkpt>
      <trkpt lat="44.03101" lon="6.00842">
        <ele>589.44</ele>
        <time>2015-05-27T11:15:33Z</time>
      </trkpt>
      <trkpt lat="44.03101" lon="6.00836">
        <ele>588.76</ele>
        <time>2015-05-27T11:15:37Z</time>
      </trkpt>
      <trkpt lat="44.03101" lon="6.00828">
        <ele>588.53</ele>
        <time>2015-05-27T11:15:42Z</time>
      </trkpt>
      <trkpt lat="44.03102" lon="6.00821">
        <ele>588.44</ele>
        <time>2015-05-27T11:15:47Z</time>
      </trkpt>
      <trkpt lat="44.03103" lon="6.00813">
        <ele>588.27</ele>
        <time>2015-05-27T11:15:52Z</time>
      </trkpt>
      <trkpt lat="44.03102" lon="6.00807">
        <ele>588.54</ele>
        <time>2015-05-27T11:15:56Z</time>
      </trkpt>
      <trkpt lat="44.03102" lon="6.00801">
        <ele>588.61</ele>
        <time>2015-05-27T11:16:01Z</time>
      </trkpt>
      <trkpt lat="44.03103" lon="6.00794">
        <ele>588.4</ele>
        <time>2015-05-27T11:16:06Z</time>
      </trkpt>
      <trkpt lat="44.03105" lon="6.00788">
        <ele>588.27</ele>
        <time>2015-05-27T11:16:12Z</time>
      </trkpt>
      <trkpt lat="44.03108" lon="6.00781">
        <ele>589.36</ele>
        <time>2015-05-27T11:16:19Z</time>
      </trkpt>
      <trkpt lat="44.0311" lon="6.00774">
        <ele>589.78</ele>
        <time>2015-05-27T11:16:25Z</time>
      </trkpt>
      <trkpt lat="44.03112" lon="6.00768">
        <ele>590.14</ele>
        <time>2015-05-27T11:16:29Z</time>
      </trkpt>
      <trkpt lat="44.03113" lon="6.00762">
        <ele>591.24</ele>
        <time>2015-05-27T11:16:33Z</time>
      </trkpt>
      <trkpt lat="44.03115" lon="6.00754">
        <ele>591.6</ele>
        <time>2015-05-27T11:16:37Z</time>
      </trkpt>
      <trkpt lat="44.03117" lon="6.00748">
        <ele>591.87</ele>
        <time>2015-05-27T11:16:41Z</time>
      </trkpt>
      <trkpt lat="44.03118" lon="6.00741">
        <ele>592.12</ele>
        <time>2015-05-27T11:16:45Z</time>
      </trkpt>
      <trkpt lat="44.0312" lon="6.00735">
        <ele>592.67</ele>
        <time>2015-05-27T11:16:49Z</time>
      </trkpt>
      <trkpt lat="44.03122" lon="6.00729">
        <ele>593.37</ele>
        <time>2015-05-27T11:16:53Z</time>
      </trkpt>
      <trkpt lat="44.03124" lon="6.00723">
        <ele>593.69</ele>
        <time>2015-05-27T11:16:58Z</time>
      </trkpt>
      <trkpt lat="44.03127" lon="6.00716">
        <ele>593.97</ele>
        <time>2015-05-27T11:17:03Z</time>
      </trkpt>
      <trkpt lat="44.03129" lon="6.00711">
        <ele>594.18</ele>
        <time>2015-05-27T11:17:07Z</time>
      </trkpt>
      <trkpt lat="44.03131" lon="6.00704">
        <ele>594.3</ele>
        <time>2015-05-27T11:17:11Z</time>
      </trkpt>
      <trkpt lat="44.03131" lon="6.00697">
        <ele>594.29</ele>
        <time>2015-05-27T11:17:16Z</time>
      </trkpt>
      <trkpt lat="44.03131" lon="6.0069">
        <ele>595.33</ele>
        <time>2015-05-27T11:17:21Z</time>
      </trkpt>
      <trkpt lat="44.03131" lon="6.00682">
        <ele>596.07</ele>
        <time>2015-05-27T11:17:25Z</time>
      </trkpt>
      <trkpt lat="44.03133" lon="6.00675">
        <ele>597.07</ele>
        <time>2015-05-27T11:17:31Z</time>
      </trkpt>
      <trkpt lat="44.03133" lon="6.00668">
        <ele>597.93</ele>
        <time>2015-05-27T11:17:36Z</time>
      </trkpt>
      <trkpt lat="44.03134" lon="6.00662">
        <ele>598.67</ele>
        <time>2015-05-27T11:17:40Z</time>
      </trkpt>
      <trkpt lat="44.03135" lon="6.00655">
        <ele>599.49</ele>
        <time>2015-05-27T11:17:44Z</time>
      </trkpt>
      <trkpt lat="44.03136" lon="6.00648">
        <ele>600.11</ele>
        <time>2015-05-27T11:17:49Z</time>
      </trkpt>
      <trkpt lat="44.03137" lon="6.00641">
        <ele>599.86</ele>
        <time>2015-05-27T11:17:55Z</time>
      </trkpt>
      <trkpt lat="44.03138" lon="6.00634">
        <ele>599.85</ele>
        <time>2015-05-27T11:18:00Z</time>
      </trkpt>
      <trkpt lat="44.03141" lon="6.00627">
        <ele>600.29</ele>
        <time>2015-05-27T11:18:05Z</time>
      </trkpt>
      <trkpt lat="44.03143" lon="6.00621">
        <ele>600.29</ele>
        <time>2015-05-27T11:18:10Z</time>
      </trkpt>
      <trkpt lat="44.03146" lon="6.00614">
        <ele>600.76</ele>
        <time>2015-05-27T11:18:14Z</time>
      </trkpt>
      <trkpt lat="44.03149" lon="6.00607">
        <ele>600.67</ele>
        <time>2015-05-27T11:18:18Z</time>
      </trkpt>
      <trkpt lat="44.03152" lon="6.006">
        <ele>600.69</ele>
        <time>2015-05-27T11:18:22Z</time>
      </trkpt>
      <trkpt lat="44.03154" lon="6.00593">
        <ele>600.97</ele>
        <time>2015-05-27T11:18:26Z</time>
      </trkpt>
      <trkpt lat="44.03156" lon="6.00587">
        <ele>600.94</ele>
        <time>2015-05-27T11:18:30Z</time>
      </trkpt>
      <trkpt lat="44.03159" lon="6.00581">
        <ele>601.25</ele>
        <time>2015-05-27T11:18:34Z</time>
      </trkpt>
      <trkpt lat="44.03161" lon="6.00574">
        <ele>601.67</ele>
        <time>2015-05-27T11:18:38Z</time>
      </trkpt>
      <trkpt lat="44.03163" lon="6.00567">
        <ele>602.24</ele>
        <time>2015-05-27T11:18:43Z</time>
      </trkpt>
      <trkpt lat="44.03165" lon="6.00561">
        <ele>602.39</ele>
        <time>2015-05-27T11:18:48Z</time>
      </trkpt>
      <trkpt lat="44.03166" lon="6.00554">
        <ele>602.58</ele>
        <time>2015-05-27T11:18:52Z</time>
      </trkpt>
      <trkpt lat="44.03166" lon="6.00547">
        <ele>603.13</ele>
        <time>2015-05-27T11:18:56Z</time>
      </trkpt>
      <trkpt lat="44.03167" lon="6.0054">
        <ele>603.85</ele>
        <time>2015-05-27T11:19:00Z</time>
      </trkpt>
      <trkpt lat="44.03169" lon="6.00533">
        <ele>604.37</ele>
        <time>2015-05-27T11:19:04Z</time>
      </trkpt>
      <trkpt lat="44.03169" lon="6.00527">
        <ele>605.19</ele>
        <time>2015-05-27T11:19:08Z</time>
      </trkpt>
      <trkpt lat="44.03169" lon="6.0052">
        <ele>605.45</ele>
        <time>2015-05-27T11:19:12Z</time>
      </trkpt>
      <trkpt lat="44.03171" lon="6.00513">
        <ele>606.24</ele>
        <time>2015-05-27T11:19:18Z</time>
      </trkpt>
      <trkpt lat="44.03171" lon="6.00507">
        <ele>606.58</ele>
        <time>2015-05-27T11:19:22Z</time>
      </trkpt>
      <trkpt lat="44.03173" lon="6.005">
        <ele>606.7</ele>
        <time>2015-05-27T11:19:27Z</time>
      </trkpt>
      <trkpt lat="44.03174" lon="6.00494">
        <ele>606.93</ele>
        <time>2015-05-27T11:19:31Z</time>
      </trkpt>
      <trkpt lat="44.03172" lon="6.00486">
        <ele>607.14</ele>
        <time>2015-05-27T11:19:35Z</time>
      </trkpt>
      <trkpt lat="44.03172" lon="6.00479">
        <ele>607.05</ele>
        <time>2015-05-27T11:19:39Z</time>
      </trkpt>
      <trkpt lat="44.03172" lon="6.00472">
        <ele>606.81</ele>
        <time>2015-05-27T11:19:43Z</time>
      </trkpt>
      <trkpt lat="44.03171" lon="6.00465">
        <ele>606.07</ele>
        <time>2015-05-27T11:19:48Z</time>
      </trkpt>
      <trkpt lat="44.03169" lon="6.00458">
        <ele>605.96</ele>
        <time>2015-05-27T11:19:54Z</time>
      </trkpt>
      <trkpt lat="44.03168" lon="6.00451">
        <ele>605.41</ele>
        <time>2015-05-27T11:19:58Z</time>
      </trkpt>
      <trkpt lat="44.03165" lon="6.00445">
        <ele>605.04</ele>
        <time>2015-05-27T11:20:03Z</time>
      </trkpt>
      <trkpt lat="44.03162" lon="6.00439">
        <ele>604.76</ele>
        <time>2015-05-27T11:20:08Z</time>
      </trkpt>
      <trkpt lat="44.0316" lon="6.00433">
        <ele>604.82</ele>
        <time>2015-05-27T11:20:13Z</time>
      </trkpt>
      <trkpt lat="44.0316" lon="6.00426">
        <ele>605.32</ele>
        <time>2015-05-27T11:20:18Z</time>
      </trkpt>
      <trkpt lat="44.0316" lon="6.00419">
        <ele>605.21</ele>
        <time>2015-05-27T11:20:23Z</time>
      </trkpt>
      <trkpt lat="44.0316" lon="6.00413">
        <ele>605.18</ele>
        <time>2015-05-27T11:20:27Z</time>
      </trkpt>
      <trkpt lat="44.03161" lon="6.00406">
        <ele>605.38</ele>
        <time>2015-05-27T11:20:31Z</time>
      </trkpt>
      <trkpt lat="44.03162" lon="6.004">
        <ele>606.12</ele>
        <time>2015-05-27T11:20:34Z</time>
      </trkpt>
      <trkpt lat="44.03164" lon="6.00393">
        <ele>606.8</ele>
        <time>2015-05-27T11:20:38Z</time>
      </trkpt>
      <trkpt lat="44.03165" lon="6.00386">
        <ele>606.82</ele>
        <time>2015-05-27T11:20:42Z</time>
      </trkpt>
      <trkpt lat="44.03164" lon="6.00378">
        <ele>607.26</ele>
        <time>2015-05-27T11:20:46Z</time>
      </trkpt>
      <trkpt lat="44.03164" lon="6.00371">
        <ele>607.91</ele>
        <time>2015-05-27T11:20:50Z</time>
      </trkpt>
      <trkpt lat="44.03164" lon="6.00365">
        <ele>608.66</ele>
        <time>2015-05-27T11:20:54Z</time>
      </trkpt>
      <trkpt lat="44.03165" lon="6.00358">
        <ele>609.06</ele>
        <time>2015-05-27T11:20:59Z</time>
      </trkpt>
      <trkpt lat="44.03167" lon="6.00352">
        <ele>609.87</ele>
        <time>2015-05-27T11:21:04Z</time>
      </trkpt>
      <trkpt lat="44.0317" lon="6.00346">
        <ele>609.95</ele>
        <time>2015-05-27T11:21:09Z</time>
      </trkpt>
      <trkpt lat="44.03172" lon="6.00339">
        <ele>610.24</ele>
        <time>2015-05-27T11:21:13Z</time>
      </trkpt>
      <trkpt lat="44.03171" lon="6.00332">
        <ele>611.03</ele>
        <time>2015-05-27T11:21:18Z</time>
      </trkpt>
      <trkpt lat="44.03171" lon="6.00324">
        <ele>609.8</ele>
        <time>2015-05-27T11:21:21Z</time>
      </trkpt>
      <trkpt lat="44.03173" lon="6.00318">
        <ele>608.89</ele>
        <time>2015-05-27T11:21:24Z</time>
      </trkpt>
      <trkpt lat="44.03175" lon="6.00312">
        <ele>608.47</ele>
        <time>2015-05-27T11:21:27Z</time>
      </trkpt>
      <trkpt lat="44.03179" lon="6.00306">
        <ele>608.42</ele>
        <time>2015-05-27T11:21:31Z</time>
      </trkpt>
      <trkpt lat="44.03182" lon="6.00301">
        <ele>608.06</ele>
        <time>2015-05-27T11:21:36Z</time>
      </trkpt>
      <trkpt lat="44.03185" lon="6.00296">
        <ele>607.18</ele>
        <time>2015-05-27T11:21:41Z</time>
      </trkpt>
      <trkpt lat="44.03188" lon="6.0029">
        <ele>606.16</ele>
        <time>2015-05-27T11:21:45Z</time>
      </trkpt>
      <trkpt lat="44.0319" lon="6.00283">
        <ele>606.51</ele>
        <time>2015-05-27T11:21:50Z</time>
      </trkpt>
      <trkpt lat="44.03191" lon="6.00276">
        <ele>608.03</ele>
        <time>2015-05-27T11:21:55Z</time>
      </trkpt>
      <trkpt lat="44.03192" lon="6.0027">
        <ele>608.32</ele>
        <time>2015-05-27T11:21:59Z</time>
      </trkpt>
      <trkpt lat="44.03191" lon="6.00263">
        <ele>608.69</ele>
        <time>2015-05-27T11:22:04Z</time>
      </trkpt>
      <trkpt lat="44.03191" lon="6.00257">
        <ele>608.22</ele>
        <time>2015-05-27T11:22:09Z</time>
      </trkpt>
      <trkpt lat="44.03189" lon="6.00251">
        <ele>607.56</ele>
        <time>2015-05-27T11:22:15Z</time>
      </trkpt>
      <trkpt lat="44.03189" lon="6.00244">
        <ele>607.19</ele>
        <time>2015-05-27T11:22:21Z</time>
      </trkpt>
      <trkpt lat="44.03188" lon="6.00238">
        <ele>606.29</ele>
        <time>2015-05-27T11:22:26Z</time>
      </trkpt>
      <trkpt lat="44.03189" lon="6.00231">
        <ele>605.2</ele>
        <time>2015-05-27T11:22:31Z</time>
      </trkpt>
      <trkpt lat="44.03189" lon="6.00224">
        <ele>604.82</ele>
        <time>2015-05-27T11:22:35Z</time>
      </trkpt>
      <trkpt lat="44.0319" lon="6.00218">
        <ele>604.52</ele>
        <time>2015-05-27T11:22:39Z</time>
      </trkpt>
      <trkpt lat="44.03191" lon="6.0021">
        <ele>603.99</ele>
        <time>2015-05-27T11:22:43Z</time>
      </trkpt>
      <trkpt lat="44.03189" lon="6.00203">
        <ele>604.17</ele>
        <time>2015-05-27T11:22:47Z</time>
      </trkpt>
      <trkpt lat="44.03187" lon="6.00198">
        <ele>604.69</ele>
        <time>2015-05-27T11:22:51Z</time>
      </trkpt>
      <trkpt lat="44.03185" lon="6.00191">
        <ele>604.89</ele>
        <time>2015-05-27T11:22:56Z</time>
      </trkpt>
      <trkpt lat="44.03182" lon="6.00186">
        <ele>604.99</ele>
        <time>2015-05-27T11:22:59Z</time>
      </trkpt>
      <trkpt lat="44.0318" lon="6.0018">
        <ele>605.02</ele>
        <time>2015-05-27T11:23:02Z</time>
      </trkpt>
      <trkpt lat="44.03178" lon="6.00174">
        <ele>605.23</ele>
        <time>2015-05-27T11:23:06Z</time>
      </trkpt>
      <trkpt lat="44.03175" lon="6.00168">
        <ele>605.72</ele>
        <time>2015-05-27T11:23:10Z</time>
      </trkpt>
      <trkpt lat="44.03173" lon="6.00162">
        <ele>606.4</ele>
        <time>2015-05-27T11:23:14Z</time>
      </trkpt>
      <trkpt lat="44.03171" lon="6.00156">
        <ele>606.86</ele>
        <time>2015-05-27T11:23:18Z</time>
      </trkpt>
      <trkpt lat="44.0317" lon="6.00149">
        <ele>606.75</ele>
        <time>2015-05-27T11:23:22Z</time>
      </trkpt>
      <trkpt lat="44.03169" lon="6.00143">
        <ele>607.22</ele>
        <time>2015-05-27T11:23:26Z</time>
      </trkpt>
      <trkpt lat="44.03166" lon="6.00137">
        <ele>607.6</ele>
        <time>2015-05-27T11:23:31Z</time>
      </trkpt>
      <trkpt lat="44.03164" lon="6.00131">
        <ele>607.21</ele>
        <time>2015-05-27T11:23:36Z</time>
      </trkpt>
      <trkpt lat="44.03164" lon="6.00125">
        <ele>606.81</ele>
        <time>2015-05-27T11:23:40Z</time>
      </trkpt>
      <trkpt lat="44.03164" lon="6.00118">
        <ele>606.7</ele>
        <time>2015-05-27T11:23:44Z</time>
      </trkpt>
      <trkpt lat="44.03163" lon="6.00111">
        <ele>606.33</ele>
        <time>2015-05-27T11:23:49Z</time>
      </trkpt>
      <trkpt lat="44.03162" lon="6.00104">
        <ele>606.39</ele>
        <time>2015-05-27T11:23:54Z</time>
      </trkpt>
      <trkpt lat="44.03161" lon="6.00097">
        <ele>606.32</ele>
        <time>2015-05-27T11:23:59Z</time>
      </trkpt>
      <trkpt lat="44.0316" lon="6.00091">
        <ele>606.6</ele>
        <time>2015-05-27T11:24:03Z</time>
      </trkpt>
      <trkpt lat="44.03161" lon="6.00083">
        <ele>606.59</ele>
        <time>2015-05-27T11:24:08Z</time>
      </trkpt>
      <trkpt lat="44.03159" lon="6.00077">
        <ele>606.23</ele>
        <time>2015-05-27T11:24:14Z</time>
      </trkpt>
      <trkpt lat="44.0316" lon="6.0007">
        <ele>605.02</ele>
        <time>2015-05-27T11:24:19Z</time>
      </trkpt>
      <trkpt lat="44.03162" lon="6.00063">
        <ele>604.14</ele>
        <time>2015-05-27T11:24:24Z</time>
      </trkpt>
      <trkpt lat="44.03163" lon="6.00057">
        <ele>603.29</ele>
        <time>2015-05-27T11:24:29Z</time>
      </trkpt>
      <trkpt lat="44.03165" lon="6.00051">
        <ele>602.55</ele>
        <time>2015-05-27T11:24:35Z</time>
      </trkpt>
      <trkpt lat="44.03168" lon="6.00045">
        <ele>602.24</ele>
        <time>2015-05-27T11:24:40Z</time>
      </trkpt>
      <trkpt lat="44.03169" lon="6.00036">
        <ele>602.15</ele>
        <time>2015-05-27T11:24:50Z</time>
      </trkpt>
      <trkpt lat="44.03169" lon="6.00029">
        <ele>601.86</ele>
        <time>2015-05-27T11:24:56Z</time>
      </trkpt>
      <trkpt lat="44.03171" lon="6.0002">
        <ele>600.05</ele>
        <time>2015-05-27T11:25:05Z</time>
      </trkpt>
      <trkpt lat="44.03171" lon="6.0001">
        <ele>597.35</ele>
        <time>2015-05-27T11:25:14Z</time>
      </trkpt>
      <trkpt lat="44.03171" lon="6.00003">
        <ele>595.29</ele>
        <time>2015-05-27T11:25:20Z</time>
      </trkpt>
      <trkpt lat="44.03172" lon="5.99997">
        <ele>594.71</ele>
        <time>2015-05-27T11:25:25Z</time>
      </trkpt>
      <trkpt lat="44.03173" lon="5.99989">
        <ele>595.09</ele>
        <time>2015-05-27T11:25:29Z</time>
      </trkpt>
      <trkpt lat="44.03173" lon="5.99982">
        <ele>595.71</ele>
        <time>2015-05-27T11:25:33Z</time>
      </trkpt>
      <trkpt lat="44.03173" lon="5.99975">
        <ele>596.13</ele>
        <time>2015-05-27T11:25:36Z</time>
      </trkpt>
      <trkpt lat="44.03173" lon="5.99968">
        <ele>596.87</ele>
        <time>2015-05-27T11:25:40Z</time>
      </trkpt>
      <trkpt lat="44.03175" lon="5.99962">
        <ele>597.71</ele>
        <time>2015-05-27T11:25:43Z</time>
      </trkpt>
      <trkpt lat="44.03176" lon="5.99955">
        <ele>598.87</ele>
        <time>2015-05-27T11:25:47Z</time>
      </trkpt>
      <trkpt lat="44.03178" lon="5.99948">
        <ele>600.21</ele>
        <time>2015-05-27T11:25:51Z</time>
      </trkpt>
      <trkpt lat="44.03177" lon="5.99941">
        <ele>601.53</ele>
        <time>2015-05-27T11:25:56Z</time>
      </trkpt>
      <trkpt lat="44.03175" lon="5.99934">
        <ele>603.23</ele>
        <time>2015-05-27T11:26:01Z</time>
      </trkpt>
      <trkpt lat="44.03172" lon="5.99929">
        <ele>604.77</ele>
        <time>2015-05-27T11:26:05Z</time>
      </trkpt>
      <trkpt lat="44.0317" lon="5.99922">
        <ele>605.37</ele>
        <time>2015-05-27T11:26:08Z</time>
      </trkpt>
      <trkpt lat="44.03169" lon="5.99915">
        <ele>605.92</ele>
        <time>2015-05-27T11:26:12Z</time>
      </trkpt>
      <trkpt lat="44.03169" lon="5.99907">
        <ele>606.61</ele>
        <time>2015-05-27T11:26:16Z</time>
      </trkpt>
      <trkpt lat="44.03166" lon="5.99897">
        <ele>607.34</ele>
        <time>2015-05-27T11:26:28Z</time>
      </trkpt>
      <trkpt lat="44.03164" lon="5.9989">
        <ele>607.53</ele>
        <time>2015-05-27T11:26:33Z</time>
      </trkpt>
      <trkpt lat="44.03163" lon="5.9988">
        <ele>607.54</ele>
        <time>2015-05-27T11:26:41Z</time>
      </trkpt>
      <trkpt lat="44.03161" lon="5.99875">
        <ele>607.6</ele>
        <time>2015-05-27T11:26:46Z</time>
      </trkpt>
      <trkpt lat="44.0316" lon="5.99867">
        <ele>607.76</ele>
        <time>2015-05-27T11:26:52Z</time>
      </trkpt>
      <trkpt lat="44.0316" lon="5.9986">
        <ele>607.24</ele>
        <time>2015-05-27T11:26:58Z</time>
      </trkpt>
      <trkpt lat="44.0316" lon="5.99853">
        <ele>606.81</ele>
        <time>2015-05-27T11:27:04Z</time>
      </trkpt>
      <trkpt lat="44.03159" lon="5.99845">
        <ele>607.03</ele>
        <time>2015-05-27T11:27:09Z</time>
      </trkpt>
      <trkpt lat="44.03157" lon="5.99839">
        <ele>606.83</ele>
        <time>2015-05-27T11:27:12Z</time>
      </trkpt>
      <trkpt lat="44.03155" lon="5.99832">
        <ele>606.46</ele>
        <time>2015-05-27T11:27:14Z</time>
      </trkpt>
      <trkpt lat="44.03154" lon="5.99825">
        <ele>605.16</ele>
        <time>2015-05-27T11:27:17Z</time>
      </trkpt>
      <trkpt lat="44.03153" lon="5.99816">
        <ele>604.19</ele>
        <time>2015-05-27T11:27:21Z</time>
      </trkpt>
      <trkpt lat="44.03154" lon="5.99807">
        <ele>603.91</ele>
        <time>2015-05-27T11:27:26Z</time>
      </trkpt>
      <trkpt lat="44.03154" lon="5.99799">
        <ele>603.73</ele>
        <time>2015-05-27T11:27:30Z</time>
      </trkpt>
      <trkpt lat="44.03153" lon="5.99791">
        <ele>602.9</ele>
        <time>2015-05-27T11:27:34Z</time>
      </trkpt>
      <trkpt lat="44.03152" lon="5.99784">
        <ele>603.06</ele>
        <time>2015-05-27T11:27:38Z</time>
      </trkpt>
      <trkpt lat="44.03151" lon="5.99777">
        <ele>604.42</ele>
        <time>2015-05-27T11:27:43Z</time>
      </trkpt>
      <trkpt lat="44.03149" lon="5.99772">
        <ele>605.49</ele>
        <time>2015-05-27T11:27:48Z</time>
      </trkpt>
      <trkpt lat="44.03147" lon="5.99765">
        <ele>606.04</ele>
        <time>2015-05-27T11:27:54Z</time>
      </trkpt>
      <trkpt lat="44.03144" lon="5.99758">
        <ele>607.49</ele>
        <time>2015-05-27T11:27:59Z</time>
      </trkpt>
      <trkpt lat="44.03143" lon="5.99752">
        <ele>607.81</ele>
        <time>2015-05-27T11:28:03Z</time>
      </trkpt>
      <trkpt lat="44.03142" lon="5.99745">
        <ele>607.6</ele>
        <time>2015-05-27T11:28:08Z</time>
      </trkpt>
      <trkpt lat="44.03141" lon="5.99739">
        <ele>607.91</ele>
        <time>2015-05-27T11:28:11Z</time>
      </trkpt>
      <trkpt lat="44.03141" lon="5.99731">
        <ele>608.28</ele>
        <time>2015-05-27T11:28:15Z</time>
      </trkpt>
      <trkpt lat="44.03141" lon="5.99724">
        <ele>608.11</ele>
        <time>2015-05-27T11:28:19Z</time>
      </trkpt>
      <trkpt lat="44.0314" lon="5.99717">
        <ele>607.88</ele>
        <time>2015-05-27T11:28:24Z</time>
      </trkpt>
      <trkpt lat="44.0314" lon="5.9971">
        <ele>607.94</ele>
        <time>2015-05-27T11:28:29Z</time>
      </trkpt>
      <trkpt lat="44.03136" lon="5.99702">
        <ele>607.99</ele>
        <time>2015-05-27T11:28:38Z</time>
      </trkpt>
      <trkpt lat="44.03133" lon="5.99697">
        <ele>608.03</ele>
        <time>2015-05-27T11:28:42Z</time>
      </trkpt>
      <trkpt lat="44.03132" lon="5.9969">
        <ele>608.48</ele>
        <time>2015-05-27T11:28:46Z</time>
      </trkpt>
      <trkpt lat="44.03132" lon="5.99683">
        <ele>608.9</ele>
        <time>2015-05-27T11:28:51Z</time>
      </trkpt>
      <trkpt lat="44.03132" lon="5.99676">
        <ele>609.39</ele>
        <time>2015-05-27T11:28:56Z</time>
      </trkpt>
      <trkpt lat="44.03132" lon="5.9967">
        <ele>609.8</ele>
        <time>2015-05-27T11:29:01Z</time>
      </trkpt>
      <trkpt lat="44.03131" lon="5.99663">
        <ele>609.41</ele>
        <time>2015-05-27T11:29:06Z</time>
      </trkpt>
      <trkpt lat="44.03131" lon="5.99655">
        <ele>609.25</ele>
        <time>2015-05-27T11:29:11Z</time>
      </trkpt>
      <trkpt lat="44.03132" lon="5.99649">
        <ele>609.21</ele>
        <time>2015-05-27T11:29:15Z</time>
      </trkpt>
      <trkpt lat="44.03132" lon="5.99641">
        <ele>608.97</ele>
        <time>2015-05-27T11:29:19Z</time>
      </trkpt>
      <trkpt lat="44.03133" lon="5.99634">
        <ele>608.39</ele>
        <time>2015-05-27T11:29:23Z</time>
      </trkpt>
      <trkpt lat="44.03133" lon="5.99628">
        <ele>607.83</ele>
        <time>2015-05-27T11:29:27Z</time>
      </trkpt>
      <trkpt lat="44.03134" lon="5.99621">
        <ele>607.69</ele>
        <time>2015-05-27T11:29:31Z</time>
      </trkpt>
      <trkpt lat="44.03134" lon="5.99615">
        <ele>607.62</ele>
        <time>2015-05-27T11:29:36Z</time>
      </trkpt>
      <trkpt lat="44.03135" lon="5.99608">
        <ele>607.1</ele>
        <time>2015-05-27T11:29:41Z</time>
      </trkpt>
      <trkpt lat="44.03135" lon="5.99602">
        <ele>606.95</ele>
        <time>2015-05-27T11:29:45Z</time>
      </trkpt>
      <trkpt lat="44.03134" lon="5.99595">
        <ele>606.8</ele>
        <time>2015-05-27T11:29:50Z</time>
      </trkpt>
      <trkpt lat="44.03134" lon="5.99589">
        <ele>606.75</ele>
        <time>2015-05-27T11:29:54Z</time>
      </trkpt>
      <trkpt lat="44.03134" lon="5.99581">
        <ele>606.34</ele>
        <time>2015-05-27T11:29:59Z</time>
      </trkpt>
      <trkpt lat="44.03135" lon="5.99574">
        <ele>605.6</ele>
        <time>2015-05-27T11:30:04Z</time>
      </trkpt>
      <trkpt lat="44.03134" lon="5.99567">
        <ele>605.33</ele>
        <time>2015-05-27T11:30:09Z</time>
      </trkpt>
      <trkpt lat="44.03133" lon="5.99561">
        <ele>605.34</ele>
        <time>2015-05-27T11:30:14Z</time>
      </trkpt>
      <trkpt lat="44.03132" lon="5.99554">
        <ele>605.12</ele>
        <time>2015-05-27T11:30:19Z</time>
      </trkpt>
      <trkpt lat="44.03132" lon="5.99547">
        <ele>604.87</ele>
        <time>2015-05-27T11:30:24Z</time>
      </trkpt>
      <trkpt lat="44.03132" lon="5.99541">
        <ele>604.44</ele>
        <time>2015-05-27T11:30:28Z</time>
      </trkpt>
      <trkpt lat="44.03131" lon="5.99534">
        <ele>603.66</ele>
        <time>2015-05-27T11:30:34Z</time>
      </trkpt>
      <trkpt lat="44.03131" lon="5.99528">
        <ele>602.81</ele>
        <time>2015-05-27T11:30:39Z</time>
      </trkpt>
      <trkpt lat="44.03131" lon="5.9952">
        <ele>601.86</ele>
        <time>2015-05-27T11:30:44Z</time>
      </trkpt>
      <trkpt lat="44.03131" lon="5.99514">
        <ele>601.71</ele>
        <time>2015-05-27T11:30:48Z</time>
      </trkpt>
      <trkpt lat="44.03131" lon="5.99506">
        <ele>601.93</ele>
        <time>2015-05-27T11:30:53Z</time>
      </trkpt>
      <trkpt lat="44.03133" lon="5.99501">
        <ele>601.63</ele>
        <time>2015-05-27T11:30:58Z</time>
      </trkpt>
      <trkpt lat="44.03127" lon="5.99496">
        <ele>600.64</ele>
        <time>2015-05-27T11:31:26Z</time>
      </trkpt>
      <trkpt lat="44.03126" lon="5.99487">
        <ele>600.59</ele>
        <time>2015-05-27T11:31:37Z</time>
      </trkpt>
      <trkpt lat="44.03123" lon="5.9948">
        <ele>598.69</ele>
        <time>2015-05-27T11:31:49Z</time>
      </trkpt>
      <trkpt lat="44.03121" lon="5.99472">
        <ele>595.54</ele>
        <time>2015-05-27T11:32:00Z</time>
      </trkpt>
      <trkpt lat="44.03121" lon="5.99462">
        <ele>592.2</ele>
        <time>2015-05-27T11:32:09Z</time>
      </trkpt>
      <trkpt lat="44.03118" lon="5.99455">
        <ele>589.2</ele>
        <time>2015-05-27T11:32:19Z</time>
      </trkpt>
      <trkpt lat="44.03118" lon="5.99446">
        <ele>585.89</ele>
        <time>2015-05-27T11:32:31Z</time>
      </trkpt>
      <trkpt lat="44.03117" lon="5.99437">
        <ele>583.59</ele>
        <time>2015-05-27T11:32:43Z</time>
      </trkpt>
      <trkpt lat="44.03114" lon="5.99426">
        <ele>581.84</ele>
        <time>2015-05-27T11:32:56Z</time>
      </trkpt>
      <trkpt lat="44.03112" lon="5.99419">
        <ele>581.19</ele>
        <time>2015-05-27T11:33:08Z</time>
      </trkpt>
      <trkpt lat="44.03112" lon="5.99408">
        <ele>580.34</ele>
        <time>2015-05-27T11:33:23Z</time>
      </trkpt>
      <trkpt lat="44.03108" lon="5.99402">
        <ele>579.59</ele>
        <time>2015-05-27T11:33:35Z</time>
      </trkpt>
      <trkpt lat="44.0311" lon="5.99395">
        <ele>576.08</ele>
        <time>2015-05-27T11:34:29Z</time>
      </trkpt>
      <trkpt lat="44.03113" lon="5.9939">
        <ele>574.54</ele>
        <time>2015-05-27T11:34:39Z</time>
      </trkpt>
      <trkpt lat="44.03117" lon="5.99388">
        <ele>573.62</ele>
        <time>2015-05-27T11:34:46Z</time>
      </trkpt>
      <trkpt lat="44.03124" lon="5.99384">
        <ele>571.8</ele>
        <time>2015-05-27T11:34:57Z</time>
      </trkpt>
      <trkpt lat="44.03129" lon="5.99382">
        <ele>570.66</ele>
        <time>2015-05-27T11:35:02Z</time>
      </trkpt>
      <trkpt lat="44.03133" lon="5.99378">
        <ele>569.91</ele>
        <time>2015-05-27T11:35:07Z</time>
      </trkpt>
      <trkpt lat="44.03136" lon="5.99373">
        <ele>569.45</ele>
        <time>2015-05-27T11:35:12Z</time>
      </trkpt>
      <trkpt lat="44.0314" lon="5.99366">
        <ele>569.54</ele>
        <time>2015-05-27T11:35:21Z</time>
      </trkpt>
      <trkpt lat="44.03142" lon="5.9936">
        <ele>569.97</ele>
        <time>2015-05-27T11:35:25Z</time>
      </trkpt>
      <trkpt lat="44.03144" lon="5.99354">
        <ele>569.71</ele>
        <time>2015-05-27T11:35:31Z</time>
      </trkpt>
      <trkpt lat="44.03144" lon="5.99345">
        <ele>569.74</ele>
        <time>2015-05-27T11:35:45Z</time>
      </trkpt>
      <trkpt lat="44.03146" lon="5.99338">
        <ele>569.69</ele>
        <time>2015-05-27T11:35:58Z</time>
      </trkpt>
      <trkpt lat="44.03148" lon="5.99332">
        <ele>569.37</ele>
        <time>2015-05-27T11:36:03Z</time>
      </trkpt>
      <trkpt lat="44.03149" lon="5.99324">
        <ele>568.64</ele>
        <time>2015-05-27T11:36:09Z</time>
      </trkpt>
      <trkpt lat="44.03151" lon="5.99318">
        <ele>566.68</ele>
        <time>2015-05-27T11:36:14Z</time>
      </trkpt>
      <trkpt lat="44.03151" lon="5.99311">
        <ele>565.98</ele>
        <time>2015-05-27T11:36:18Z</time>
      </trkpt>
      <trkpt lat="44.03153" lon="5.99305">
        <ele>565.35</ele>
        <time>2015-05-27T11:36:24Z</time>
      </trkpt>
      <trkpt lat="44.03152" lon="5.99298">
        <ele>564.54</ele>
        <time>2015-05-27T11:36:29Z</time>
      </trkpt>
      <trkpt lat="44.03153" lon="5.99291">
        <ele>563.32</ele>
        <time>2015-05-27T11:36:33Z</time>
      </trkpt>
      <trkpt lat="44.03153" lon="5.99281">
        <ele>561.5</ele>
        <time>2015-05-27T11:36:42Z</time>
      </trkpt>
      <trkpt lat="44.03155" lon="5.99273">
        <ele>560.71</ele>
        <time>2015-05-27T11:36:47Z</time>
      </trkpt>
      <trkpt lat="44.03156" lon="5.99262">
        <ele>561.24</ele>
        <time>2015-05-27T11:37:00Z</time>
      </trkpt>
      <trkpt lat="44.03157" lon="5.99253">
        <ele>562.64</ele>
        <time>2015-05-27T11:37:10Z</time>
      </trkpt>
      <trkpt lat="44.03157" lon="5.99247">
        <ele>562.32</ele>
        <time>2015-05-27T11:37:16Z</time>
      </trkpt>
      <trkpt lat="44.03157" lon="5.9924">
        <ele>562.36</ele>
        <time>2015-05-27T11:37:22Z</time>
      </trkpt>
      <trkpt lat="44.03157" lon="5.99233">
        <ele>561.58</ele>
        <time>2015-05-27T11:37:28Z</time>
      </trkpt>
      <trkpt lat="44.03156" lon="5.99226">
        <ele>560.98</ele>
        <time>2015-05-27T11:37:34Z</time>
      </trkpt>
      <trkpt lat="44.03155" lon="5.99218">
        <ele>560.39</ele>
        <time>2015-05-27T11:37:43Z</time>
      </trkpt>
      <trkpt lat="44.03154" lon="5.99209">
        <ele>558.79</ele>
        <time>2015-05-27T11:37:54Z</time>
      </trkpt>
      <trkpt lat="44.03154" lon="5.99201">
        <ele>556.74</ele>
        <time>2015-05-27T11:38:05Z</time>
      </trkpt>
      <trkpt lat="44.03153" lon="5.99194">
        <ele>555.04</ele>
        <time>2015-05-27T11:38:18Z</time>
      </trkpt>
      <trkpt lat="44.03151" lon="5.99185">
        <ele>552.69</ele>
        <time>2015-05-27T11:38:35Z</time>
      </trkpt>
      <trkpt lat="44.03145" lon="5.99178">
        <ele>550.89</ele>
        <time>2015-05-27T11:39:34Z</time>
      </trkpt>
      <trkpt lat="44.03143" lon="5.99172">
        <ele>549.39</ele>
        <time>2015-05-27T11:39:44Z</time>
      </trkpt>
      <trkpt lat="44.03139" lon="5.99166">
        <ele>547.91</ele>
        <time>2015-05-27T11:39:47Z</time>
      </trkpt>
      <trkpt lat="44.03135" lon="5.99161">
        <ele>546.72</ele>
        <time>2015-05-27T11:39:51Z</time>
      </trkpt>
      <trkpt lat="44.03132" lon="5.99154">
        <ele>544.94</ele>
        <time>2015-05-27T11:40:16Z</time>
      </trkpt>
      <trkpt lat="44.03127" lon="5.9915">
        <ele>543.66</ele>
        <time>2015-05-27T11:40:24Z</time>
      </trkpt>
      <trkpt lat="44.03124" lon="5.99144">
        <ele>542.56</ele>
        <time>2015-05-27T11:40:30Z</time>
      </trkpt>
      <trkpt lat="44.03122" lon="5.99139">
        <ele>541.62</ele>
        <time>2015-05-27T11:40:35Z</time>
      </trkpt>
      <trkpt lat="44.03118" lon="5.99134">
        <ele>541.04</ele>
        <time>2015-05-27T11:40:41Z</time>
      </trkpt>
      <trkpt lat="44.03115" lon="5.99129">
        <ele>538.72</ele>
        <time>2015-05-27T11:40:48Z</time>
      </trkpt>
      <trkpt lat="44.03112" lon="5.99123">
        <ele>537.39</ele>
        <time>2015-05-27T11:40:53Z</time>
      </trkpt>
      <trkpt lat="44.0311" lon="5.99117">
        <ele>536.95</ele>
        <time>2015-05-27T11:40:57Z</time>
      </trkpt>
      <trkpt lat="44.03108" lon="5.99111">
        <ele>536.9</ele>
        <time>2015-05-27T11:41:01Z</time>
      </trkpt>
      <trkpt lat="44.03107" lon="5.99104">
        <ele>536.66</ele>
        <time>2015-05-27T11:41:06Z</time>
      </trkpt>
      <trkpt lat="44.03106" lon="5.99096">
        <ele>536.12</ele>
        <time>2015-05-27T11:41:11Z</time>
      </trkpt>
      <trkpt lat="44.03105" lon="5.9909">
        <ele>536.02</ele>
        <time>2015-05-27T11:41:16Z</time>
      </trkpt>
      <trkpt lat="44.03104" lon="5.99083">
        <ele>535.55</ele>
        <time>2015-05-27T11:41:21Z</time>
      </trkpt>
      <trkpt lat="44.03102" lon="5.99077">
        <ele>534.91</ele>
        <time>2015-05-27T11:41:27Z</time>
      </trkpt>
      <trkpt lat="44.03096" lon="5.9907">
        <ele>533.39</ele>
        <time>2015-05-27T11:41:42Z</time>
      </trkpt>
      <trkpt lat="44.03093" lon="5.99065">
        <ele>531.77</ele>
        <time>2015-05-27T11:41:48Z</time>
      </trkpt>
      <trkpt lat="44.03089" lon="5.99061">
        <ele>531.26</ele>
        <time>2015-05-27T11:41:53Z</time>
      </trkpt>
      <trkpt lat="44.03084" lon="5.99058">
        <ele>530.7</ele>
        <time>2015-05-27T11:41:57Z</time>
      </trkpt>
      <trkpt lat="44.03079" lon="5.99054">
        <ele>530.36</ele>
        <time>2015-05-27T11:42:01Z</time>
      </trkpt>
      <trkpt lat="44.03076" lon="5.9905">
        <ele>530.09</ele>
        <time>2015-05-27T11:42:04Z</time>
      </trkpt>
      <trkpt lat="44.03074" lon="5.99043">
        <ele>529.56</ele>
        <time>2015-05-27T11:42:08Z</time>
      </trkpt>
      <trkpt lat="44.03077" lon="5.99037">
        <ele>529.22</ele>
        <time>2015-05-27T11:42:12Z</time>
      </trkpt>
      <trkpt lat="44.03078" lon="5.9903">
        <ele>529.1</ele>
        <time>2015-05-27T11:42:15Z</time>
      </trkpt>
      <trkpt lat="44.0308" lon="5.99024">
        <ele>529.14</ele>
        <time>2015-05-27T11:42:18Z</time>
      </trkpt>
      <trkpt lat="44.03082" lon="5.99018">
        <ele>529.27</ele>
        <time>2015-05-27T11:42:22Z</time>
      </trkpt>
      <trkpt lat="44.03083" lon="5.99012">
        <ele>529.61</ele>
        <time>2015-05-27T11:42:27Z</time>
      </trkpt>
      <trkpt lat="44.03083" lon="5.99005">
        <ele>529.94</ele>
        <time>2015-05-27T11:42:35Z</time>
      </trkpt>
      <trkpt lat="44.03083" lon="5.98998">
        <ele>529.15</ele>
        <time>2015-05-27T11:42:43Z</time>
      </trkpt>
      <trkpt lat="44.03084" lon="5.98991">
        <ele>528.08</ele>
        <time>2015-05-27T11:42:49Z</time>
      </trkpt>
      <trkpt lat="44.03083" lon="5.98985">
        <ele>527.26</ele>
        <time>2015-05-27T11:42:54Z</time>
      </trkpt>
      <trkpt lat="44.03082" lon="5.98977">
        <ele>526.33</ele>
        <time>2015-05-27T11:43:00Z</time>
      </trkpt>
      <trkpt lat="44.0308" lon="5.98972">
        <ele>525.14</ele>
        <time>2015-05-27T11:43:05Z</time>
      </trkpt>
      <trkpt lat="44.03079" lon="5.98965">
        <ele>524.35</ele>
        <time>2015-05-27T11:43:10Z</time>
      </trkpt>
      <trkpt lat="44.03078" lon="5.98957">
        <ele>523.7</ele>
        <time>2015-05-27T11:43:15Z</time>
      </trkpt>
      <trkpt lat="44.03074" lon="5.98961">
        <ele>520.41</ele>
        <time>2015-05-27T11:43:30Z</time>
      </trkpt>
      <trkpt lat="44.03074" lon="5.98968">
        <ele>517.19</ele>
        <time>2015-05-27T11:43:43Z</time>
      </trkpt>
      <trkpt lat="44.03074" lon="5.98975">
        <ele>509.73</ele>
        <time>2015-05-27T11:43:54Z</time>
      </trkpt>
      <trkpt lat="44.0308" lon="5.98975">
        <ele>505.64</ele>
        <time>2015-05-27T11:44:50Z</time>
      </trkpt>
      <trkpt lat="44.03085" lon="5.98974">
        <ele>505.09</ele>
        <time>2015-05-27T11:44:59Z</time>
      </trkpt>
      <trkpt lat="44.0309" lon="5.9897">
        <ele>505.17</ele>
        <time>2015-05-27T11:45:05Z</time>
      </trkpt>
      <trkpt lat="44.03093" lon="5.98964">
        <ele>505.58</ele>
        <time>2015-05-27T11:45:10Z</time>
      </trkpt>
      <trkpt lat="44.03091" lon="5.98958">
        <ele>506.67</ele>
        <time>2015-05-27T11:45:32Z</time>
      </trkpt>
      <trkpt lat="44.03087" lon="5.98954">
        <ele>506.82</ele>
        <time>2015-05-27T11:45:36Z</time>
      </trkpt>
      <trkpt lat="44.03089" lon="5.98947">
        <ele>506.88</ele>
        <time>2015-05-27T11:45:42Z</time>
      </trkpt>
      <trkpt lat="44.03091" lon="5.9894">
        <ele>506.84</ele>
        <time>2015-05-27T11:45:47Z</time>
      </trkpt>
      <trkpt lat="44.03092" lon="5.98934">
        <ele>506.45</ele>
        <time>2015-05-27T11:45:53Z</time>
      </trkpt>
      <trkpt lat="44.03094" lon="5.98927">
        <ele>506.4</ele>
        <time>2015-05-27T11:45:58Z</time>
      </trkpt>
      <trkpt lat="44.03092" lon="5.9892">
        <ele>506.01</ele>
        <time>2015-05-27T11:46:04Z</time>
      </trkpt>
      <trkpt lat="44.03091" lon="5.98914">
        <ele>505.2</ele>
        <time>2015-05-27T11:46:09Z</time>
      </trkpt>
      <trkpt lat="44.03091" lon="5.98907">
        <ele>504.78</ele>
        <time>2015-05-27T11:46:14Z</time>
      </trkpt>
      <trkpt lat="44.03092" lon="5.989">
        <ele>504.46</ele>
        <time>2015-05-27T11:46:20Z</time>
      </trkpt>
      <trkpt lat="44.03096" lon="5.98899">
        <ele>504.74</ele>
        <time>2015-05-27T11:46:30Z</time>
      </trkpt>
      <trkpt lat="44.03102" lon="5.98903">
        <ele>505.59</ele>
        <time>2015-05-27T11:46:45Z</time>
      </trkpt>
      <trkpt lat="44.03105" lon="5.98908">
        <ele>506.9</ele>
        <time>2015-05-27T11:46:51Z</time>
      </trkpt>
      <trkpt lat="44.03108" lon="5.98913">
        <ele>507.86</ele>
        <time>2015-05-27T11:46:58Z</time>
      </trkpt>
      <trkpt lat="44.03114" lon="5.98913">
        <ele>508.54</ele>
        <time>2015-05-27T11:47:08Z</time>
      </trkpt>
      <trkpt lat="44.03122" lon="5.98913">
        <ele>509.29</ele>
        <time>2015-05-27T11:47:18Z</time>
      </trkpt>
      <trkpt lat="44.03127" lon="5.98909">
        <ele>509.49</ele>
        <time>2015-05-27T11:47:27Z</time>
      </trkpt>
      <trkpt lat="44.03123" lon="5.98904">
        <ele>509.83</ele>
        <time>2015-05-27T11:47:34Z</time>
      </trkpt>
      <trkpt lat="44.03118" lon="5.98901">
        <ele>509.98</ele>
        <time>2015-05-27T11:47:39Z</time>
      </trkpt>
      <trkpt lat="44.0312" lon="5.98894">
        <ele>509.85</ele>
        <time>2015-05-27T11:47:46Z</time>
      </trkpt>
      <trkpt lat="44.03122" lon="5.98887">
        <ele>508.77</ele>
        <time>2015-05-27T11:47:52Z</time>
      </trkpt>
      <trkpt lat="44.03123" lon="5.9888">
        <ele>508.36</ele>
        <time>2015-05-27T11:47:59Z</time>
      </trkpt>
      <trkpt lat="44.03126" lon="5.98874">
        <ele>508.87</ele>
        <time>2015-05-27T11:48:09Z</time>
      </trkpt>
      <trkpt lat="44.03128" lon="5.9888">
        <ele>508.79</ele>
        <time>2015-05-27T11:48:28Z</time>
      </trkpt>
      <trkpt lat="44.03133" lon="5.98881">
        <ele>508.44</ele>
        <time>2015-05-27T11:48:34Z</time>
      </trkpt>
      <trkpt lat="44.03137" lon="5.98883">
        <ele>508.44</ele>
        <time>2015-05-27T11:48:48Z</time>
      </trkpt>
      <trkpt lat="44.03139" lon="5.98877">
        <ele>509.39</ele>
        <time>2015-05-27T11:48:52Z</time>
      </trkpt>
      <trkpt lat="44.03143" lon="5.98872">
        <ele>511.01</ele>
        <time>2015-05-27T11:48:59Z</time>
      </trkpt>
      <trkpt lat="44.03149" lon="5.98867">
        <ele>512.49</ele>
        <time>2015-05-27T11:49:11Z</time>
      </trkpt>
      <trkpt lat="44.03153" lon="5.98864">
        <ele>513.15</ele>
        <time>2015-05-27T11:49:15Z</time>
      </trkpt>
      <trkpt lat="44.03152" lon="5.98856">
        <ele>513.39</ele>
        <time>2015-05-27T11:49:28Z</time>
      </trkpt>
      <trkpt lat="44.03151" lon="5.98845">
        <ele>514.14</ele>
        <time>2015-05-27T11:49:42Z</time>
      </trkpt>
      <trkpt lat="44.03151" lon="5.98839">
        <ele>513.68</ele>
        <time>2015-05-27T11:49:49Z</time>
      </trkpt>
      <trkpt lat="44.03148" lon="5.98834">
        <ele>513.59</ele>
        <time>2015-05-27T11:49:57Z</time>
      </trkpt>
      <trkpt lat="44.03149" lon="5.98828">
        <ele>512.86</ele>
        <time>2015-05-27T11:50:18Z</time>
      </trkpt>
      <trkpt lat="44.03155" lon="5.98829">
        <ele>514.74</ele>
        <time>2015-05-27T11:50:30Z</time>
      </trkpt>
      <trkpt lat="44.03158" lon="5.98835">
        <ele>518.24</ele>
        <time>2015-05-27T11:50:42Z</time>
      </trkpt>
      <trkpt lat="44.03161" lon="5.98842">
        <ele>519.59</ele>
        <time>2015-05-27T11:51:01Z</time>
      </trkpt>
      <trkpt lat="44.03158" lon="5.98834">
        <ele>517.8</ele>
        <time>2015-05-27T11:51:25Z</time>
      </trkpt>
      <trkpt lat="44.03158" lon="5.98827">
        <ele>517.52</ele>
        <time>2015-05-27T11:51:28Z</time>
      </trkpt>
      <trkpt lat="44.03158" lon="5.9882">
        <ele>516.9</ele>
        <time>2015-05-27T11:51:32Z</time>
      </trkpt>
      <trkpt lat="44.03158" lon="5.98814">
        <ele>516.19</ele>
        <time>2015-05-27T11:51:51Z</time>
      </trkpt>
      <trkpt lat="44.03162" lon="5.98819">
        <ele>516.59</ele>
        <time>2015-05-27T11:51:59Z</time>
      </trkpt>
      <trkpt lat="44.03164" lon="5.98812">
        <ele>516.49</ele>
        <time>2015-05-27T11:52:17Z</time>
      </trkpt>
      <trkpt lat="44.03169" lon="5.9881">
        <ele>515.79</ele>
        <time>2015-05-27T11:52:24Z</time>
      </trkpt>
      <trkpt lat="44.03172" lon="5.98804">
        <ele>515.2</ele>
        <time>2015-05-27T11:52:39Z</time>
      </trkpt>
      <trkpt lat="44.03175" lon="5.98799">
        <ele>515.57</ele>
        <time>2015-05-27T11:52:44Z</time>
      </trkpt>
      <trkpt lat="44.03181" lon="5.98799">
        <ele>515.66</ele>
        <time>2015-05-27T11:52:49Z</time>
      </trkpt>
      <trkpt lat="44.03185" lon="5.98799">
        <ele>515.73</ele>
        <time>2015-05-27T11:52:54Z</time>
      </trkpt>
      <trkpt lat="44.0319" lon="5.98796">
        <ele>515.31</ele>
        <time>2015-05-27T11:53:01Z</time>
      </trkpt>
      <trkpt lat="44.03192" lon="5.98791">
        <ele>515.15</ele>
        <time>2015-05-27T11:53:10Z</time>
      </trkpt>
      <trkpt lat="44.03195" lon="5.98785">
        <ele>514.54</ele>
        <time>2015-05-27T11:53:40Z</time>
      </trkpt>
      <trkpt lat="44.03201" lon="5.98778">
        <ele>510.59</ele>
        <time>2015-05-27T11:54:17Z</time>
      </trkpt>
      <trkpt lat="44.03206" lon="5.98768">
        <ele>509.64</ele>
        <time>2015-05-27T11:54:40Z</time>
      </trkpt>
      <trkpt lat="44.03203" lon="5.9876">
        <ele>506.04</ele>
        <time>2015-05-27T11:54:56Z</time>
      </trkpt>
      <trkpt lat="44.03199" lon="5.9875">
        <ele>497.69</ele>
        <time>2015-05-27T11:55:37Z</time>
      </trkpt>
      <trkpt lat="44.03202" lon="5.98743">
        <ele>494.99</ele>
        <time>2015-05-27T11:55:52Z</time>
      </trkpt>
      <trkpt lat="44.032" lon="5.98737">
        <ele>489.34</ele>
        <time>2015-05-27T11:56:14Z</time>
      </trkpt>
      <trkpt lat="44.03198" lon="5.9873">
        <ele>487.25</ele>
        <time>2015-05-27T11:56:20Z</time>
      </trkpt>
      <trkpt lat="44.03199" lon="5.98723">
        <ele>485.16</ele>
        <time>2015-05-27T11:56:26Z</time>
      </trkpt>
      <trkpt lat="44.03202" lon="5.98716">
        <ele>484.07</ele>
        <time>2015-05-27T11:56:32Z</time>
      </trkpt>
      <trkpt lat="44.03203" lon="5.98709">
        <ele>477.51</ele>
        <time>2015-05-27T11:56:45Z</time>
      </trkpt>
      <trkpt lat="44.03201" lon="5.98702">
        <ele>473</ele>
        <time>2015-05-27T11:56:53Z</time>
      </trkpt>
      <trkpt lat="44.03199" lon="5.98696">
        <ele>471.27</ele>
        <time>2015-05-27T11:56:59Z</time>
      </trkpt>
      <trkpt lat="44.03195" lon="5.98692">
        <ele>470.29</ele>
        <time>2015-05-27T11:57:06Z</time>
      </trkpt>
      <trkpt lat="44.0319" lon="5.98689">
        <ele>470.07</ele>
        <time>2015-05-27T11:57:11Z</time>
      </trkpt>
      <trkpt lat="44.03194" lon="5.98686">
        <ele>467.46</ele>
        <time>2015-05-27T11:57:27Z</time>
      </trkpt>
      <trkpt lat="44.03198" lon="5.98691">
        <ele>465.4</ele>
        <time>2015-05-27T11:57:34Z</time>
      </trkpt>
      <trkpt lat="44.03202" lon="5.98696">
        <ele>463.88</ele>
        <time>2015-05-27T11:57:39Z</time>
      </trkpt>
      <trkpt lat="44.03208" lon="5.98698">
        <ele>463.27</ele>
        <time>2015-05-27T11:57:46Z</time>
      </trkpt>
      <trkpt lat="44.03212" lon="5.98697">
        <ele>462.46</ele>
        <time>2015-05-27T11:57:51Z</time>
      </trkpt>
      <trkpt lat="44.03211" lon="5.98691">
        <ele>460.52</ele>
        <time>2015-05-27T11:57:58Z</time>
      </trkpt>
      <trkpt lat="44.03211" lon="5.98685">
        <ele>458.87</ele>
        <time>2015-05-27T11:58:04Z</time>
      </trkpt>
      <trkpt lat="44.03209" lon="5.98678">
        <ele>457.85</ele>
        <time>2015-05-27T11:58:11Z</time>
      </trkpt>
      <trkpt lat="44.03205" lon="5.98674">
        <ele>453.65</ele>
        <time>2015-05-27T11:58:21Z</time>
      </trkpt>
      <trkpt lat="44.03202" lon="5.98669">
        <ele>449.62</ele>
        <time>2015-05-27T11:58:29Z</time>
      </trkpt>
      <trkpt lat="44.032" lon="5.98663">
        <ele>449.61</ele>
        <time>2015-05-27T11:58:34Z</time>
      </trkpt>
      <trkpt lat="44.03198" lon="5.98656">
        <ele>449.15</ele>
        <time>2015-05-27T11:58:39Z</time>
      </trkpt>
      <trkpt lat="44.03195" lon="5.9865">
        <ele>448.22</ele>
        <time>2015-05-27T11:58:45Z</time>
      </trkpt>
      <trkpt lat="44.03192" lon="5.98645">
        <ele>447.27</ele>
        <time>2015-05-27T11:58:49Z</time>
      </trkpt>
      <trkpt lat="44.03191" lon="5.98638">
        <ele>446.66</ele>
        <time>2015-05-27T11:58:54Z</time>
      </trkpt>
      <trkpt lat="44.03191" lon="5.98631">
        <ele>446.4</ele>
        <time>2015-05-27T11:58:59Z</time>
      </trkpt>
      <trkpt lat="44.03191" lon="5.98625">
        <ele>446.09</ele>
        <time>2015-05-27T11:59:04Z</time>
      </trkpt>
      <trkpt lat="44.0319" lon="5.98617">
        <ele>445.73</ele>
        <time>2015-05-27T11:59:10Z</time>
      </trkpt>
      <trkpt lat="44.0319" lon="5.9861">
        <ele>445.74</ele>
        <time>2015-05-27T11:59:14Z</time>
      </trkpt>
      <trkpt lat="44.03188" lon="5.98604">
        <ele>445.4</ele>
        <time>2015-05-27T11:59:18Z</time>
      </trkpt>
      <trkpt lat="44.03186" lon="5.98599">
        <ele>445.13</ele>
        <time>2015-05-27T11:59:22Z</time>
      </trkpt>
      <trkpt lat="44.03183" lon="5.98593">
        <ele>445.11</ele>
        <time>2015-05-27T11:59:26Z</time>
      </trkpt>
      <trkpt lat="44.03181" lon="5.98587">
        <ele>444.77</ele>
        <time>2015-05-27T11:59:30Z</time>
      </trkpt>
      <trkpt lat="44.03181" lon="5.9858">
        <ele>442.81</ele>
        <time>2015-05-27T11:59:34Z</time>
      </trkpt>
      <trkpt lat="44.0318" lon="5.98573">
        <ele>440.13</ele>
        <time>2015-05-27T11:59:39Z</time>
      </trkpt>
      <trkpt lat="44.03178" lon="5.98566">
        <ele>438.65</ele>
        <time>2015-05-27T11:59:44Z</time>
      </trkpt>
      <trkpt lat="44.03175" lon="5.98561">
        <ele>437.57</ele>
        <time>2015-05-27T11:59:48Z</time>
      </trkpt>
      <trkpt lat="44.03171" lon="5.98557">
        <ele>437.34</ele>
        <time>2015-05-27T11:59:52Z</time>
      </trkpt>
      <trkpt lat="44.03168" lon="5.98552">
        <ele>436.98</ele>
        <time>2015-05-27T11:59:56Z</time>
      </trkpt>
      <trkpt lat="44.03165" lon="5.98547">
        <ele>436.43</ele>
        <time>2015-05-27T12:00:00Z</time>
      </trkpt>
      <trkpt lat="44.03163" lon="5.98541">
        <ele>435.95</ele>
        <time>2015-05-27T12:00:04Z</time>
      </trkpt>
      <trkpt lat="44.0316" lon="5.98535">
        <ele>435.18</ele>
        <time>2015-05-27T12:00:09Z</time>
      </trkpt>
      <trkpt lat="44.03157" lon="5.98529">
        <ele>434.51</ele>
        <time>2015-05-27T12:00:14Z</time>
      </trkpt>
      <trkpt lat="44.03157" lon="5.98522">
        <ele>433.1</ele>
        <time>2015-05-27T12:00:18Z</time>
      </trkpt>
      <trkpt lat="44.03156" lon="5.98515">
        <ele>432.1</ele>
        <time>2015-05-27T12:00:22Z</time>
      </trkpt>
      <trkpt lat="44.03156" lon="5.98508">
        <ele>431.62</ele>
        <time>2015-05-27T12:00:26Z</time>
      </trkpt>
      <trkpt lat="44.03154" lon="5.98502">
        <ele>431.1</ele>
        <time>2015-05-27T12:00:30Z</time>
      </trkpt>
      <trkpt lat="44.03153" lon="5.98495">
        <ele>430.13</ele>
        <time>2015-05-27T12:00:34Z</time>
      </trkpt>
      <trkpt lat="44.03152" lon="5.98488">
        <ele>429.35</ele>
        <time>2015-05-27T12:00:39Z</time>
      </trkpt>
      <trkpt lat="44.03152" lon="5.98481">
        <ele>428.56</ele>
        <time>2015-05-27T12:00:45Z</time>
      </trkpt>
      <trkpt lat="44.03149" lon="5.98476">
        <ele>428.81</ele>
        <time>2015-05-27T12:00:51Z</time>
      </trkpt>
      <trkpt lat="44.03148" lon="5.98469">
        <ele>428.91</ele>
        <time>2015-05-27T12:00:55Z</time>
      </trkpt>
      <trkpt lat="44.03145" lon="5.98463">
        <ele>428.75</ele>
        <time>2015-05-27T12:00:58Z</time>
      </trkpt>
      <trkpt lat="44.03141" lon="5.98458">
        <ele>428.34</ele>
        <time>2015-05-27T12:01:02Z</time>
      </trkpt>
      <trkpt lat="44.03139" lon="5.98452">
        <ele>427.67</ele>
        <time>2015-05-27T12:01:06Z</time>
      </trkpt>
      <trkpt lat="44.03138" lon="5.98445">
        <ele>427.46</ele>
        <time>2015-05-27T12:01:10Z</time>
      </trkpt>
      <trkpt lat="44.03135" lon="5.9844">
        <ele>426.59</ele>
        <time>2015-05-27T12:01:15Z</time>
      </trkpt>
      <trkpt lat="44.03133" lon="5.98433">
        <ele>425.96</ele>
        <time>2015-05-27T12:01:21Z</time>
      </trkpt>
      <trkpt lat="44.03132" lon="5.98427">
        <ele>426.18</ele>
        <time>2015-05-27T12:01:26Z</time>
      </trkpt>
      <trkpt lat="44.03132" lon="5.98421">
        <ele>425.51</ele>
        <time>2015-05-27T12:01:31Z</time>
      </trkpt>
      <trkpt lat="44.0313" lon="5.98415">
        <ele>424.4</ele>
        <time>2015-05-27T12:01:36Z</time>
      </trkpt>
      <trkpt lat="44.03128" lon="5.98408">
        <ele>422.97</ele>
        <time>2015-05-27T12:01:42Z</time>
      </trkpt>
      <trkpt lat="44.03127" lon="5.98402">
        <ele>421.66</ele>
        <time>2015-05-27T12:01:47Z</time>
      </trkpt>
      <trkpt lat="44.03126" lon="5.98396">
        <ele>420.74</ele>
        <time>2015-05-27T12:01:52Z</time>
      </trkpt>
      <trkpt lat="44.03123" lon="5.9839">
        <ele>419.17</ele>
        <time>2015-05-27T12:01:58Z</time>
      </trkpt>
      <trkpt lat="44.03121" lon="5.98384">
        <ele>418.34</ele>
        <time>2015-05-27T12:02:05Z</time>
      </trkpt>
      <trkpt lat="44.03116" lon="5.9838">
        <ele>417.58</ele>
        <time>2015-05-27T12:02:10Z</time>
      </trkpt>
      <trkpt lat="44.03114" lon="5.98375">
        <ele>416.99</ele>
        <time>2015-05-27T12:02:16Z</time>
      </trkpt>
      <trkpt lat="44.03111" lon="5.98365">
        <ele>416.29</ele>
        <time>2015-05-27T12:02:27Z</time>
      </trkpt>
      <trkpt lat="44.03109" lon="5.98359">
        <ele>415.98</ele>
        <time>2015-05-27T12:02:33Z</time>
      </trkpt>
      <trkpt lat="44.03106" lon="5.98354">
        <ele>415.16</ele>
        <time>2015-05-27T12:02:38Z</time>
      </trkpt>
      <trkpt lat="44.03107" lon="5.98346">
        <ele>414.2</ele>
        <time>2015-05-27T12:02:44Z</time>
      </trkpt>
      <trkpt lat="44.03107" lon="5.9834">
        <ele>413.21</ele>
        <time>2015-05-27T12:02:50Z</time>
      </trkpt>
      <trkpt lat="44.03107" lon="5.98332">
        <ele>412.16</ele>
        <time>2015-05-27T12:02:55Z</time>
      </trkpt>
      <trkpt lat="44.03106" lon="5.98326">
        <ele>411.32</ele>
        <time>2015-05-27T12:02:59Z</time>
      </trkpt>
      <trkpt lat="44.03103" lon="5.98319">
        <ele>410.98</ele>
        <time>2015-05-27T12:03:03Z</time>
      </trkpt>
      <trkpt lat="44.03099" lon="5.98315">
        <ele>410.25</ele>
        <time>2015-05-27T12:03:08Z</time>
      </trkpt>
      <trkpt lat="44.03098" lon="5.98307">
        <ele>409.19</ele>
        <time>2015-05-27T12:03:13Z</time>
      </trkpt>
      <trkpt lat="44.031" lon="5.98301">
        <ele>408.39</ele>
        <time>2015-05-27T12:03:17Z</time>
      </trkpt>
      <trkpt lat="44.03099" lon="5.98294">
        <ele>407.33</ele>
        <time>2015-05-27T12:03:23Z</time>
      </trkpt>
      <trkpt lat="44.03097" lon="5.98287">
        <ele>406.91</ele>
        <time>2015-05-27T12:03:27Z</time>
      </trkpt>
      <trkpt lat="44.03097" lon="5.9828">
        <ele>406.9</ele>
        <time>2015-05-27T12:03:31Z</time>
      </trkpt>
      <trkpt lat="44.03095" lon="5.98273">
        <ele>406.56</ele>
        <time>2015-05-27T12:03:36Z</time>
      </trkpt>
      <trkpt lat="44.03091" lon="5.98267">
        <ele>405.37</ele>
        <time>2015-05-27T12:03:40Z</time>
      </trkpt>
      <trkpt lat="44.03087" lon="5.98262">
        <ele>403.81</ele>
        <time>2015-05-27T12:03:44Z</time>
      </trkpt>
      <trkpt lat="44.03084" lon="5.98256">
        <ele>402.89</ele>
        <time>2015-05-27T12:03:48Z</time>
      </trkpt>
      <trkpt lat="44.03081" lon="5.98252">
        <ele>401.9</ele>
        <time>2015-05-27T12:03:52Z</time>
      </trkpt>
      <trkpt lat="44.03076" lon="5.98246">
        <ele>401.12</ele>
        <time>2015-05-27T12:03:56Z</time>
      </trkpt>
      <trkpt lat="44.03073" lon="5.98241">
        <ele>400.02</ele>
        <time>2015-05-27T12:04:00Z</time>
      </trkpt>
      <trkpt lat="44.03069" lon="5.98235">
        <ele>398.78</ele>
        <time>2015-05-27T12:04:04Z</time>
      </trkpt>
      <trkpt lat="44.03064" lon="5.9823">
        <ele>397.29</ele>
        <time>2015-05-27T12:04:08Z</time>
      </trkpt>
      <trkpt lat="44.03061" lon="5.98225">
        <ele>396.76</ele>
        <time>2015-05-27T12:04:12Z</time>
      </trkpt>
      <trkpt lat="44.0306" lon="5.98218">
        <ele>396.1</ele>
        <time>2015-05-27T12:04:17Z</time>
      </trkpt>
      <trkpt lat="44.03058" lon="5.9821">
        <ele>395.12</ele>
        <time>2015-05-27T12:04:24Z</time>
      </trkpt>
      <trkpt lat="44.03056" lon="5.98203">
        <ele>394.29</ele>
        <time>2015-05-27T12:04:30Z</time>
      </trkpt>
      <trkpt lat="44.03055" lon="5.98196">
        <ele>393.59</ele>
        <time>2015-05-27T12:04:37Z</time>
      </trkpt>
      <trkpt lat="44.03058" lon="5.98191">
        <ele>393.06</ele>
        <time>2015-05-27T12:04:42Z</time>
      </trkpt>
      <trkpt lat="44.03063" lon="5.98193">
        <ele>392.93</ele>
        <time>2015-05-27T12:04:46Z</time>
      </trkpt>
      <trkpt lat="44.03067" lon="5.98196">
        <ele>392.51</ele>
        <time>2015-05-27T12:04:50Z</time>
      </trkpt>
      <trkpt lat="44.03071" lon="5.982">
        <ele>392.29</ele>
        <time>2015-05-27T12:04:54Z</time>
      </trkpt>
      <trkpt lat="44.03075" lon="5.98204">
        <ele>392.15</ele>
        <time>2015-05-27T12:04:59Z</time>
      </trkpt>
      <trkpt lat="44.03078" lon="5.98209">
        <ele>392.17</ele>
        <time>2015-05-27T12:05:04Z</time>
      </trkpt>
      <trkpt lat="44.03079" lon="5.98215">
        <ele>391.87</ele>
        <time>2015-05-27T12:05:11Z</time>
      </trkpt>
      <trkpt lat="44.03079" lon="5.98222">
        <ele>391.32</ele>
        <time>2015-05-27T12:05:19Z</time>
      </trkpt>
      <trkpt lat="44.03082" lon="5.98228">
        <ele>391.55</ele>
        <time>2015-05-27T12:05:27Z</time>
      </trkpt>
      <trkpt lat="44.03087" lon="5.98231">
        <ele>392.2</ele>
        <time>2015-05-27T12:05:33Z</time>
      </trkpt>
      <trkpt lat="44.03092" lon="5.98231">
        <ele>394.63</ele>
        <time>2015-05-27T12:05:38Z</time>
      </trkpt>
      <trkpt lat="44.03097" lon="5.98232">
        <ele>397.55</ele>
        <time>2015-05-27T12:05:43Z</time>
      </trkpt>
      <trkpt lat="44.03101" lon="5.98236">
        <ele>399.3</ele>
        <time>2015-05-27T12:05:47Z</time>
      </trkpt>
      <trkpt lat="44.03105" lon="5.98241">
        <ele>400.48</ele>
        <time>2015-05-27T12:05:52Z</time>
      </trkpt>
      <trkpt lat="44.03107" lon="5.98247">
        <ele>401.27</ele>
        <time>2015-05-27T12:05:57Z</time>
      </trkpt>
      <trkpt lat="44.03109" lon="5.98253">
        <ele>401.08</ele>
        <time>2015-05-27T12:06:03Z</time>
      </trkpt>
      <trkpt lat="44.03111" lon="5.98259">
        <ele>400.93</ele>
        <time>2015-05-27T12:06:09Z</time>
      </trkpt>
      <trkpt lat="44.03113" lon="5.98265">
        <ele>400.95</ele>
        <time>2015-05-27T12:06:16Z</time>
      </trkpt>
      <trkpt lat="44.03118" lon="5.98268">
        <ele>401.52</ele>
        <time>2015-05-27T12:06:21Z</time>
      </trkpt>
      <trkpt lat="44.03122" lon="5.98272">
        <ele>401.41</ele>
        <time>2015-05-27T12:06:27Z</time>
      </trkpt>
      <trkpt lat="44.03126" lon="5.98275">
        <ele>401.51</ele>
        <time>2015-05-27T12:06:31Z</time>
      </trkpt>
      <trkpt lat="44.0313" lon="5.98282">
        <ele>401.58</ele>
        <time>2015-05-27T12:06:36Z</time>
      </trkpt>
      <trkpt lat="44.03132" lon="5.98288">
        <ele>401.06</ele>
        <time>2015-05-27T12:06:41Z</time>
      </trkpt>
      <trkpt lat="44.03137" lon="5.98292">
        <ele>400.6</ele>
        <time>2015-05-27T12:06:46Z</time>
      </trkpt>
      <trkpt lat="44.03139" lon="5.98299">
        <ele>400.25</ele>
        <time>2015-05-27T12:06:51Z</time>
      </trkpt>
      <trkpt lat="44.03141" lon="5.98305">
        <ele>400.19</ele>
        <time>2015-05-27T12:06:58Z</time>
      </trkpt>
      <trkpt lat="44.03144" lon="5.9831">
        <ele>399.56</ele>
        <time>2015-05-27T12:07:03Z</time>
      </trkpt>
      <trkpt lat="44.03149" lon="5.98312">
        <ele>399.01</ele>
        <time>2015-05-27T12:07:07Z</time>
      </trkpt>
      <trkpt lat="44.03153" lon="5.98315">
        <ele>398.85</ele>
        <time>2015-05-27T12:07:11Z</time>
      </trkpt>
      <trkpt lat="44.03157" lon="5.98319">
        <ele>398.95</ele>
        <time>2015-05-27T12:07:15Z</time>
      </trkpt>
      <trkpt lat="44.03161" lon="5.98323">
        <ele>398.96</ele>
        <time>2015-05-27T12:07:19Z</time>
      </trkpt>
      <trkpt lat="44.03165" lon="5.98328">
        <ele>397.74</ele>
        <time>2015-05-27T12:07:23Z</time>
      </trkpt>
      <trkpt lat="44.03168" lon="5.98333">
        <ele>396.7</ele>
        <time>2015-05-27T12:07:27Z</time>
      </trkpt>
      <trkpt lat="44.03172" lon="5.98337">
        <ele>396.2</ele>
        <time>2015-05-27T12:07:31Z</time>
      </trkpt>
      <trkpt lat="44.03175" lon="5.98343">
        <ele>395.32</ele>
        <time>2015-05-27T12:07:36Z</time>
      </trkpt>
      <trkpt lat="44.03179" lon="5.98347">
        <ele>393.99</ele>
        <time>2015-05-27T12:07:40Z</time>
      </trkpt>
      <trkpt lat="44.03183" lon="5.98351">
        <ele>392.4</ele>
        <time>2015-05-27T12:07:44Z</time>
      </trkpt>
      <trkpt lat="44.03187" lon="5.98355">
        <ele>391.37</ele>
        <time>2015-05-27T12:07:48Z</time>
      </trkpt>
      <trkpt lat="44.03191" lon="5.9836">
        <ele>389.96</ele>
        <time>2015-05-27T12:07:53Z</time>
      </trkpt>
      <trkpt lat="44.03194" lon="5.98364">
        <ele>389.37</ele>
        <time>2015-05-27T12:07:57Z</time>
      </trkpt>
      <trkpt lat="44.03197" lon="5.98369">
        <ele>388.78</ele>
        <time>2015-05-27T12:08:01Z</time>
      </trkpt>
      <trkpt lat="44.032" lon="5.98375">
        <ele>388.26</ele>
        <time>2015-05-27T12:08:05Z</time>
      </trkpt>
      <trkpt lat="44.03201" lon="5.98381">
        <ele>387.34</ele>
        <time>2015-05-27T12:08:09Z</time>
      </trkpt>
      <trkpt lat="44.03204" lon="5.98388">
        <ele>386.27</ele>
        <time>2015-05-27T12:08:14Z</time>
      </trkpt>
      <trkpt lat="44.03206" lon="5.98394">
        <ele>385.67</ele>
        <time>2015-05-27T12:08:18Z</time>
      </trkpt>
      <trkpt lat="44.03206" lon="5.98401">
        <ele>384.1</ele>
        <time>2015-05-27T12:08:23Z</time>
      </trkpt>
      <trkpt lat="44.03207" lon="5.98409">
        <ele>382.58</ele>
        <time>2015-05-27T12:08:28Z</time>
      </trkpt>
      <trkpt lat="44.03209" lon="5.98416">
        <ele>381.07</ele>
        <time>2015-05-27T12:08:33Z</time>
      </trkpt>
      <trkpt lat="44.03211" lon="5.98422">
        <ele>380.12</ele>
        <time>2015-05-27T12:08:38Z</time>
      </trkpt>
      <trkpt lat="44.03215" lon="5.98428">
        <ele>379.72</ele>
        <time>2015-05-27T12:08:43Z</time>
      </trkpt>
      <trkpt lat="44.03218" lon="5.98433">
        <ele>379.36</ele>
        <time>2015-05-27T12:08:48Z</time>
      </trkpt>
      <trkpt lat="44.0322" lon="5.98439">
        <ele>378.54</ele>
        <time>2015-05-27T12:08:54Z</time>
      </trkpt>
      <trkpt lat="44.03224" lon="5.98445">
        <ele>377.7</ele>
        <time>2015-05-27T12:09:00Z</time>
      </trkpt>
      <trkpt lat="44.03226" lon="5.98452">
        <ele>376.43</ele>
        <time>2015-05-27T12:09:05Z</time>
      </trkpt>
      <trkpt lat="44.03229" lon="5.98458">
        <ele>375.54</ele>
        <time>2015-05-27T12:09:10Z</time>
      </trkpt>
      <trkpt lat="44.0323" lon="5.98464">
        <ele>374.75</ele>
        <time>2015-05-27T12:09:15Z</time>
      </trkpt>
      <trkpt lat="44.0323" lon="5.98472">
        <ele>373.59</ele>
        <time>2015-05-27T12:09:21Z</time>
      </trkpt>
      <trkpt lat="44.03234" lon="5.98476">
        <ele>372.95</ele>
        <time>2015-05-27T12:09:27Z</time>
      </trkpt>
      <trkpt lat="44.03237" lon="5.98482">
        <ele>373.07</ele>
        <time>2015-05-27T12:09:32Z</time>
      </trkpt>
      <trkpt lat="44.0324" lon="5.98486">
        <ele>372.39</ele>
        <time>2015-05-27T12:09:37Z</time>
      </trkpt>
      <trkpt lat="44.03244" lon="5.98491">
        <ele>370.84</ele>
        <time>2015-05-27T12:09:43Z</time>
      </trkpt>
    </trkseg>
  </trk>
</gpx>